Wetterdaten: Mittwoch, 17.05.2017
Datum Zeit Temp. A. Pool Temp. Feuchte A. Luftdruck Regen Wind Richtung Richtung Sonnenschein ET UV Solar Taupunkt Windchill Windben Empfang
17.05.2017 00:00 13,3 C 21,1 C 83 % 1026,2 hPa 0,0 l/m 0,0 km/h (0 Bft) O-SO 115 0 min 0,000 mm 0,0 UV-I 0 W/m 10,5 C 13,3 C 0,0 km/h (0 Bft) 96,00 %
17.05.2017 00:02 13,2 C 21,1 C 83 % 1026,2 hPa 0,0 l/m 0,1 km/h (0 Bft) O-SO 115 0 min 0,000 mm 0,0 UV-I 0 W/m 10,4 C 13,2 C 1,6 km/h (1 Bft) 100,00 %
17.05.2017 00:04 13,2 C 21,1 C 83 % 1026,2 hPa 0,0 l/m 3,3 km/h (1 Bft) O-SO 115 0 min 0,000 mm 0,0 UV-I 0 W/m 10,4 C 13,2 C 4,8 km/h (1 Bft) 95,74 %
17.05.2017 00:06 13,3 C 21,1 C 84 % 1026,2 hPa 0,0 l/m 0,7 km/h (0 Bft) O-SO 115 0 min 0,000 mm 0,0 UV-I 0 W/m 10,7 C 13,3 C 3,2 km/h (1 Bft) 98,11 %
17.05.2017 00:08 13,3 C 21,1 C 83 % 1026,2 hPa 0,0 l/m 1,3 km/h (1 Bft) O-SO 115 0 min 0,000 mm 0,0 UV-I 0 W/m 10,5 C 13,3 C 3,2 km/h (1 Bft) 97,37 %
17.05.2017 00:10 13,6 C 21,1 C 82 % 1026,2 hPa 0,0 l/m 2,1 km/h (1 Bft) O-SO 115 0 min 0,000 mm 0,0 UV-I 0 W/m 10,6 C 13,6 C 3,2 km/h (1 Bft) 98,00 %
17.05.2017 00:12 13,7 C 21,1 C 82 % 1026,2 hPa 0,0 l/m 1,8 km/h (1 Bft) O-SO 115 0 min 0,000 mm 0,0 UV-I 0 W/m 10,7 C 13,7 C 3,2 km/h (1 Bft) 98,00 %
17.05.2017 00:14 13,7 C 21,1 C 82 % 1026,2 hPa 0,0 l/m 3,8 km/h (1 Bft) O-SO 115 0 min 0,000 mm 0,0 UV-I 0 W/m 10,7 C 13,7 C 4,8 km/h (1 Bft) 94,34 %
17.05.2017 00:16 13,7 C 21,1 C 83 % 1026,2 hPa 0,0 l/m 0,5 km/h (0 Bft) O-SO 115 0 min 0,000 mm 0,0 UV-I 0 W/m 10,9 C 13,7 C 1,6 km/h (1 Bft) 94,74 %
17.05.2017 00:18 13,6 C 21,1 C 83 % 1026,3 hPa 0,0 l/m 0,9 km/h (0 Bft) O-SO 115 0 min 0,000 mm 0,0 UV-I 0 W/m 10,8 C 13,6 C 3,2 km/h (1 Bft) 92,45 %
17.05.2017 00:20 13,6 C 21,1 C 82 % 1026,3 hPa 0,0 l/m 2,1 km/h (1 Bft) O-SO 115 0 min 0,000 mm 0,0 UV-I 0 W/m 10,6 C 13,6 C 4,8 km/h (1 Bft) 94,00 %
17.05.2017 00:22 13,7 C 21,1 C 82 % 1026,3 hPa 0,0 l/m 2,8 km/h (1 Bft) O-SO 115 0 min 0,000 mm 0,0 UV-I 0 W/m 10,7 C 13,7 C 4,8 km/h (1 Bft) 94,87 %
17.05.2017 00:24 13,8 C 21,1 C 82 % 1026,3 hPa 0,0 l/m 2,2 km/h (1 Bft) O-SO 116 0 min 0,000 mm 0,0 UV-I 0 W/m 10,8 C 13,8 C 4,8 km/h (1 Bft) 92,11 %
17.05.2017 00:26 13,8 C 21,1 C 82 % 1026,3 hPa 0,0 l/m 3,0 km/h (1 Bft) O-SO 116 0 min 0,000 mm 0,0 UV-I 0 W/m 10,8 C 13,8 C 4,8 km/h (1 Bft) 92,86 %
17.05.2017 00:28 13,9 C 21,1 C 82 % 1026,3 hPa 0,0 l/m 2,5 km/h (1 Bft) O-SO 116 0 min 0,000 mm 0,0 UV-I 0 W/m 10,9 C 13,9 C 4,8 km/h (1 Bft) 94,00 %
17.05.2017 00:30 14,0 C 21,1 C 81 % 1026,3 hPa 0,0 l/m 0,4 km/h (0 Bft) O-SO 116 0 min 0,000 mm 0,0 UV-I 0 W/m 10,8 C 14,0 C 1,6 km/h (1 Bft) 93,62 %
17.05.2017 00:32 14,1 C 21,1 C 82 % 1026,3 hPa 0,0 l/m 2,0 km/h (1 Bft) O-SO 116 0 min 0,000 mm 0,0 UV-I 0 W/m 11,1 C 14,1 C 3,2 km/h (1 Bft) 94,00 %
17.05.2017 00:34 14,1 C 21,1 C 82 % 1026,3 hPa 0,0 l/m 0,1 km/h (0 Bft) O-SO 116 0 min 0,000 mm 0,0 UV-I 0 W/m 11,1 C 14,1 C 3,2 km/h (1 Bft) 92,11 %
17.05.2017 00:36 14,1 C 21,1 C 82 % 1026,3 hPa 0,0 l/m 0,5 km/h (0 Bft) O-SO 116 0 min 0,000 mm 0,0 UV-I 0 W/m 11,1 C 14,1 C 3,2 km/h (1 Bft) 94,00 %
17.05.2017 00:38 14,2 C 21,1 C 82 % 1026,3 hPa 0,0 l/m 1,7 km/h (1 Bft) O-SO 116 0 min 0,000 mm 0,0 UV-I 0 W/m 11,2 C 14,2 C 3,2 km/h (1 Bft) 93,62 %
17.05.2017 00:40 14,2 C 21,1 C 81 % 1026,3 hPa 0,0 l/m 1,5 km/h (1 Bft) O-SO 116 0 min 0,000 mm 0,0 UV-I 0 W/m 11,0 C 14,2 C 6,4 km/h (2 Bft) 92,86 %
17.05.2017 00:42 14,3 C 21,1 C 82 % 1026,3 hPa 0,0 l/m 0,0 km/h (0 Bft) O-SO 116 0 min 0,000 mm 0,0 UV-I 0 W/m 11,3 C 14,3 C 1,6 km/h (1 Bft) 96,61 %
17.05.2017 00:44 14,3 C 21,1 C 82 % 1026,3 hPa 0,0 l/m 0,0 km/h (0 Bft) O-SO 116 0 min 0,000 mm 0,0 UV-I 0 W/m 11,3 C 14,3 C 0,0 km/h (0 Bft) 91,43 %
17.05.2017 00:46 14,3 C 21,1 C 83 % 1026,3 hPa 0,0 l/m 0,0 km/h (0 Bft) O-SO 116 0 min 0,000 mm 0,0 UV-I 0 W/m 11,5 C 14,3 C 0,0 km/h (0 Bft) 96,23 %
17.05.2017 00:48 14,3 C 21,1 C 83 % 1026,2 hPa 0,0 l/m 0,0 km/h (0 Bft) O-SO 116 0 min 0,000 mm 0,0 UV-I 0 W/m 11,5 C 14,3 C 1,6 km/h (1 Bft) 95,74 %
17.05.2017 00:50 14,3 C 21,1 C 83 % 1026,2 hPa 0,0 l/m 0,0 km/h (0 Bft) O-SO 116 0 min 0,000 mm 0,0 UV-I 0 W/m 11,5 C 14,3 C 0,0 km/h (0 Bft) 95,74 %
17.05.2017 00:52 14,3 C 21,1 C 83 % 1026,3 hPa 0,0 l/m 0,5 km/h (0 Bft) O-SO 116 0 min 0,000 mm 0,0 UV-I 0 W/m 11,5 C 14,3 C 1,6 km/h (1 Bft) 98,00 %
17.05.2017 00:54 14,2 C 21,1 C 83 % 1026,3 hPa 0,0 l/m 0,5 km/h (0 Bft) O-SO 116 0 min 0,000 mm 0,0 UV-I 0 W/m 11,4 C 14,2 C 1,6 km/h (1 Bft) 97,37 %
17.05.2017 00:56 14,1 C 21,1 C 83 % 1026,3 hPa 0,0 l/m 0,0 km/h (0 Bft) O-SO 116 0 min 0,000 mm 0,0 UV-I 0 W/m 11,3 C 14,1 C 0,0 km/h (0 Bft) 100,00 %
17.05.2017 00:58 14,0 C 21,1 C 83 % 1026,3 hPa 0,0 l/m 0,0 km/h (0 Bft) O-SO 116 0 min 0,000 mm 0,0 UV-I 0 W/m 11,2 C 14,0 C 0,0 km/h (0 Bft) 100,00 %
17.05.2017 01:00 13,9 C 21,1 C 83 % 1026,2 hPa 0,0 l/m 0,8 km/h (0 Bft) O-SO 116 0 min 0,000 mm 0,0 UV-I 0 W/m 11,1 C 13,9 C 3,2 km/h (1 Bft) 100,00 %
17.05.2017 01:02 13,9 C 21,1 C 83 % 1026,2 hPa 0,0 l/m 2,3 km/h (1 Bft) O-SO 116 0 min 0,000 mm 0,0 UV-I 0 W/m 11,1 C 13,9 C 3,2 km/h (1 Bft) 96,00 %
17.05.2017 01:04 13,9 C 21,1 C 84 % 1026,2 hPa 0,0 l/m 2,5 km/h (1 Bft) O-SO 116 0 min 0,000 mm 0,0 UV-I 0 W/m 11,2 C 13,9 C 3,2 km/h (1 Bft) 100,00 %
17.05.2017 01:06 13,8 C 21,1 C 84 % 1026,2 hPa 0,0 l/m 3,3 km/h (1 Bft) O-SO 116 0 min 0,000 mm 0,0 UV-I 0 W/m 11,1 C 13,8 C 4,8 km/h (1 Bft) 95,45 %
17.05.2017 01:08 13,8 C 21,1 C 83 % 1026,2 hPa 0,0 l/m 2,6 km/h (1 Bft) O-SO 116 0 min 0,000 mm 0,0 UV-I 0 W/m 11,0 C 13,8 C 4,8 km/h (1 Bft) 100,00 %
17.05.2017 01:10 13,8 C 21,1 C 84 % 1026,2 hPa 0,0 l/m 1,6 km/h (1 Bft) O-SO 116 0 min 0,000 mm 0,0 UV-I 0 W/m 11,1 C 13,8 C 3,2 km/h (1 Bft) 96,23 %
17.05.2017 01:12 13,9 C 21,1 C 84 % 1026,2 hPa 0,0 l/m 2,4 km/h (1 Bft) O-SO 116 0 min 0,000 mm 0,0 UV-I 0 W/m 11,2 C 13,9 C 4,8 km/h (1 Bft) 97,56 %
17.05.2017 01:14 14,0 C 21,1 C 84 % 1026,2 hPa 0,0 l/m 3,2 km/h (1 Bft) O-SO 116 0 min 0,000 mm 0,0 UV-I 0 W/m 11,3 C 14,0 C 4,8 km/h (1 Bft) 97,87 %
17.05.2017 01:16 14,1 C 21,1 C 84 % 1026,2 hPa 0,0 l/m 1,3 km/h (1 Bft) O-SO 116 0 min 0,000 mm 0,0 UV-I 0 W/m 11,4 C 14,1 C 3,2 km/h (1 Bft) 96,43 %
17.05.2017 01:18 14,1 C 21,1 C 83 % 1026,1 hPa 0,0 l/m 1,1 km/h (1 Bft) O-SO 116 0 min 0,000 mm 0,0 UV-I 0 W/m 11,3 C 14,1 C 1,6 km/h (1 Bft) 94,74 %
17.05.2017 01:20 14,1 C 21,1 C 83 % 1026,1 hPa 0,0 l/m 0,2 km/h (0 Bft) O-SO 116 0 min 0,000 mm 0,0 UV-I 0 W/m 11,3 C 14,1 C 1,6 km/h (1 Bft) 98,00 %
17.05.2017 01:22 14,1 C 21,1 C 84 % 1026,0 hPa 0,0 l/m 0,9 km/h (0 Bft) O-SO 116 0 min 0,000 mm 0,0 UV-I 0 W/m 11,4 C 14,1 C 1,6 km/h (1 Bft) 100,00 %
17.05.2017 01:24 14,1 C 21,1 C 84 % 1026,0 hPa 0,0 l/m 1,1 km/h (1 Bft) O-SO 116 0 min 0,000 mm 0,0 UV-I 0 W/m 11,4 C 14,1 C 1,6 km/h (1 Bft) 96,23 %
17.05.2017 01:26 14,1 C 21,1 C 84 % 1026,0 hPa 0,0 l/m 0,7 km/h (0 Bft) O-SO 116 0 min 0,000 mm 0,0 UV-I 0 W/m 11,4 C 14,1 C 3,2 km/h (1 Bft) 97,87 %
17.05.2017 01:28 14,1 C 21,1 C 84 % 1026,0 hPa 0,0 l/m 0,4 km/h (0 Bft) O-SO 116 0 min 0,000 mm 0,0 UV-I 0 W/m 11,4 C 14,1 C 1,6 km/h (1 Bft) 100,00 %
17.05.2017 01:30 14,1 C 21,1 C 84 % 1026,0 hPa 0,0 l/m 1,8 km/h (1 Bft) O-SO 116 0 min 0,000 mm 0,0 UV-I 0 W/m 11,4 C 14,1 C 3,2 km/h (1 Bft) 98,00 %
17.05.2017 01:32 14,2 C 21,1 C 84 % 1026,0 hPa 0,0 l/m 1,6 km/h (1 Bft) O-SO 116 0 min 0,000 mm 0,0 UV-I 0 W/m 11,5 C 14,2 C 3,2 km/h (1 Bft) 100,00 %
17.05.2017 01:34 14,3 C 21,1 C 84 % 1026,0 hPa 0,0 l/m 2,5 km/h (1 Bft) O-SO 116 0 min 0,000 mm 0,0 UV-I 0 W/m 11,6 C 14,3 C 3,2 km/h (1 Bft) 94,00 %
17.05.2017 01:36 14,3 C 21,1 C 83 % 1026,0 hPa 0,0 l/m 1,8 km/h (1 Bft) O-SO 116 0 min 0,000 mm 0,0 UV-I 0 W/m 11,5 C 14,3 C 3,2 km/h (1 Bft) 97,87 %
17.05.2017 01:38 14,3 C 21,1 C 83 % 1026,0 hPa 0,0 l/m 0,1 km/h (0 Bft) O-SO 116 0 min 0,000 mm 0,0 UV-I 0 W/m 11,5 C 14,3 C 1,6 km/h (1 Bft) 100,00 %
17.05.2017 01:40 14,3 C 21,1 C 84 % 1025,9 hPa 0,0 l/m 0,1 km/h (0 Bft) O-SO 116 0 min 0,000 mm 0,0 UV-I 0 W/m 11,6 C 14,3 C 1,6 km/h (1 Bft) 100,00 %
17.05.2017 01:42 14,3 C 21,1 C 85 % 1025,9 hPa 0,0 l/m 0,0 km/h (0 Bft) O-SO 116 0 min 0,000 mm 0,0 UV-I 0 W/m 11,8 C 14,3 C 0,0 km/h (0 Bft) 100,00 %
17.05.2017 01:44 14,2 C 21,1 C 85 % 1025,9 hPa 0,0 l/m 0,0 km/h (0 Bft) O-SO 116 0 min 0,000 mm 0,0 UV-I 0 W/m 11,7 C 14,2 C 0,0 km/h (0 Bft) 100,00 %
17.05.2017 01:46 14,2 C 21,1 C 86 % 1025,9 hPa 0,0 l/m 0,0 km/h (0 Bft) O-SO 116 0 min 0,000 mm 0,0 UV-I 0 W/m 11,9 C 14,2 C 0,0 km/h (0 Bft) 100,00 %
17.05.2017 01:48 14,2 C 21,1 C 86 % 1025,8 hPa 0,0 l/m 0,0 km/h (0 Bft) O-SO 116 0 min 0,000 mm 0,0 UV-I 0 W/m 11,9 C 14,2 C 0,0 km/h (0 Bft) 97,87 %
17.05.2017 01:50 14,2 C 21,1 C 86 % 1025,8 hPa 0,0 l/m 0,0 km/h (0 Bft) O-SO 116 0 min 0,000 mm 0,0 UV-I 0 W/m 11,9 C 14,2 C 0,0 km/h (0 Bft) 97,87 %
17.05.2017 01:52 14,2 C 21,1 C 85 % 1025,8 hPa 0,0 l/m 0,0 km/h (0 Bft) O-SO 116 0 min 0,000 mm 0,0 UV-I 0 W/m 11,7 C 14,2 C 0,0 km/h (0 Bft) 95,74 %
17.05.2017 01:54 14,1 C 21,1 C 85 % 1025,8 hPa 0,0 l/m 0,0 km/h (0 Bft) O-SO 116 0 min 0,000 mm 0,0 UV-I 0 W/m 11,6 C 14,1 C 0,0 km/h (0 Bft) 100,00 %
17.05.2017 01:56 14,1 C 21,1 C 86 % 1025,8 hPa 0,0 l/m 0,0 km/h (0 Bft) O-SO 116 0 min 0,000 mm 0,0 UV-I 0 W/m 11,8 C 14,1 C 0,0 km/h (0 Bft) 98,00 %
17.05.2017 01:58 14,1 C 21,1 C 87 % 1025,8 hPa 0,0 l/m 0,0 km/h (0 Bft) O-SO 116 0 min 0,000 mm 0,0 UV-I 0 W/m 12,0 C 14,1 C 0,0 km/h (0 Bft) 100,00 %
17.05.2017 02:00 14,1 C 21,1 C 87 % 1025,7 hPa 0,0 l/m 0,0 km/h (0 Bft) O-SO 116 0 min 0,000 mm 0,0 UV-I 0 W/m 12,0 C 14,1 C 0,0 km/h (0 Bft) 98,00 %
17.05.2017 02:02 14,0 C 21,1 C 87 % 1025,7 hPa 0,0 l/m 0,0 km/h (0 Bft) O-SO 116 0 min 0,000 mm 0,0 UV-I 0 W/m 11,9 C 14,0 C 0,0 km/h (0 Bft) 97,87 %
17.05.2017 02:04 13,9 C 21,1 C 87 % 1025,7 hPa 0,0 l/m 0,0 km/h (0 Bft) O-SO 116 0 min 0,000 mm 0,0 UV-I 0 W/m 11,8 C 13,9 C 0,0 km/h (0 Bft) 97,87 %
17.05.2017 02:06 13,9 C 21,1 C 86 % 1025,7 hPa 0,0 l/m 0,0 km/h (0 Bft) O-SO 116 0 min 0,000 mm 0,0 UV-I 0 W/m 11,6 C 13,9 C 0,0 km/h (0 Bft) 97,73 %
17.05.2017 02:08 13,9 C 21,1 C 86 % 1025,7 hPa 0,0 l/m 0,0 km/h (0 Bft) O-SO 116 0 min 0,000 mm 0,0 UV-I 0 W/m 11,6 C 13,9 C 0,0 km/h (0 Bft) 100,00 %
17.05.2017 02:10 13,9 C 21,1 C 86 % 1025,7 hPa 0,0 l/m 0,0 km/h (0 Bft) O-SO 116 0 min 0,000 mm 0,0 UV-I 0 W/m 11,6 C 13,9 C 0,0 km/h (0 Bft) 96,23 %
17.05.2017 02:12 13,9 C 21,1 C 85 % 1025,7 hPa 0,0 l/m 0,9 km/h (0 Bft) O-SO 116 0 min 0,000 mm 0,0 UV-I 0 W/m 11,4 C 13,9 C 3,2 km/h (1 Bft) 100,00 %
17.05.2017 02:14 13,9 C 21,1 C 86 % 1025,7 hPa 0,0 l/m 2,6 km/h (1 Bft) O-SO 116 0 min 0,000 mm 0,0 UV-I 0 W/m 11,6 C 13,9 C 3,2 km/h (1 Bft) 98,21 %
17.05.2017 02:16 13,8 C 21,1 C 86 % 1025,6 hPa 0,0 l/m 2,6 km/h (1 Bft) O-SO 116 0 min 0,000 mm 0,0 UV-I 0 W/m 11,5 C 13,8 C 3,2 km/h (1 Bft) 100,00 %
17.05.2017 02:18 13,8 C 21,1 C 86 % 1025,7 hPa 0,0 l/m 3,1 km/h (1 Bft) O-SO 116 0 min 0,000 mm 0,0 UV-I 0 W/m 11,5 C 13,8 C 4,8 km/h (1 Bft) 96,77 %
17.05.2017 02:20 13,8 C 21,1 C 86 % 1025,6 hPa 0,0 l/m 2,9 km/h (1 Bft) O-SO 116 0 min 0,000 mm 0,0 UV-I 0 W/m 11,5 C 13,8 C 4,8 km/h (1 Bft) 97,87 %
17.05.2017 02:22 13,8 C 21,1 C 86 % 1025,6 hPa 0,0 l/m 3,3 km/h (1 Bft) O-SO 116 0 min 0,000 mm 0,0 UV-I 0 W/m 11,5 C 13,8 C 4,8 km/h (1 Bft) 98,00 %
17.05.2017 02:24 13,8 C 21,1 C 86 % 1025,6 hPa 0,0 l/m 4,6 km/h (1 Bft) O-SO 117 0 min 0,000 mm 0,0 UV-I 0 W/m 11,5 C 13,8 C 6,4 km/h (2 Bft) 95,74 %
17.05.2017 02:26 13,8 C 21,1 C 85 % 1025,6 hPa 0,0 l/m 4,0 km/h (1 Bft) O-SO 117 0 min 0,000 mm 0,0 UV-I 0 W/m 11,3 C 13,8 C 4,8 km/h (1 Bft) 94,00 %
17.05.2017 02:28 13,9 C 21,1 C 85 % 1025,5 hPa 0,0 l/m 4,4 km/h (1 Bft) O-SO 117 0 min 0,000 mm 0,0 UV-I 0 W/m 11,4 C 13,9 C 6,4 km/h (2 Bft) 92,11 %
17.05.2017 02:30 13,9 C 21,1 C 84 % 1025,5 hPa 0,0 l/m 3,1 km/h (1 Bft) O-SO 117 0 min 0,000 mm 0,0 UV-I 0 W/m 11,2 C 13,9 C 6,4 km/h (2 Bft) 98,11 %
17.05.2017 02:32 13,9 C 21,1 C 84 % 1025,5 hPa 0,0 l/m 1,4 km/h (1 Bft) O-SO 117 0 min 0,000 mm 0,0 UV-I 0 W/m 11,2 C 13,9 C 3,2 km/h (1 Bft) 97,56 %
17.05.2017 02:34 13,9 C 21,1 C 84 % 1025,5 hPa 0,0 l/m 0,2 km/h (0 Bft) O-SO 117 0 min 0,000 mm 0,0 UV-I 0 W/m 11,2 C 13,9 C 1,6 km/h (1 Bft) 98,11 %
17.05.2017 02:36 13,9 C 21,1 C 84 % 1025,5 hPa 0,0 l/m 0,8 km/h (0 Bft) O-SO 117 0 min 0,000 mm 0,0 UV-I 0 W/m 11,2 C 13,9 C 1,6 km/h (1 Bft) 97,37 %
17.05.2017 02:38 13,9 C 21,1 C 84 % 1025,5 hPa 0,0 l/m 1,6 km/h (1 Bft) O-SO 117 0 min 0,000 mm 0,0 UV-I 0 W/m 11,2 C 13,9 C 3,2 km/h (1 Bft) 96,00 %
17.05.2017 02:40 13,9 C 21,1 C 84 % 1025,5 hPa 0,0 l/m 1,5 km/h (1 Bft) O-SO 117 0 min 0,000 mm 0,0 UV-I 0 W/m 11,2 C 13,9 C 3,2 km/h (1 Bft) 97,87 %
17.05.2017 02:42 13,9 C 21,1 C 85 % 1025,5 hPa 0,0 l/m 0,1 km/h (0 Bft) O-SO 117 0 min 0,000 mm 0,0 UV-I 0 W/m 11,4 C 13,9 C 1,6 km/h (1 Bft) 93,62 %
17.05.2017 02:44 13,9 C 21,1 C 85 % 1025,5 hPa 0,0 l/m 0,0 km/h (0 Bft) O-SO 117 0 min 0,000 mm 0,0 UV-I 0 W/m 11,4 C 13,9 C 0,0 km/h (0 Bft) 97,87 %
17.05.2017 02:46 13,9 C 21,1 C 85 % 1025,5 hPa 0,0 l/m 0,0 km/h (0 Bft) O-SO 117 0 min 0,000 mm 0,0 UV-I 0 W/m 11,4 C 13,9 C 0,0 km/h (0 Bft) 96,00 %
17.05.2017 02:48 13,9 C 21,1 C 85 % 1025,5 hPa 0,0 l/m 0,0 km/h (0 Bft) O-SO 117 0 min 0,000 mm 0,0 UV-I 0 W/m 11,4 C 13,9 C 0,0 km/h (0 Bft) 95,74 %
17.05.2017 02:50 13,9 C 21,1 C 86 % 1025,5 hPa 0,0 l/m 0,0 km/h (0 Bft) O-SO 117 0 min 0,000 mm 0,0 UV-I 0 W/m 11,6 C 13,9 C 0,0 km/h (0 Bft) 96,00 %
17.05.2017 02:52 13,9 C 21,1 C 86 % 1025,5 hPa 0,0 l/m 0,0 km/h (0 Bft) O-SO 117 0 min 0,000 mm 0,0 UV-I 0 W/m 11,6 C 13,9 C 0,0 km/h (0 Bft) 94,74 %
17.05.2017 02:54 13,9 C 21,1 C 86 % 1025,5 hPa 0,0 l/m 0,1 km/h (0 Bft) O-SO 117 0 min 0,000 mm 0,0 UV-I 0 W/m 11,6 C 13,9 C 1,6 km/h (1 Bft) 98,00 %
17.05.2017 02:56 13,9 C 21,1 C 86 % 1025,5 hPa 0,0 l/m 0,0 km/h (0 Bft) O-SO 117 0 min 0,000 mm 0,0 UV-I 0 W/m 11,6 C 13,9 C 0,0 km/h (0 Bft) 93,62 %
17.05.2017 02:58 13,8 C 21,1 C 86 % 1025,4 hPa 0,0 l/m 0,0 km/h (0 Bft) O-SO 117 0 min 0,000 mm 0,0 UV-I 0 W/m 11,5 C 13,8 C 0,0 km/h (0 Bft) 100,00 %
17.05.2017 03:00 13,8 C 21,1 C 86 % 1025,4 hPa 0,0 l/m 0,0 km/h (0 Bft) O-SO 117 0 min 0,000 mm 0,0 UV-I 0 W/m 11,5 C 13,8 C 0,0 km/h (0 Bft) 98,53 %
17.05.2017 03:02 13,8 C 21,1 C 87 % 1025,4 hPa 0,0 l/m 0,0 km/h (0 Bft) O-SO 117 0 min 0,000 mm 0,0 UV-I 0 W/m 11,7 C 13,8 C 0,0 km/h (0 Bft) 97,37 %
17.05.2017 03:04 13,8 C 21,1 C 87 % 1025,4 hPa 0,0 l/m 0,0 km/h (0 Bft) O-SO 117 0 min 0,000 mm 0,0 UV-I 0 W/m 11,7 C 13,8 C 1,6 km/h (1 Bft) 96,00 %
17.05.2017 03:06 13,8 C 21,1 C 87 % 1025,3 hPa 0,0 l/m 0,8 km/h (0 Bft) O-SO 117 0 min 0,000 mm 0,0 UV-I 0 W/m 11,7 C 13,8 C 1,6 km/h (1 Bft) 98,21 %
17.05.2017 03:08 13,8 C 21,1 C 87 % 1025,3 hPa 0,0 l/m 0,5 km/h (0 Bft) O-SO 117 0 min 0,000 mm 0,0 UV-I 0 W/m 11,7 C 13,8 C 1,6 km/h (1 Bft) 97,37 %
17.05.2017 03:10 13,8 C 21,1 C 87 % 1025,3 hPa 0,0 l/m 0,0 km/h (0 Bft) O-SO 117 0 min 0,000 mm 0,0 UV-I 0 W/m 11,7 C 13,8 C 1,6 km/h (1 Bft) 97,87 %
17.05.2017 03:12 13,8 C 21,1 C 87 % 1025,3 hPa 0,0 l/m 0,0 km/h (0 Bft) O-SO 117 0 min 0,000 mm 0,0 UV-I 0 W/m 11,7 C 13,8 C 0,0 km/h (0 Bft) 100,00 %
17.05.2017 03:14 13,8 C 21,1 C 87 % 1025,3 hPa 0,0 l/m 0,0 km/h (0 Bft) O-SO 117 0 min 0,000 mm 0,0 UV-I 0 W/m 11,7 C 13,8 C 0,0 km/h (0 Bft) 98,00 %
17.05.2017 03:16 13,7 C 21,1 C 87 % 1025,3 hPa 0,0 l/m 0,0 km/h (0 Bft) O-SO 117 0 min 0,000 mm 0,0 UV-I 0 W/m 11,6 C 13,7 C 0,0 km/h (0 Bft) 97,87 %
17.05.2017 03:18 13,7 C 21,1 C 87 % 1025,3 hPa 0,0 l/m 0,0 km/h (0 Bft) O-SO 117 0 min 0,000 mm 0,0 UV-I 0 W/m 11,6 C 13,7 C 0,0 km/h (0 Bft) 97,56 %
17.05.2017 03:20 13,7 C 21,1 C 87 % 1025,3 hPa 0,0 l/m 0,0 km/h (0 Bft) O-SO 117 0 min 0,000 mm 0,0 UV-I 0 W/m 11,6 C 13,7 C 0,0 km/h (0 Bft) 97,87 %
17.05.2017 03:22 13,7 C 21,1 C 87 % 1025,3 hPa 0,0 l/m 0,0 km/h (0 Bft) O-SO 117 0 min 0,000 mm 0,0 UV-I 0 W/m 11,6 C 13,7 C 0,0 km/h (0 Bft) 100,00 %
17.05.2017 03:24 13,7 C 21,1 C 87 % 1025,3 hPa 0,0 l/m 0,0 km/h (0 Bft) O-SO 117 0 min 0,000 mm 0,0 UV-I 0 W/m 11,6 C 13,7 C 0,0 km/h (0 Bft) 100,00 %
17.05.2017 03:26 13,7 C 21,1 C 87 % 1025,3 hPa 0,0 l/m 0,0 km/h (0 Bft) O-SO 117 0 min 0,000 mm 0,0 UV-I 0 W/m 11,6 C 13,7 C 0,0 km/h (0 Bft) 98,11 %
17.05.2017 03:28 13,7 C 21,1 C 87 % 1025,3 hPa 0,0 l/m 0,0 km/h (0 Bft) O-SO 117 0 min 0,000 mm 0,0 UV-I 0 W/m 11,6 C 13,7 C 0,0 km/h (0 Bft) 97,87 %
17.05.2017 03:30 13,7 C 21,1 C 87 % 1025,2 hPa 0,0 l/m 0,0 km/h (0 Bft) O-SO 117 0 min 0,000 mm 0,0 UV-I 0 W/m 11,6 C 13,7 C 0,0 km/h (0 Bft) 95,12 %
17.05.2017 03:32 13,7 C 21,1 C 87 % 1025,2 hPa 0,0 l/m 0,0 km/h (0 Bft) O-SO 117 0 min 0,000 mm 0,0 UV-I 0 W/m 11,6 C 13,7 C 0,0 km/h (0 Bft) 97,87 %
17.05.2017 03:34 13,6 C 21,1 C 87 % 1025,2 hPa 0,0 l/m 1,0 km/h (0 Bft) O-SO 117 0 min 0,000 mm 0,0 UV-I 0 W/m 11,5 C 13,6 C 3,2 km/h (1 Bft) 96,00 %
17.05.2017 03:36 13,6 C 21,1 C 87 % 1025,2 hPa 0,0 l/m 2,3 km/h (1 Bft) O-SO 117 0 min 0,000 mm 0,0 UV-I 0 W/m 11,5 C 13,6 C 3,2 km/h (1 Bft) 92,00 %
17.05.2017 03:38 13,6 C 21,1 C 87 % 1025,2 hPa 0,0 l/m 1,1 km/h (1 Bft) O-SO 117 0 min 0,000 mm 0,0 UV-I 0 W/m 11,5 C 13,6 C 3,2 km/h (1 Bft) 100,00 %
17.05.2017 03:40 13,5 C 21,1 C 88 % 1025,2 hPa 0,0 l/m 1,2 km/h (1 Bft) O-SO 117 0 min 0,000 mm 0,0 UV-I 0 W/m 11,6 C 13,5 C 3,2 km/h (1 Bft) 94,34 %
17.05.2017 03:42 13,5 C 21,1 C 88 % 1025,2 hPa 0,0 l/m 0,8 km/h (0 Bft) O-SO 117 0 min 0,000 mm 0,0 UV-I 0 W/m 11,6 C 13,5 C 1,6 km/h (1 Bft) 98,00 %
17.05.2017 03:44 13,5 C 21,1 C 88 % 1025,2 hPa 0,0 l/m 1,1 km/h (1 Bft) O-SO 117 0 min 0,000 mm 0,0 UV-I 0 W/m 11,6 C 13,5 C 1,6 km/h (1 Bft) 96,00 %
17.05.2017 03:46 13,4 C 21,1 C 88 % 1025,2 hPa 0,0 l/m 0,5 km/h (0 Bft) O-SO 117 0 min 0,000 mm 0,0 UV-I 0 W/m 11,5 C 13,4 C 1,6 km/h (1 Bft) 95,12 %
17.05.2017 03:48 13,4 C 21,1 C 88 % 1025,2 hPa 0,0 l/m 0,9 km/h (0 Bft) O-SO 117 0 min 0,000 mm 0,0 UV-I 0 W/m 11,5 C 13,4 C 1,6 km/h (1 Bft) 98,00 %
17.05.2017 03:50 13,4 C 21,1 C 88 % 1025,1 hPa 0,0 l/m 0,8 km/h (0 Bft) O-SO 117 0 min 0,000 mm 0,0 UV-I 0 W/m 11,5 C 13,4 C 3,2 km/h (1 Bft) 94,74 %
17.05.2017 03:52 13,3 C 21,1 C 89 % 1025,1 hPa 0,0 l/m 0,0 km/h (0 Bft) O-SO 117 0 min 0,000 mm 0,0 UV-I 0 W/m 11,5 C 13,3 C 1,6 km/h (1 Bft) 95,74 %
17.05.2017 03:54 13,3 C 21,1 C 89 % 1025,0 hPa 0,0 l/m 0,3 km/h (0 Bft) O-SO 117 0 min 0,000 mm 0,0 UV-I 0 W/m 11,5 C 13,3 C 1,6 km/h (1 Bft) 96,00 %
17.05.2017 03:56 13,2 C 21,1 C 89 % 1025,0 hPa 0,0 l/m 0,0 km/h (0 Bft) O-SO 117 0 min 0,000 mm 0,0 UV-I 0 W/m 11,4 C 13,2 C 0,0 km/h (0 Bft) 97,87 %
17.05.2017 03:58 13,2 C 21,1 C 89 % 1025,0 hPa 0,0 l/m 0,0 km/h (0 Bft) O-SO 117 0 min 0,000 mm 0,0 UV-I 0 W/m 11,4 C 13,2 C 0,0 km/h (0 Bft) 96,00 %
17.05.2017 04:00 13,1 C 21,1 C 89 % 1025,0 hPa 0,0 l/m 0,0 km/h (0 Bft) O-SO 117 0 min 0,000 mm 0,0 UV-I 0 W/m 11,3 C 13,1 C 0,0 km/h (0 Bft) 95,12 %
17.05.2017 04:02 13,1 C 21,1 C 90 % 1025,0 hPa 0,0 l/m 0,0 km/h (0 Bft) O-SO 117 0 min 0,000 mm 0,0 UV-I 0 W/m 11,5 C 13,1 C 0,0 km/h (0 Bft) 92,86 %
17.05.2017 04:04 13,1 C 21,1 C 90 % 1025,0 hPa 0,0 l/m 0,0 km/h (0 Bft) O-SO 117 0 min 0,000 mm 0,0 UV-I 0 W/m 11,5 C 13,1 C 0,0 km/h (0 Bft) 93,62 %
17.05.2017 04:06 13,1 C 21,1 C 90 % 1025,0 hPa 0,0 l/m 0,0 km/h (0 Bft) O-SO 117 0 min 0,000 mm 0,0 UV-I 0 W/m 11,5 C 13,1 C 0,0 km/h (0 Bft) 98,11 %
17.05.2017 04:08 13,1 C 21,1 C 90 % 1025,0 hPa 0,0 l/m 0,0 km/h (0 Bft) O-SO 117 0 min 0,000 mm 0,0 UV-I 0 W/m 11,5 C 13,1 C 0,0 km/h (0 Bft) 97,87 %
17.05.2017 04:10 13,1 C 21,1 C 90 % 1025,0 hPa 0,0 l/m 0,0 km/h (0 Bft) O-SO 117 0 min 0,000 mm 0,0 UV-I 0 W/m 11,5 C 13,1 C 0,0 km/h (0 Bft) 98,00 %
17.05.2017 04:12 13,0 C 21,1 C 90 % 1025,0 hPa 0,0 l/m 0,0 km/h (0 Bft) O-SO 117 0 min 0,000 mm 0,0 UV-I 0 W/m 11,4 C 13,0 C 0,0 km/h (0 Bft) 97,37 %
17.05.2017 04:14 13,0 C 21,1 C 90 % 1025,0 hPa 0,0 l/m 0,0 km/h (0 Bft) O-SO 117 0 min 0,000 mm 0,0 UV-I 0 W/m 11,4 C 13,0 C 0,0 km/h (0 Bft) 97,92 %
17.05.2017 04:16 12,9 C 21,1 C 90 % 1024,9 hPa 0,0 l/m 0,0 km/h (0 Bft) O-SO 117 0 min 0,000 mm 0,0 UV-I 0 W/m 11,3 C 12,9 C 0,0 km/h (0 Bft) 97,87 %
17.05.2017 04:18 12,8 C 21,1 C 90 % 1024,9 hPa 0,0 l/m 0,4 km/h (0 Bft) O-SO 117 0 min 0,000 mm 0,0 UV-I 0 W/m 11,2 C 12,8 C 1,6 km/h (1 Bft) 97,73 %
17.05.2017 04:20 12,7 C 21,1 C 90 % 1024,9 hPa 0,0 l/m 0,0 km/h (0 Bft) O-SO 117 0 min 0,000 mm 0,0 UV-I 0 W/m 11,1 C 12,7 C 0,0 km/h (0 Bft) 93,62 %
17.05.2017 04:22 12,7 C 21,1 C 90 % 1024,9 hPa 0,0 l/m 0,0 km/h (0 Bft) O-SO 117 0 min 0,000 mm 0,0 UV-I 0 W/m 11,1 C 12,7 C 0,0 km/h (0 Bft) 97,87 %
17.05.2017 04:24 12,5 C 21,1 C 90 % 1024,9 hPa 0,0 l/m 0,4 km/h (0 Bft) O-SO 117 0 min 0,000 mm 0,0 UV-I 0 W/m 10,9 C 12,5 C 1,6 km/h (1 Bft) 92,00 %
17.05.2017 04:26 12,4 C 21,1 C 90 % 1024,9 hPa 0,0 l/m 0,5 km/h (0 Bft) O-SO 117 0 min 0,000 mm 0,0 UV-I 0 W/m 10,8 C 12,4 C 1,6 km/h (1 Bft) 96,23 %
17.05.2017 04:28 12,3 C 21,1 C 90 % 1024,8 hPa 0,0 l/m 0,1 km/h (0 Bft) O-SO 117 0 min 0,000 mm 0,0 UV-I 0 W/m 10,7 C 12,3 C 1,6 km/h (1 Bft) 97,87 %
17.05.2017 04:30 12,2 C 21,1 C 90 % 1024,8 hPa 0,0 l/m 0,2 km/h (0 Bft) O-SO 117 0 min 0,000 mm 0,0 UV-I 0 W/m 10,6 C 12,2 C 3,2 km/h (1 Bft) 94,74 %
17.05.2017 04:32 12,2 C 21,1 C 90 % 1024,8 hPa 0,0 l/m 1,5 km/h (1 Bft) O-SO 117 0 min 0,000 mm 0,0 UV-I 0 W/m 10,6 C 12,2 C 3,2 km/h (1 Bft) 98,00 %
17.05.2017 04:34 12,2 C 21,1 C 90 % 1024,8 hPa 0,0 l/m 1,6 km/h (1 Bft) O-SO 117 0 min 0,000 mm 0,0 UV-I 0 W/m 10,6 C 12,2 C 3,2 km/h (1 Bft) 95,74 %
17.05.2017 04:36 12,2 C 21,1 C 90 % 1024,8 hPa 0,0 l/m 1,6 km/h (1 Bft) O-SO 117 0 min 0,000 mm 0,0 UV-I 0 W/m 10,6 C 12,2 C 3,2 km/h (1 Bft) 94,00 %
17.05.2017 04:38 12,2 C 21,1 C 90 % 1024,8 hPa 0,0 l/m 2,1 km/h (1 Bft) O-SO 117 0 min 0,000 mm 0,0 UV-I 0 W/m 10,6 C 12,2 C 3,2 km/h (1 Bft) 96,00 %
17.05.2017 04:40 12,1 C 21,1 C 90 % 1024,8 hPa 0,0 l/m 2,5 km/h (1 Bft) O-SO 117 0 min 0,000 mm 0,0 UV-I 0 W/m 10,5 C 12,1 C 3,2 km/h (1 Bft) 94,74 %
17.05.2017 04:42 12,1 C 21,1 C 90 % 1024,8 hPa 0,0 l/m 3,0 km/h (1 Bft) O-SO 117 0 min 0,000 mm 0,0 UV-I 0 W/m 10,5 C 12,1 C 4,8 km/h (1 Bft) 98,00 %
17.05.2017 04:44 12,1 C 21,1 C 90 % 1024,8 hPa 0,0 l/m 2,2 km/h (1 Bft) O-SO 117 0 min 0,000 mm 0,0 UV-I 0 W/m 10,5 C 12,1 C 4,8 km/h (1 Bft) 95,74 %
17.05.2017 04:46 12,1 C 21,1 C 90 % 1024,8 hPa 0,0 l/m 1,6 km/h (1 Bft) O-SO 117 0 min 0,000 mm 0,0 UV-I 0 W/m 10,5 C 12,1 C 3,2 km/h (1 Bft) 92,00 %
17.05.2017 04:48 12,1 C 21,1 C 90 % 1024,7 hPa 0,0 l/m 1,8 km/h (1 Bft) O-SO 117 0 min 0,000 mm 0,0 UV-I 0 W/m 10,5 C 12,1 C 3,2 km/h (1 Bft) 97,87 %
17.05.2017 04:50 11,9 C 21,1 C 90 % 1024,7 hPa 0,0 l/m 0,7 km/h (0 Bft) O-SO 117 0 min 0,000 mm 0,0 UV-I 0 W/m 10,3 C 11,9 C 3,2 km/h (1 Bft) 97,73 %
17.05.2017 04:52 11,8 C 21,1 C 90 % 1024,7 hPa 0,0 l/m 0,3 km/h (0 Bft) O-SO 117 0 min 0,000 mm 0,0 UV-I 0 W/m 10,2 C 11,8 C 3,2 km/h (1 Bft) 95,74 %
17.05.2017 04:54 11,8 C 21,1 C 91 % 1024,7 hPa 0,0 l/m 0,7 km/h (0 Bft) O-SO 117 0 min 0,000 mm 0,0 UV-I 0 W/m 10,4 C 11,8 C 3,2 km/h (1 Bft) 97,62 %
17.05.2017 04:56 11,8 C 21,1 C 91 % 1024,6 hPa 0,0 l/m 0,8 km/h (0 Bft) O-SO 117 0 min 0,000 mm 0,0 UV-I 0 W/m 10,4 C 11,8 C 1,6 km/h (1 Bft) 93,62 %
17.05.2017 04:58 11,8 C 21,1 C 91 % 1024,6 hPa 0,0 l/m 0,2 km/h (0 Bft) O-SO 117 0 min 0,000 mm 0,0 UV-I 0 W/m 10,4 C 11,8 C 1,6 km/h (1 Bft) 96,00 %
17.05.2017 05:00 11,8 C 21,1 C 91 % 1024,6 hPa 0,0 l/m 1,3 km/h (1 Bft) O-SO 117 0 min 0,000 mm 0,0 UV-I 0 W/m 10,4 C 11,8 C 3,2 km/h (1 Bft) 98,00 %
17.05.2017 05:02 11,8 C 21,1 C 91 % 1024,6 hPa 0,0 l/m 0,7 km/h (0 Bft) O-SO 117 0 min 0,000 mm 0,0 UV-I 0 W/m 10,4 C 11,8 C 1,6 km/h (1 Bft) 100,00 %
17.05.2017 05:04 11,9 C 21,1 C 91 % 1024,6 hPa 0,0 l/m 0,7 km/h (0 Bft) O-SO 117 0 min 0,000 mm 0,0 UV-I 0 W/m 10,5 C 11,9 C 1,6 km/h (1 Bft) 100,00 %
17.05.2017 05:06 11,9 C 21,1 C 91 % 1024,6 hPa 0,0 l/m 0,4 km/h (0 Bft) O-SO 117 0 min 0,000 mm 0,0 UV-I 3 W/m 10,5 C 11,9 C 1,6 km/h (1 Bft) 98,11 %
17.05.2017 05:08 12,0 C 21,1 C 91 % 1024,6 hPa 0,0 l/m 0,7 km/h (0 Bft) O-SO 117 0 min 0,000 mm 0,0 UV-I 5 W/m 10,6 C 12,0 C 1,6 km/h (1 Bft) 100,00 %
17.05.2017 05:10 12,1 C 21,1 C 90 % 1024,5 hPa 0,0 l/m 0,2 km/h (0 Bft) O-SO 117 0 min 0,000 mm 0,0 UV-I 5 W/m 10,5 C 12,1 C 1,6 km/h (1 Bft) 97,56 %
17.05.2017 05:12 12,1 C 21,1 C 90 % 1024,6 hPa 0,0 l/m 0,0 km/h (0 Bft) O-SO 117 0 min 0,000 mm 0,0 UV-I 5 W/m 10,5 C 12,1 C 0,0 km/h (0 Bft) 100,00 %
17.05.2017 05:14 12,0 C 21,1 C 90 % 1024,5 hPa 0,0 l/m 0,0 km/h (0 Bft) O-SO 117 0 min 0,000 mm 0,0 UV-I 5 W/m 10,4 C 12,0 C 0,0 km/h (0 Bft) 97,37 %
17.05.2017 05:16 11,9 C 21,1 C 90 % 1024,6 hPa 0,0 l/m 0,0 km/h (0 Bft) O-SO 117 0 min 0,000 mm 0,0 UV-I 7 W/m 10,3 C 11,9 C 0,0 km/h (0 Bft) 98,00 %
17.05.2017 05:18 11,9 C 21,1 C 91 % 1024,6 hPa 0,0 l/m 0,0 km/h (0 Bft) O-SO 117 0 min 0,000 mm 0,0 UV-I 7 W/m 10,5 C 11,9 C 0,0 km/h (0 Bft) 97,87 %
17.05.2017 05:20 11,8 C 20,6 C 91 % 1024,6 hPa 0,0 l/m 0,0 km/h (0 Bft) O-SO 117 0 min 0,000 mm 0,0 UV-I 7 W/m 10,4 C 11,8 C 0,0 km/h (0 Bft) 94,00 %
17.05.2017 05:22 11,8 C 20,6 C 91 % 1024,5 hPa 0,0 l/m 0,0 km/h (0 Bft) O-SO 117 0 min 0,000 mm 0,0 UV-I 7 W/m 10,4 C 11,8 C 0,0 km/h (0 Bft) 96,00 %
17.05.2017 05:24 11,7 C 20,6 C 91 % 1024,6 hPa 0,0 l/m 0,0 km/h (0 Bft) O-SO 117 0 min 0,000 mm 0,0 UV-I 9 W/m 10,3 C 11,7 C 0,0 km/h (0 Bft) 94,29 %
17.05.2017 05:26 11,6 C 20,6 C 91 % 1024,6 hPa 0,0 l/m 0,0 km/h (0 Bft) O-SO 117 0 min 0,000 mm 0,0 UV-I 9 W/m 10,2 C 11,6 C 0,0 km/h (0 Bft) 100,00 %
17.05.2017 05:28 11,6 C 20,6 C 91 % 1024,6 hPa 0,0 l/m 0,0 km/h (0 Bft) O-SO 117 0 min 0,000 mm 0,0 UV-I 10 W/m 10,2 C 11,6 C 0,0 km/h (0 Bft) 95,74 %
17.05.2017 05:30 11,5 C 20,6 C 91 % 1024,6 hPa 0,0 l/m 0,0 km/h (0 Bft) O-SO 117 0 min 0,000 mm 0,0 UV-I 11 W/m 10,1 C 11,5 C 0,0 km/h (0 Bft) 100,00 %
17.05.2017 05:32 11,4 C 20,6 C 91 % 1024,7 hPa 0,0 l/m 0,0 km/h (0 Bft) O-SO 117 0 min 0,000 mm 0,0 UV-I 12 W/m 10,0 C 11,4 C 0,0 km/h (0 Bft) 97,87 %
17.05.2017 05:34 11,4 C 20,6 C 91 % 1024,6 hPa 0,0 l/m 0,0 km/h (0 Bft) O-SO 117 2 min 0,000 mm 0,0 UV-I 12 W/m 10,0 C 11,4 C 0,0 km/h (0 Bft) 100,00 %
17.05.2017 05:36 11,4 C 20,6 C 92 % 1024,6 hPa 0,0 l/m 0,0 km/h (0 Bft) O-SO 117 2 min 0,000 mm 0,0 UV-I 12 W/m 10,1 C 11,4 C 0,0 km/h (0 Bft) 100,00 %
17.05.2017 05:38 11,3 C 20,6 C 92 % 1024,6 hPa 0,0 l/m 0,0 km/h (0 Bft) O-SO 117 0 min 0,000 mm 0,0 UV-I 13 W/m 10,0 C 11,3 C 0,0 km/h (0 Bft) 100,00 %
17.05.2017 05:40 11,4 C 20,6 C 92 % 1024,7 hPa 0,0 l/m 0,0 km/h (0 Bft) O-SO 117 0 min 0,000 mm 0,0 UV-I 16 W/m 10,1 C 11,4 C 0,0 km/h (0 Bft) 98,15 %
17.05.2017 05:42 11,4 C 20,6 C 92 % 1024,7 hPa 0,0 l/m 0,0 km/h (0 Bft) O-SO 117 0 min 0,000 mm 0,0 UV-I 16 W/m 10,1 C 11,4 C 0,0 km/h (0 Bft) 100,00 %
17.05.2017 05:44 11,4 C 20,6 C 92 % 1024,7 hPa 0,0 l/m 0,0 km/h (0 Bft) O-SO 117 0 min 0,000 mm 0,0 UV-I 18 W/m 10,1 C 11,4 C 0,0 km/h (0 Bft) 98,00 %
17.05.2017 05:46 11,4 C 20,6 C 92 % 1024,7 hPa 0,0 l/m 0,0 km/h (0 Bft) O-SO 117 0 min 0,000 mm 0,0 UV-I 20 W/m 10,1 C 11,4 C 0,0 km/h (0 Bft) 100,00 %
17.05.2017 05:48 11,3 C 20,6 C 92 % 1024,7 hPa 0,0 l/m 0,0 km/h (0 Bft) O-SO 117 0 min 0,000 mm 0,0 UV-I 21 W/m 10,0 C 11,3 C 0,0 km/h (0 Bft) 100,00 %
17.05.2017 05:50 11,3 C 20,6 C 92 % 1024,7 hPa 0,0 l/m 0,0 km/h (0 Bft) O-SO 117 0 min 0,000 mm 0,0 UV-I 24 W/m 10,0 C 11,3 C 0,0 km/h (0 Bft) 98,00 %
17.05.2017 05:52 11,4 C 20,6 C 92 % 1024,7 hPa 0,0 l/m 0,0 km/h (0 Bft) O-SO 117 0 min 0,000 mm 0,0 UV-I 26 W/m 10,1 C 11,4 C 0,0 km/h (0 Bft) 100,00 %
17.05.2017 05:54 11,3 C 20,6 C 92 % 1024,7 hPa 0,0 l/m 0,0 km/h (0 Bft) O-SO 117 0 min 0,000 mm 0,0 UV-I 27 W/m 10,0 C 11,3 C 0,0 km/h (0 Bft) 100,00 %
17.05.2017 05:56 11,2 C 20,6 C 92 % 1024,6 hPa 0,0 l/m 0,0 km/h (0 Bft) O-SO 117 0 min 0,000 mm 0,0 UV-I 29 W/m 9,9 C 11,2 C 0,0 km/h (0 Bft) 98,11 %
17.05.2017 05:58 11,2 C 20,6 C 92 % 1024,6 hPa 0,0 l/m 0,0 km/h (0 Bft) O-SO 117 0 min 0,000 mm 0,0 UV-I 30 W/m 9,9 C 11,2 C 0,0 km/h (0 Bft) 97,87 %
17.05.2017 06:00 11,2 C 20,6 C 92 % 1024,6 hPa 0,0 l/m 0,0 km/h (0 Bft) O-SO 117 0 min 0,000 mm 0,0 UV-I 31 W/m 9,9 C 11,2 C 0,0 km/h (0 Bft) 100,00 %
17.05.2017 06:02 11,2 C 20,6 C 92 % 1024,6 hPa 0,0 l/m 0,0 km/h (0 Bft) O-SO 117 0 min 0,000 mm 0,0 UV-I 32 W/m 9,9 C 11,2 C 0,0 km/h (0 Bft) 97,87 %
17.05.2017 06:04 11,1 C 20,6 C 92 % 1024,6 hPa 0,0 l/m 0,0 km/h (0 Bft) O-SO 117 0 min 0,000 mm 0,0 UV-I 33 W/m 9,8 C 11,1 C 0,0 km/h (0 Bft) 98,00 %
17.05.2017 06:06 11,1 C 20,6 C 92 % 1024,5 hPa 0,0 l/m 0,0 km/h (0 Bft) O-SO 117 0 min 0,000 mm 0,0 UV-I 35 W/m 9,8 C 11,1 C 0,0 km/h (0 Bft) 96,23 %
17.05.2017 06:08 11,1 C 20,6 C 92 % 1024,6 hPa 0,0 l/m 0,1 km/h (0 Bft) O-SO 117 0 min 0,000 mm 0,0 UV-I 37 W/m 9,8 C 11,1 C 1,6 km/h (1 Bft) 97,37 %
17.05.2017 06:10 11,1 C 20,6 C 92 % 1024,5 hPa 0,0 l/m 0,0 km/h (0 Bft) O-SO 117 0 min 0,000 mm 0,0 UV-I 37 W/m 9,8 C 11,1 C 0,0 km/h (0 Bft) 96,00 %
17.05.2017 06:12 11,2 C 20,6 C 92 % 1024,6 hPa 0,0 l/m 0,0 km/h (0 Bft) O-SO 117 0 min 0,000 mm 0,0 UV-I 39 W/m 9,9 C 11,2 C 0,0 km/h (0 Bft) 95,74 %
17.05.2017 06:14 11,2 C 20,6 C 92 % 1024,6 hPa 0,0 l/m 0,0 km/h (0 Bft) O-SO 117 0 min 0,000 mm 0,0 UV-I 61 W/m 9,9 C 11,2 C 0,0 km/h (0 Bft) 97,62 %
17.05.2017 06:16 11,3 C 20,6 C 92 % 1024,6 hPa 0,0 l/m 0,7 km/h (0 Bft) O-SO 117 2 min 0,000 mm 0,0 UV-I 89 W/m 10,0 C 11,3 C 1,6 km/h (1 Bft) 98,00 %
17.05.2017 06:18 11,3 C 20,6 C 92 % 1024,6 hPa 0,0 l/m 0,0 km/h (0 Bft) O-SO 117 2 min 0,000 mm 0,0 UV-I 92 W/m 10,0 C 11,3 C 0,0 km/h (0 Bft) 96,23 %
17.05.2017 06:20 11,3 C 20,6 C 92 % 1024,6 hPa 0,0 l/m 0,0 km/h (0 Bft) O-SO 117 2 min 0,000 mm 0,0 UV-I 99 W/m 10,0 C 11,3 C 0,0 km/h (0 Bft) 100,00 %
17.05.2017 06:22 11,4 C 20,6 C 93 % 1024,6 hPa 0,0 l/m 0,0 km/h (0 Bft) O-SO 117 2 min 0,000 mm 0,0 UV-I 103 W/m 10,3 C 11,4 C 0,0 km/h (0 Bft) 100,00 %
17.05.2017 06:24 11,5 C 20,6 C 92 % 1024,5 hPa 0,0 l/m 0,0 km/h (0 Bft) O-SO 117 2 min 0,000 mm 0,0 UV-I 105 W/m 10,2 C 11,5 C 0,0 km/h (0 Bft) 94,74 %
17.05.2017 06:26 11,6 C 20,6 C 92 % 1024,5 hPa 0,0 l/m 1,2 km/h (1 Bft) O-SO 117 2 min 0,000 mm 0,0 UV-I 103 W/m 10,3 C 11,6 C 3,2 km/h (1 Bft) 94,34 %
17.05.2017 06:28 11,7 C 20,6 C 92 % 1024,5 hPa 0,0 l/m 2,8 km/h (1 Bft) O-SO 117 2 min 0,000 mm 0,0 UV-I 113 W/m 10,4 C 11,7 C 3,2 km/h (1 Bft) 94,00 %
17.05.2017 06:30 11,8 C 20,6 C 92 % 1024,5 hPa 0,0 l/m 1,3 km/h (1 Bft) O-SO 117 2 min 0,000 mm 0,0 UV-I 118 W/m 10,5 C 11,8 C 3,2 km/h (1 Bft) 92,11 %
17.05.2017 06:32 11,9 C 20,6 C 92 % 1024,5 hPa 0,0 l/m 1,8 km/h (1 Bft) O-SO 117 2 min 0,000 mm 0,0 UV-I 122 W/m 10,6 C 11,9 C 3,2 km/h (1 Bft) 97,87 %
17.05.2017 06:34 12,1 C 20,6 C 91 % 1024,5 hPa 0,0 l/m 0,6 km/h (0 Bft) O-SO 117 2 min 0,000 mm 0,0 UV-I 128 W/m 10,7 C 12,1 C 3,2 km/h (1 Bft) 96,23 %
17.05.2017 06:36 12,2 C 20,6 C 91 % 1024,5 hPa 0,0 l/m 0,1 km/h (0 Bft) O-SO 117 2 min 0,000 mm 0,0 UV-I 132 W/m 10,8 C 12,2 C 1,6 km/h (1 Bft) 93,62 %
17.05.2017 06:38 12,3 C 20,6 C 91 % 1024,5 hPa 0,0 l/m 0,3 km/h (0 Bft) O-SO 117 2 min 0,000 mm 0,0 UV-I 136 W/m 10,9 C 12,3 C 1,6 km/h (1 Bft) 95,12 %
17.05.2017 06:40 12,2 C 20,6 C 91 % 1024,4 hPa 0,0 l/m 0,0 km/h (0 Bft) O-SO 117 2 min 0,000 mm 0,0 UV-I 140 W/m 10,8 C 12,2 C 0,0 km/h (0 Bft) 92,86 %
17.05.2017 06:42 12,2 C 20,6 C 92 % 1024,6 hPa 0,0 l/m 0,2 km/h (0 Bft) O-SO 117 2 min 0,000 mm 0,0 UV-I 143 W/m 10,9 C 12,2 C 1,6 km/h (1 Bft) 92,11 %
17.05.2017 06:44 12,2 C 20,6 C 92 % 1024,4 hPa 0,0 l/m 0,7 km/h (0 Bft) O-SO 117 2 min 0,000 mm 0,0 UV-I 150 W/m 10,9 C 12,2 C 1,6 km/h (1 Bft) 98,00 %
17.05.2017 06:46 12,3 C 20,6 C 92 % 1024,4 hPa 0,0 l/m 0,0 km/h (0 Bft) O-SO 117 2 min 0,000 mm 0,0 UV-I 156 W/m 11,0 C 12,3 C 0,0 km/h (0 Bft) 93,62 %
17.05.2017 06:48 12,4 C 20,6 C 92 % 1024,4 hPa 0,0 l/m 0,0 km/h (0 Bft) O-SO 117 2 min 0,000 mm 0,0 UV-I 162 W/m 11,1 C 12,4 C 0,0 km/h (0 Bft) 92,00 %
17.05.2017 06:50 12,5 C 20,6 C 91 % 1024,5 hPa 0,0 l/m 0,0 km/h (0 Bft) O-SO 117 2 min 0,000 mm 0,0 UV-I 168 W/m 11,1 C 12,5 C 0,0 km/h (0 Bft) 92,31 %
17.05.2017 06:52 12,6 C 20,6 C 91 % 1024,5 hPa 0,0 l/m 0,0 km/h (0 Bft) O-SO 117 2 min 0,000 mm 0,0 UV-I 174 W/m 11,2 C 12,6 C 0,0 km/h (0 Bft) 94,74 %
17.05.2017 06:54 12,8 C 20,6 C 90 % 1024,5 hPa 0,0 l/m 0,0 km/h (0 Bft) O-SO 117 2 min 0,000 mm 0,0 UV-I 179 W/m 11,2 C 12,8 C 0,0 km/h (0 Bft) 92,86 %
17.05.2017 06:56 13,0 C 20,6 C 90 % 1024,5 hPa 0,0 l/m 0,0 km/h (0 Bft) O-SO 117 2 min 0,000 mm 0,0 UV-I 185 W/m 11,4 C 13,0 C 0,0 km/h (0 Bft) 94,34 %
17.05.2017 06:58 13,2 C 20,6 C 90 % 1024,4 hPa 0,0 l/m 0,0 km/h (0 Bft) O-SO 117 2 min 0,000 mm 0,0 UV-I 188 W/m 11,6 C 13,2 C 0,0 km/h (0 Bft) 94,00 %
17.05.2017 07:00 13,3 C 20,6 C 90 % 1024,5 hPa 0,0 l/m 0,1 km/h (0 Bft) O-SO 117 2 min 0,051 mm 0,0 UV-I 194 W/m 11,7 C 13,3 C 1,6 km/h (1 Bft) 95,74 %
17.05.2017 07:02 13,5 C 20,6 C 90 % 1024,5 hPa 0,0 l/m 0,0 km/h (0 Bft) O-SO 117 2 min 0,000 mm 0,0 UV-I 200 W/m 11,9 C 13,5 C 1,6 km/h (1 Bft) 90,24 %
17.05.2017 07:04 13,6 C 20,6 C 89 % 1024,5 hPa 0,0 l/m 0,0 km/h (0 Bft) O-SO 117 2 min 0,000 mm 0,0 UV-I 204 W/m 11,8 C 13,6 C 1,6 km/h (1 Bft) 93,62 %
17.05.2017 07:06 13,7 C 20,6 C 90 % 1024,6 hPa 0,0 l/m 0,1 km/h (0 Bft) O-SO 117 2 min 0,000 mm 0,0 UV-I 209 W/m 12,1 C 13,7 C 1,6 km/h (1 Bft) 96,00 %
17.05.2017 07:08 13,8 C 20,6 C 90 % 1024,6 hPa 0,0 l/m 0,2 km/h (0 Bft) O-SO 117 2 min 0,000 mm 0,0 UV-I 213 W/m 12,2 C 13,8 C 3,2 km/h (1 Bft) 97,56 %
17.05.2017 07:10 13,9 C 20,6 C 90 % 1024,6 hPa 0,0 l/m 1,0 km/h (0 Bft) O-SO 117 2 min 0,000 mm 0,0 UV-I 218 W/m 12,3 C 13,9 C 3,2 km/h (1 Bft) 94,00 %
17.05.2017 07:12 13,9 C 20,6 C 89 % 1024,6 hPa 0,0 l/m 2,6 km/h (1 Bft) O-SO 117 2 min 0,000 mm 0,0 UV-I 224 W/m 12,1 C 13,9 C 4,8 km/h (1 Bft) 97,87 %
17.05.2017 07:14 14,0 C 20,6 C 88 % 1024,5 hPa 0,0 l/m 2,5 km/h (1 Bft) O-SO 116 2 min 0,000 mm 0,0 UV-I 231 W/m 12,0 C 14,0 C 4,8 km/h (1 Bft) 96,23 %
17.05.2017 07:16 14,1 C 20,6 C 88 % 1024,5 hPa 0,0 l/m 1,5 km/h (1 Bft) O-SO 116 2 min 0,000 mm 0,0 UV-I 236 W/m 12,1 C 14,1 C 3,2 km/h (1 Bft) 92,68 %
17.05.2017 07:18 14,2 C 20,6 C 88 % 1024,5 hPa 0,0 l/m 1,0 km/h (0 Bft) O-SO 116 2 min 0,000 mm 0,0 UV-I 239 W/m 12,2 C 14,2 C 3,2 km/h (1 Bft) 90,00 %
17.05.2017 07:20 14,3 C 20,6 C 88 % 1024,5 hPa 0,0 l/m 1,9 km/h (1 Bft) O-SO 116 2 min 0,000 mm 0,5 UV-I 245 W/m 12,3 C 14,3 C 4,8 km/h (1 Bft) 97,56 %
17.05.2017 07:22 14,4 C 20,6 C 87 % 1024,5 hPa 0,0 l/m 0,7 km/h (0 Bft) O-SO 116 2 min 0,000 mm 0,5 UV-I 251 W/m 12,3 C 14,4 C 3,2 km/h (1 Bft) 93,62 %
17.05.2017 07:24 14,4 C 20,6 C 87 % 1024,5 hPa 0,0 l/m 2,3 km/h (1 Bft) O-SO 115 2 min 0,000 mm 0,5 UV-I 256 W/m 12,3 C 14,4 C 4,8 km/h (1 Bft) 93,62 %
17.05.2017 07:26 14,5 C 20,6 C 86 % 1024,5 hPa 0,0 l/m 3,0 km/h (1 Bft) O-SO 102 2 min 0,000 mm 0,5 UV-I 262 W/m 12,2 C 14,5 C 6,4 km/h (2 Bft) 98,00 %
17.05.2017 07:28 14,6 C 20,6 C 86 % 1024,6 hPa 0,0 l/m 3,1 km/h (1 Bft) O-NO 74 2 min 0,000 mm 0,5 UV-I 267 W/m 12,3 C 14,6 C 6,4 km/h (2 Bft) 90,00 %
17.05.2017 07:30 14,7 C 20,6 C 85 % 1024,5 hPa 0,0 l/m 2,1 km/h (1 Bft) O-NO 78 2 min 0,000 mm 0,5 UV-I 269 W/m 12,2 C 14,7 C 6,4 km/h (2 Bft) 91,67 %
17.05.2017 07:32 14,8 C 20,6 C 83 % 1024,6 hPa 0,0 l/m 6,4 km/h (2 Bft) O-NO 67 2 min 0,000 mm 0,6 UV-I 275 W/m 11,9 C 14,8 C 12,9 km/h (3 Bft) 96,43 %
17.05.2017 07:34 14,8 C 20,6 C 82 % 1024,6 hPa 0,0 l/m 6,4 km/h (2 Bft) NO 51 2 min 0,000 mm 0,6 UV-I 284 W/m 11,8 C 14,8 C 12,9 km/h (3 Bft) 98,00 %
17.05.2017 07:36 14,9 C 20,6 C 82 % 1024,6 hPa 0,0 l/m 5,5 km/h (1 Bft) O-NO 59 2 min 0,000 mm 0,6 UV-I 287 W/m 11,9 C 14,9 C 9,7 km/h (2 Bft) 100,00 %
17.05.2017 07:38 14,9 C 20,6 C 81 % 1024,5 hPa 0,0 l/m 7,4 km/h (2 Bft) NO 51 2 min 0,000 mm 0,6 UV-I 285 W/m 11,7 C 14,3 C 9,7 km/h (2 Bft) 100,00 %
17.05.2017 07:40 14,9 C 20,6 C 81 % 1024,5 hPa 0,0 l/m 9,3 km/h (2 Bft) O-NO 75 2 min 0,000 mm 0,7 UV-I 295 W/m 11,7 C 13,3 C 14,5 km/h (3 Bft) 100,00 %
17.05.2017 07:42 14,9 C 20,6 C 81 % 1024,4 hPa 0,0 l/m 10,2 km/h (2 Bft) O-NO 57 2 min 0,000 mm 0,7 UV-I 299 W/m 11,7 C 12,9 C 14,5 km/h (3 Bft) 100,00 %
17.05.2017 07:44 15,0 C 20,6 C 80 % 1024,4 hPa 0,0 l/m 9,2 km/h (2 Bft) O-NO 65 2 min 0,000 mm 0,7 UV-I 308 W/m 11,6 C 13,5 C 12,9 km/h (3 Bft) 94,00 %
17.05.2017 07:46 15,0 C 20,6 C 80 % 1024,4 hPa 0,0 l/m 9,1 km/h (2 Bft) NO 55 2 min 0,000 mm 0,7 UV-I 315 W/m 11,6 C 13,5 C 16,1 km/h (3 Bft) 100,00 %
17.05.2017 07:48 15,1 C 20,6 C 80 % 1024,3 hPa 0,0 l/m 11,6 km/h (2 Bft) O-NO 67 2 min 0,000 mm 0,7 UV-I 322 W/m 11,7 C 12,5 C 17,7 km/h (3 Bft) 97,73 %
17.05.2017 07:50 15,1 C 20,6 C 80 % 1024,3 hPa 0,0 l/m 13,2 km/h (3 Bft) O-NO 58 2 min 0,000 mm 0,8 UV-I 327 W/m 11,7 C 11,9 C 19,3 km/h (3 Bft) 100,00 %
17.05.2017 07:52 15,2 C 20,6 C 80 % 1024,3 hPa 0,0 l/m 11,7 km/h (2 Bft) O-NO 74 2 min 0,000 mm 0,8 UV-I 333 W/m 11,8 C 12,6 C 17,7 km/h (3 Bft) 98,00 %
17.05.2017 07:54 15,2 C 20,6 C 79 % 1024,3 hPa 0,0 l/m 12,6 km/h (3 Bft) O-NO 62 2 min 0,000 mm 0,8 UV-I 341 W/m 11,6 C 12,3 C 17,7 km/h (3 Bft) 97,73 %
17.05.2017 07:56 15,3 C 20,6 C 79 % 1024,3 hPa 0,0 l/m 10,6 km/h (2 Bft) O-NO 57 2 min 0,000 mm 0,8 UV-I 347 W/m 11,7 C 13,2 C 16,1 km/h (3 Bft) 100,00 %
17.05.2017 07:58 15,3 C 20,6 C 80 % 1024,3 hPa 0,0 l/m 10,7 km/h (2 Bft) O-NO 74 2 min 0,000 mm 0,9 UV-I 352 W/m 11,9 C 13,1 C 14,5 km/h (3 Bft) 94,29 %
17.05.2017 08:00 15,4 C 20,6 C 80 % 1024,3 hPa 0,0 l/m 7,9 km/h (2 Bft) O-NO 62 2 min 0,152 mm 0,9 UV-I 358 W/m 12,0 C 14,6 C 11,3 km/h (2 Bft) 96,23 %
17.05.2017 08:02 15,5 C 20,6 C 79 % 1024,4 hPa 0,0 l/m 12,4 km/h (3 Bft) O-NO 75 2 min 0,000 mm 0,9 UV-I 364 W/m 11,9 C 12,7 C 17,7 km/h (3 Bft) 97,73 %
17.05.2017 08:04 15,6 C 20,6 C 79 % 1024,3 hPa 0,0 l/m 11,9 km/h (2 Bft) O 86 2 min 0,000 mm 0,9 UV-I 371 W/m 12,0 C 13,0 C 14,5 km/h (3 Bft) 98,11 %
17.05.2017 08:06 15,6 C 20,6 C 79 % 1024,3 hPa 0,0 l/m 10,1 km/h (2 Bft) NO 45 2 min 0,000 mm 1,0 UV-I 378 W/m 12,0 C 13,7 C 14,5 km/h (3 Bft) 100,00 %
17.05.2017 08:08 15,6 C 20,6 C 79 % 1024,3 hPa 0,0 l/m 10,9 km/h (2 Bft) O-NO 61 2 min 0,000 mm 1,0 UV-I 385 W/m 12,0 C 13,4 C 16,1 km/h (3 Bft) 100,00 %
17.05.2017 08:10 15,6 C 20,6 C 78 % 1024,3 hPa 0,0 l/m 13,9 km/h (3 Bft) O-NO 71 2 min 0,000 mm 1,0 UV-I 391 W/m 11,8 C 12,3 C 17,7 km/h (3 Bft) 97,87 %
17.05.2017 08:12 15,7 C 20,6 C 78 % 1024,3 hPa 0,0 l/m 11,1 km/h (2 Bft) O-NO 64 2 min 0,000 mm 1,1 UV-I 396 W/m 11,9 C 13,4 C 16,1 km/h (3 Bft) 100,00 %
17.05.2017 08:14 15,7 C 20,6 C 78 % 1024,3 hPa 0,0 l/m 12,7 km/h (3 Bft) O 82 2 min 0,000 mm 1,1 UV-I 403 W/m 11,9 C 12,8 C 16,1 km/h (3 Bft) 97,73 %
17.05.2017 08:16 15,7 C 20,6 C 78 % 1024,3 hPa 0,0 l/m 14,4 km/h (3 Bft) O 80 2 min 0,000 mm 1,1 UV-I 406 W/m 11,9 C 12,2 C 19,3 km/h (3 Bft) 100,00 %
17.05.2017 08:18 15,8 C 20,6 C 76 % 1024,3 hPa 0,0 l/m 15,4 km/h (3 Bft) O-NO 64 2 min 0,000 mm 1,1 UV-I 411 W/m 11,6 C 12,0 C 20,9 km/h (4 Bft) 97,56 %
17.05.2017 08:20 15,8 C 20,6 C 76 % 1024,2 hPa 0,0 l/m 15,3 km/h (3 Bft) O 92 2 min 0,000 mm 1,2 UV-I 414 W/m 11,6 C 12,1 C 19,3 km/h (3 Bft) 100,00 %
17.05.2017 08:22 15,8 C 20,6 C 76 % 1024,3 hPa 0,0 l/m 12,6 km/h (3 Bft) O-NO 71 2 min 0,000 mm 1,2 UV-I 425 W/m 11,6 C 13,0 C 17,7 km/h (3 Bft) 100,00 %
17.05.2017 08:24 15,8 C 20,6 C 77 % 1024,2 hPa 0,0 l/m 13,6 km/h (3 Bft) O-NO 71 2 min 0,000 mm 1,2 UV-I 431 W/m 11,8 C 12,6 C 19,3 km/h (3 Bft) 98,11 %
17.05.2017 08:26 15,8 C 20,6 C 77 % 1024,2 hPa 0,0 l/m 8,6 km/h (2 Bft) O 82 2 min 0,000 mm 1,3 UV-I 437 W/m 11,8 C 14,6 C 14,5 km/h (3 Bft) 97,56 %
17.05.2017 08:28 15,9 C 20,6 C 77 % 1024,2 hPa 0,0 l/m 10,5 km/h (2 Bft) O 86 2 min 0,000 mm 1,3 UV-I 442 W/m 11,9 C 13,9 C 16,1 km/h (3 Bft) 97,73 %
17.05.2017 08:30 16,0 C 20,6 C 76 % 1024,2 hPa 0,0 l/m 10,5 km/h (2 Bft) O 84 2 min 0,000 mm 1,3 UV-I 447 W/m 11,8 C 14,0 C 17,7 km/h (3 Bft) 98,11 %
17.05.2017 08:32 16,0 C 20,6 C 76 % 1024,2 hPa 0,0 l/m 13,5 km/h (3 Bft) O 90 2 min 0,000 mm 1,4 UV-I 454 W/m 11,8 C 12,9 C 17,7 km/h (3 Bft) 94,74 %
17.05.2017 08:34 16,1 C 20,6 C 77 % 1024,2 hPa 0,0 l/m 11,8 km/h (2 Bft) O-NO 66 2 min 0,000 mm 1,4 UV-I 459 W/m 12,1 C 13,6 C 16,1 km/h (3 Bft) 96,43 %
17.05.2017 08:36 16,1 C 20,6 C 76 % 1024,2 hPa 0,0 l/m 9,3 km/h (2 Bft) O-NO 73 2 min 0,000 mm 1,4 UV-I 462 W/m 11,9 C 14,6 C 14,5 km/h (3 Bft) 94,74 %
17.05.2017 08:38 16,2 C 20,6 C 76 % 1024,2 hPa 0,0 l/m 10,3 km/h (2 Bft) O-NO 67 2 min 0,000 mm 1,5 UV-I 469 W/m 12,0 C 14,3 C 14,5 km/h (3 Bft) 98,11 %
17.05.2017 08:40 16,2 C 20,6 C 76 % 1024,2 hPa 0,0 l/m 9,4 km/h (2 Bft) O-NO 74 2 min 0,000 mm 1,5 UV-I 473 W/m 12,0 C 14,7 C 14,5 km/h (3 Bft) 94,00 %
17.05.2017 08:42 16,3 C 20,6 C 76 % 1024,1 hPa 0,0 l/m 8,5 km/h (2 Bft) O-NO 72 2 min 0,000 mm 1,5 UV-I 478 W/m 12,1 C 15,2 C 12,9 km/h (3 Bft) 95,74 %
17.05.2017 08:44 16,3 C 20,6 C 76 % 1024,1 hPa 0,0 l/m 8,6 km/h (2 Bft) O 89 2 min 0,000 mm 1,6 UV-I 481 W/m 12,1 C 15,2 C 12,9 km/h (3 Bft) 97,87 %
17.05.2017 08:46 16,4 C 20,6 C 76 % 1024,1 hPa 0,0 l/m 7,9 km/h (2 Bft) O-NO 63 2 min 0,000 mm 1,6 UV-I 486 W/m 12,2 C 15,6 C 12,9 km/h (3 Bft) 97,73 %
17.05.2017 08:48 16,5 C 20,6 C 76 % 1024,1 hPa 0,0 l/m 8,5 km/h (2 Bft) O-NO 67 2 min 0,000 mm 1,7 UV-I 492 W/m 12,3 C 15,4 C 12,9 km/h (3 Bft) 89,36 %
17.05.2017 08:50 16,5 C 21,1 C 76 % 1024,1 hPa 0,0 l/m 8,1 km/h (2 Bft) O-NO 63 2 min 0,000 mm 1,7 UV-I 497 W/m 12,3 C 15,6 C 12,9 km/h (3 Bft) 90,48 %
17.05.2017 08:52 16,7 C 20,6 C 77 % 1024,1 hPa 0,0 l/m 8,3 km/h (2 Bft) NO 49 2 min 0,000 mm 1,7 UV-I 504 W/m 12,6 C 15,7 C 16,1 km/h (3 Bft) 95,45 %
17.05.2017 08:54 16,7 C 21,1 C 75 % 1024,1 hPa 0,0 l/m 8,9 km/h (2 Bft) O-NO 74 2 min 0,000 mm 1,8 UV-I 510 W/m 12,2 C 15,5 C 14,5 km/h (3 Bft) 96,43 %
17.05.2017 08:56 16,7 C 21,1 C 75 % 1024,1 hPa 0,0 l/m 8,7 km/h (2 Bft) NO 51 2 min 0,000 mm 1,8 UV-I 518 W/m 12,2 C 15,6 C 14,5 km/h (3 Bft) 95,74 %
17.05.2017 08:58 16,8 C 21,1 C 75 % 1024,1 hPa 0,0 l/m 9,0 km/h (2 Bft) O-NO 70 2 min 0,000 mm 1,9 UV-I 522 W/m 12,3 C 15,5 C 12,9 km/h (3 Bft) 93,62 %
17.05.2017 09:00 16,9 C 21,1 C 75 % 1024,0 hPa 0,0 l/m 7,3 km/h (2 Bft) O-NO 68 2 min 0,000 mm 1,9 UV-I 525 W/m 12,4 C 16,4 C 12,9 km/h (3 Bft) 100,00 %
17.05.2017 09:02 16,9 C 21,1 C 74 % 1024,0 hPa 0,0 l/m 7,6 km/h (2 Bft) O-NO 74 2 min 0,280 mm 2,0 UV-I 529 W/m 12,2 C 16,3 C 11,3 km/h (2 Bft) 100,00 %
17.05.2017 09:04 16,9 C 21,1 C 75 % 1024,1 hPa 0,0 l/m 6,1 km/h (2 Bft) NO 51 2 min 0,000 mm 2,0 UV-I 536 W/m 12,4 C 16,9 C 9,7 km/h (2 Bft) 94,34 %
17.05.2017 09:06 17,1 C 21,1 C 75 % 1024,0 hPa 0,0 l/m 6,4 km/h (2 Bft) O-NO 59 2 min 0,000 mm 2,0 UV-I 542 W/m 12,6 C 17,1 C 11,3 km/h (2 Bft) 100,00 %
17.05.2017 09:08 17,2 C 21,1 C 75 % 1024,1 hPa 0,0 l/m 8,2 km/h (2 Bft) O-NO 59 2 min 0,000 mm 2,1 UV-I 550 W/m 12,7 C 16,3 C 12,9 km/h (3 Bft) 100,00 %
17.05.2017 09:10 17,2 C 21,1 C 74 % 1024,0 hPa 0,0 l/m 9,3 km/h (2 Bft) O 91 2 min 0,000 mm 2,1 UV-I 553 W/m 12,5 C 15,8 C 14,5 km/h (3 Bft) 98,00 %
17.05.2017 09:12 17,3 C 21,1 C 75 % 1024,0 hPa 0,0 l/m 9,1 km/h (2 Bft) O-NO 76 2 min 0,000 mm 2,2 UV-I 562 W/m 12,8 C 16,0 C 12,9 km/h (3 Bft) 100,00 %
17.05.2017 09:14 17,3 C 21,1 C 75 % 1024,0 hPa 0,0 l/m 10,4 km/h (2 Bft) NO 46 2 min 0,000 mm 2,2 UV-I 569 W/m 12,8 C 15,5 C 16,1 km/h (3 Bft) 96,00 %
17.05.2017 09:16 17,4 C 21,1 C 74 % 1024,0 hPa 0,0 l/m 9,0 km/h (2 Bft) O-NO 77 2 min 0,000 mm 2,2 UV-I 574 W/m 12,7 C 16,2 C 14,5 km/h (3 Bft) 97,56 %
17.05.2017 09:18 17,4 C 21,1 C 74 % 1023,9 hPa 0,0 l/m 12,3 km/h (3 Bft) NO 56 2 min 0,000 mm 2,3 UV-I 581 W/m 12,7 C 14,9 C 16,1 km/h (3 Bft) 100,00 %
17.05.2017 09:20 17,6 C 21,1 C 75 % 1024,0 hPa 0,0 l/m 11,0 km/h (2 Bft) O-NO 76 2 min 0,000 mm 2,3 UV-I 586 W/m 13,1 C 15,6 C 16,1 km/h (3 Bft) 96,00 %
17.05.2017 09:22 17,7 C 21,1 C 73 % 1024,0 hPa 0,0 l/m 11,2 km/h (2 Bft) O 91 2 min 0,000 mm 2,4 UV-I 590 W/m 12,8 C 15,7 C 17,7 km/h (3 Bft) 97,56 %
17.05.2017 09:24 17,7 C 21,1 C 73 % 1023,9 hPa 0,0 l/m 10,5 km/h (2 Bft) O-NO 70 2 min 0,000 mm 2,4 UV-I 581 W/m 12,8 C 15,9 C 16,1 km/h (3 Bft) 100,00 %
17.05.2017 09:26 17,7 C 21,1 C 73 % 1023,9 hPa 0,0 l/m 9,4 km/h (2 Bft) O-NO 58 2 min 0,000 mm 2,5 UV-I 600 W/m 12,8 C 16,3 C 16,1 km/h (3 Bft) 97,73 %
17.05.2017 09:28 17,7 C 21,1 C 73 % 1023,9 hPa 0,0 l/m 11,2 km/h (2 Bft) NO 51 2 min 0,000 mm 2,5 UV-I 607 W/m 12,8 C 15,7 C 16,1 km/h (3 Bft) 94,34 %
17.05.2017 09:30 17,8 C 21,1 C 74 % 1023,8 hPa 0,0 l/m 10,3 km/h (2 Bft) O-NO 69 2 min 0,000 mm 2,6 UV-I 588 W/m 13,1 C 16,1 C 16,1 km/h (3 Bft) 97,44 %
17.05.2017 09:32 17,8 C 21,1 C 73 % 1023,8 hPa 0,0 l/m 10,9 km/h (2 Bft) O-NO 57 2 min 0,000 mm 2,6 UV-I 607 W/m 12,9 C 15,9 C 19,3 km/h (3 Bft) 100,00 %
17.05.2017 09:34 17,8 C 21,1 C 73 % 1023,8 hPa 0,0 l/m 9,4 km/h (2 Bft) NO 47 2 min 0,000 mm 2,6 UV-I 608 W/m 12,9 C 16,4 C 14,5 km/h (3 Bft) 92,45 %
17.05.2017 09:36 17,9 C 21,1 C 75 % 1023,8 hPa 0,0 l/m 9,3 km/h (2 Bft) O-NO 59 2 min 0,000 mm 2,7 UV-I 614 W/m 13,4 C 16,6 C 16,1 km/h (3 Bft) 97,73 %
17.05.2017 09:38 17,9 C 21,1 C 74 % 1023,7 hPa 0,0 l/m 8,7 km/h (2 Bft) NO 53 2 min 0,000 mm 2,7 UV-I 615 W/m 13,2 C 16,8 C 14,5 km/h (3 Bft) 96,00 %
17.05.2017 09:40 18,0 C 21,1 C 75 % 1023,7 hPa 0,0 l/m 7,4 km/h (2 Bft) O-NO 70 2 min 0,000 mm 2,8 UV-I 623 W/m 13,5 C 17,5 C 11,3 km/h (2 Bft) 92,11 %
17.05.2017 09:42 18,2 C 21,1 C 76 % 1023,7 hPa 0,0 l/m 8,0 km/h (2 Bft) O-NO 65 2 min 0,000 mm 2,8 UV-I 628 W/m 13,9 C 17,5 C 19,3 km/h (3 Bft) 100,00 %
17.05.2017 09:44 18,3 C 21,1 C 73 % 1023,7 hPa 0,0 l/m 14,3 km/h (3 Bft) O-NO 61 2 min 0,000 mm 2,9 UV-I 637 W/m 13,4 C 15,4 C 19,3 km/h (3 Bft) 100,00 %
17.05.2017 09:46 18,3 C 21,1 C 74 % 1023,7 hPa 0,0 l/m 10,0 km/h (2 Bft) O-NO 57 2 min 0,000 mm 2,9 UV-I 639 W/m 13,6 C 16,8 C 16,1 km/h (3 Bft) 95,45 %
17.05.2017 09:48 18,3 C 21,1 C 73 % 1023,7 hPa 0,0 l/m 14,0 km/h (3 Bft) O-NO 63 2 min 0,000 mm 3,0 UV-I 649 W/m 13,4 C 15,5 C 19,3 km/h (3 Bft) 94,00 %
17.05.2017 09:50 18,3 C 21,1 C 74 % 1023,6 hPa 0,0 l/m 10,4 km/h (2 Bft) NO 49 2 min 0,000 mm 3,0 UV-I 646 W/m 13,6 C 16,6 C 16,1 km/h (3 Bft) 97,56 %
17.05.2017 09:52 18,4 C 21,1 C 73 % 1023,6 hPa 0,0 l/m 11,0 km/h (2 Bft) N-NO 33 2 min 0,000 mm 3,1 UV-I 660 W/m 13,5 C 16,5 C 16,1 km/h (3 Bft) 98,11 %
17.05.2017 09:54 18,3 C 21,1 C 72 % 1023,6 hPa 0,0 l/m 11,9 km/h (2 Bft) O-NO 59 2 min 0,000 mm 3,1 UV-I 666 W/m 13,2 C 16,1 C 17,7 km/h (3 Bft) 96,00 %
17.05.2017 09:56 18,3 C 21,1 C 72 % 1023,6 hPa 0,0 l/m 9,7 km/h (2 Bft) NO 55 2 min 0,000 mm 3,2 UV-I 672 W/m 13,2 C 16,9 C 16,1 km/h (3 Bft) 91,49 %
17.05.2017 09:58 18,4 C 21,1 C 72 % 1023,6 hPa 0,0 l/m 10,1 km/h (2 Bft) O-NO 63 2 min 0,000 mm 3,2 UV-I 676 W/m 13,3 C 16,8 C 16,1 km/h (3 Bft) 93,18 %
17.05.2017 10:00 18,4 C 21,1 C 71 % 1023,6 hPa 0,0 l/m 7,1 km/h (2 Bft) O-NO 71 2 min 0,000 mm 3,3 UV-I 680 W/m 13,0 C 18,1 C 11,3 km/h (2 Bft) 97,56 %
17.05.2017 10:02 18,4 C 21,1 C 71 % 1023,6 hPa 0,0 l/m 11,3 km/h (2 Bft) O-NO 67 2 min 0,355 mm 3,4 UV-I 682 W/m 13,0 C 16,4 C 17,7 km/h (3 Bft) 94,00 %
17.05.2017 10:04 18,4 C 21,1 C 71 % 1023,5 hPa 0,0 l/m 8,5 km/h (2 Bft) O-NO 64 2 min 0,000 mm 3,4 UV-I 686 W/m 13,0 C 17,5 C 14,5 km/h (3 Bft) 92,86 %
17.05.2017 10:06 18,6 C 21,1 C 72 % 1023,5 hPa 0,0 l/m 11,3 km/h (2 Bft) O-NO 59 2 min 0,000 mm 3,5 UV-I 691 W/m 13,4 C 16,6 C 16,1 km/h (3 Bft) 92,73 %
17.05.2017 10:08 18,8 C 21,1 C 73 % 1023,5 hPa 0,0 l/m 6,2 km/h (2 Bft) O-NO 76 2 min 0,000 mm 3,5 UV-I 689 W/m 13,9 C 18,8 C 11,3 km/h (2 Bft) 96,00 %
17.05.2017 10:10 18,8 C 21,1 C 69 % 1023,5 hPa 0,0 l/m 8,0 km/h (2 Bft) O-NO 62 2 min 0,000 mm 3,6 UV-I 696 W/m 13,0 C 18,1 C 12,9 km/h (3 Bft) 94,44 %
17.05.2017 10:12 18,7 C 21,1 C 69 % 1023,5 hPa 0,0 l/m 9,9 km/h (2 Bft) O-NO 61 2 min 0,000 mm 3,7 UV-I 702 W/m 12,9 C 17,2 C 17,7 km/h (3 Bft) 94,83 %
17.05.2017 10:14 18,8 C 21,1 C 72 % 1023,5 hPa 0,0 l/m 10,0 km/h (2 Bft) N-NO 22 2 min 0,000 mm 3,7 UV-I 706 W/m 13,6 C 17,3 C 16,1 km/h (3 Bft) 97,62 %
17.05.2017 10:16 18,9 C 21,1 C 73 % 1023,5 hPa 0,0 l/m 7,0 km/h (2 Bft) NO 36 2 min 0,000 mm 3,7 UV-I 709 W/m 13,9 C 18,6 C 14,5 km/h (3 Bft) 96,23 %
17.05.2017 10:18 18,9 C 21,1 C 71 % 1023,4 hPa 0,0 l/m 10,1 km/h (2 Bft) NO 49 2 min 0,000 mm 3,8 UV-I 717 W/m 13,5 C 17,4 C 16,1 km/h (3 Bft) 94,74 %
17.05.2017 10:20 18,9 C 21,1 C 71 % 1023,4 hPa 0,0 l/m 6,5 km/h (2 Bft) NO 42 2 min 0,000 mm 3,8 UV-I 721 W/m 13,5 C 18,9 C 11,3 km/h (2 Bft) 96,00 %
17.05.2017 10:22 19,1 C 21,1 C 72 % 1023,4 hPa 0,0 l/m 10,6 km/h (2 Bft) O-NO 61 2 min 0,000 mm 3,9 UV-I 724 W/m 13,9 C 17,4 C 16,1 km/h (3 Bft) 93,62 %
17.05.2017 10:24 19,1 C 21,1 C 69 % 1023,4 hPa 0,0 l/m 10,5 km/h (2 Bft) NO 41 2 min 0,000 mm 3,9 UV-I 727 W/m 13,3 C 17,5 C 17,7 km/h (3 Bft) 88,00 %
17.05.2017 10:26 19,1 C 21,1 C 69 % 1023,4 hPa 0,0 l/m 6,9 km/h (2 Bft) NO 55 2 min 0,000 mm 4,0 UV-I 736 W/m 13,3 C 18,9 C 14,5 km/h (3 Bft) 93,18 %
17.05.2017 10:28 19,2 C 21,1 C 71 % 1023,3 hPa 0,0 l/m 8,0 km/h (2 Bft) NO 44 2 min 0,000 mm 4,0 UV-I 739 W/m 13,8 C 18,5 C 14,5 km/h (3 Bft) 92,68 %
17.05.2017 10:30 19,4 C 21,1 C 73 % 1023,4 hPa 0,0 l/m 9,7 km/h (2 Bft) NO 52 2 min 0,000 mm 4,1 UV-I 742 W/m 14,4 C 18,1 C 14,5 km/h (3 Bft) 93,18 %
17.05.2017 10:32 19,4 C 21,1 C 67 % 1023,4 hPa 0,0 l/m 10,1 km/h (2 Bft) O-NO 61 2 min 0,000 mm 4,1 UV-I 743 W/m 13,1 C 17,9 C 17,7 km/h (3 Bft) 92,00 %
17.05.2017 10:34 19,4 C 21,1 C 68 % 1023,4 hPa 0,0 l/m 10,7 km/h (2 Bft) O 80 2 min 0,000 mm 4,2 UV-I 752 W/m 13,3 C 17,7 C 16,1 km/h (3 Bft) 94,34 %
17.05.2017 10:36 19,4 C 21,1 C 69 % 1023,3 hPa 0,0 l/m 9,9 km/h (2 Bft) O-SO 111 2 min 0,000 mm 4,3 UV-I 755 W/m 13,6 C 18,0 C 16,1 km/h (3 Bft) 94,74 %
17.05.2017 10:38 19,6 C 21,1 C 70 % 1023,2 hPa 0,0 l/m 8,9 km/h (2 Bft) NO 36 2 min 0,000 mm 4,3 UV-I 762 W/m 14,0 C 18,6 C 14,5 km/h (3 Bft) 95,74 %
17.05.2017 10:40 19,6 C 21,1 C 67 % 1023,2 hPa 0,0 l/m 10,2 km/h (2 Bft) O-NO 57 2 min 0,000 mm 4,3 UV-I 766 W/m 13,3 C 18,1 C 16,1 km/h (3 Bft) 95,24 %
17.05.2017 10:42 19,6 C 21,1 C 68 % 1023,2 hPa 0,0 l/m 12,2 km/h (2 Bft) O-NO 68 2 min 0,000 mm 4,4 UV-I 770 W/m 13,5 C 17,5 C 17,7 km/h (3 Bft) 96,49 %
17.05.2017 10:44 19,6 C 21,1 C 67 % 1023,2 hPa 0,0 l/m 11,1 km/h (2 Bft) O-NO 62 2 min 0,000 mm 4,5 UV-I 775 W/m 13,3 C 17,8 C 14,5 km/h (3 Bft) 94,00 %
17.05.2017 10:46 19,8 C 21,1 C 71 % 1023,2 hPa 0,0 l/m 10,2 km/h (2 Bft) N-NO 30 2 min 0,000 mm 4,4 UV-I 765 W/m 14,4 C 18,4 C 14,5 km/h (3 Bft) 94,00 %
17.05.2017 10:48 19,9 C 21,1 C 71 % 1023,2 hPa 0,0 l/m 7,9 km/h (2 Bft) NO 40 2 min 0,000 mm 4,4 UV-I 742 W/m 14,5 C 19,3 C 11,3 km/h (2 Bft) 92,86 %
17.05.2017 10:50 20,1 C 21,1 C 66 % 1023,2 hPa 0,0 l/m 10,2 km/h (2 Bft) N-NO 18 2 min 0,000 mm 4,5 UV-I 751 W/m 13,5 C 18,7 C 17,7 km/h (3 Bft) 93,18 %
17.05.2017 10:52 20,1 C 21,1 C 66 % 1023,2 hPa 0,0 l/m 13,5 km/h (3 Bft) NO 45 2 min 0,000 mm 4,5 UV-I 764 W/m 13,5 C 17,7 C 17,7 km/h (3 Bft) 95,74 %
17.05.2017 10:54 20,1 C 21,1 C 65 % 1023,2 hPa 0,0 l/m 9,3 km/h (2 Bft) O-NO 71 2 min 0,000 mm 4,6 UV-I 773 W/m 13,3 C 19,0 C 14,5 km/h (3 Bft) 97,87 %
17.05.2017 10:56 20,1 C 21,1 C 68 % 1023,2 hPa 0,0 l/m 9,2 km/h (2 Bft) O 88 2 min 0,000 mm 4,7 UV-I 787 W/m 14,0 C 19,0 C 14,5 km/h (3 Bft) 97,87 %
17.05.2017 10:58 20,1 C 21,1 C 63 % 1023,2 hPa 0,0 l/m 9,6 km/h (2 Bft) NO 45 2 min 0,000 mm 4,7 UV-I 793 W/m 12,8 C 18,9 C 14,5 km/h (3 Bft) 98,00 %
17.05.2017 11:00 20,1 C 21,1 C 65 % 1023,1 hPa 0,0 l/m 5,8 km/h (2 Bft) O-NO 57 2 min 0,457 mm 4,8 UV-I 797 W/m 13,3 C 20,1 C 8,0 km/h (2 Bft) 100,00 %
17.05.2017 11:02 20,1 C 21,1 C 64 % 1023,1 hPa 0,0 l/m 9,4 km/h (2 Bft) NO 35 2 min 0,000 mm 4,8 UV-I 799 W/m 13,1 C 19,0 C 14,5 km/h (3 Bft) 100,00 %
17.05.2017 11:04 20,2 C 21,1 C 66 % 1023,1 hPa 0,0 l/m 12,9 km/h (3 Bft) NO 39 2 min 0,000 mm 4,9 UV-I 803 W/m 13,6 C 18,0 C 16,1 km/h (3 Bft) 96,23 %
17.05.2017 11:06 20,2 C 21,1 C 67 % 1023,0 hPa 0,0 l/m 8,8 km/h (2 Bft) NO 53 2 min 0,000 mm 4,9 UV-I 810 W/m 13,9 C 19,3 C 14,5 km/h (3 Bft) 97,87 %
17.05.2017 11:08 20,3 C 21,1 C 64 % 1023,0 hPa 0,0 l/m 11,7 km/h (2 Bft) NO 51 2 min 0,000 mm 4,9 UV-I 809 W/m 13,3 C 18,5 C 17,7 km/h (3 Bft) 97,87 %
17.05.2017 11:10 20,3 C 21,1 C 66 % 1023,0 hPa 0,0 l/m 9,2 km/h (2 Bft) NO 38 2 min 0,000 mm 5,0 UV-I 810 W/m 13,7 C 19,2 C 14,5 km/h (3 Bft) 98,11 %
17.05.2017 11:12 20,3 C 21,1 C 65 % 1022,9 hPa 0,0 l/m 14,9 km/h (3 Bft) NO 42 2 min 0,000 mm 5,0 UV-I 812 W/m 13,5 C 17,6 C 17,7 km/h (3 Bft) 97,37 %
17.05.2017 11:14 20,3 C 21,1 C 65 % 1022,9 hPa 0,0 l/m 14,0 km/h (3 Bft) N-NO 23 2 min 0,000 mm 5,0 UV-I 811 W/m 13,5 C 17,9 C 19,3 km/h (3 Bft) 92,68 %
17.05.2017 11:16 20,3 C 21,1 C 66 % 1022,8 hPa 0,0 l/m 7,8 km/h (2 Bft) N 5 2 min 0,000 mm 5,0 UV-I 801 W/m 13,7 C 19,7 C 14,5 km/h (3 Bft) 94,92 %
17.05.2017 11:18 20,3 C 21,1 C 68 % 1022,8 hPa 0,0 l/m 8,3 km/h (2 Bft) NO 44 2 min 0,000 mm 5,1 UV-I 804 W/m 14,2 C 19,6 C 14,5 km/h (3 Bft) 95,45 %
17.05.2017 11:20 20,4 C 21,1 C 66 % 1022,8 hPa 0,0 l/m 12,8 km/h (3 Bft) O-NO 69 2 min 0,000 mm 5,1 UV-I 808 W/m 13,8 C 18,3 C 16,1 km/h (3 Bft) 100,00 %
17.05.2017 11:22 20,5 C 21,1 C 62 % 1022,7 hPa 0,0 l/m 9,7 km/h (2 Bft) O-NO 69 2 min 0,000 mm 5,2 UV-I 816 W/m 13,0 C 19,3 C 14,5 km/h (3 Bft) 97,44 %
17.05.2017 11:24 20,6 C 21,1 C 62 % 1022,7 hPa 0,0 l/m 8,1 km/h (2 Bft) NO 44 2 min 0,000 mm 5,2 UV-I 814 W/m 13,1 C 19,9 C 14,5 km/h (3 Bft) 98,08 %
17.05.2017 11:26 20,8 C 21,1 C 65 % 1022,7 hPa 0,0 l/m 8,1 km/h (2 Bft) NO 49 2 min 0,000 mm 5,3 UV-I 821 W/m 14,0 C 20,2 C 14,5 km/h (3 Bft) 96,00 %
17.05.2017 11:28 20,9 C 21,1 C 66 % 1022,7 hPa 0,0 l/m 7,3 km/h (2 Bft) NO 40 2 min 0,000 mm 5,4 UV-I 836 W/m 14,3 C 20,6 C 11,3 km/h (2 Bft) 95,24 %
17.05.2017 11:30 21,1 C 21,1 C 58 % 1022,7 hPa 0,0 l/m 10,4 km/h (2 Bft) O-NO 57 2 min 0,000 mm 5,4 UV-I 838 W/m 12,5 C 19,7 C 17,7 km/h (3 Bft) 97,56 %
17.05.2017 11:32 21,1 C 21,7 C 60 % 1022,7 hPa 0,0 l/m 9,4 km/h (2 Bft) N 351 2 min 0,000 mm 5,5 UV-I 845 W/m 13,0 C 20,0 C 16,1 km/h (3 Bft) 98,28 %
17.05.2017 11:34 21,1 C 21,7 C 62 % 1022,6 hPa 0,0 l/m 6,7 km/h (2 Bft) N-NO 31 2 min 0,000 mm 5,4 UV-I 841 W/m 13,5 C 21,0 C 14,5 km/h (3 Bft) 97,87 %
17.05.2017 11:36 21,1 C 21,7 C 55 % 1022,6 hPa 0,0 l/m 12,6 km/h (3 Bft) O-NO 59 2 min 0,000 mm 5,5 UV-I 842 W/m 11,7 C 19,1 C 24,1 km/h (4 Bft) 94,74 %
17.05.2017 11:38 21,0 C 21,7 C 57 % 1022,6 hPa 0,0 l/m 14,3 km/h (3 Bft) O-NO 64 2 min 0,000 mm 5,5 UV-I 844 W/m 12,1 C 18,6 C 17,7 km/h (3 Bft) 100,00 %
17.05.2017 11:40 20,9 C 21,7 C 56 % 1022,6 hPa 0,0 l/m 10,7 km/h (2 Bft) N-NO 14 2 min 0,000 mm 5,5 UV-I 843 W/m 11,8 C 19,4 C 16,1 km/h (3 Bft) 92,45 %
17.05.2017 11:42 21,1 C 21,7 C 60 % 1022,6 hPa 0,0 l/m 9,6 km/h (2 Bft) O-NO 61 2 min 0,000 mm 5,5 UV-I 842 W/m 13,0 C 20,0 C 16,1 km/h (3 Bft) 95,12 %
17.05.2017 11:44 21,3 C 21,7 C 57 % 1022,5 hPa 0,0 l/m 11,3 km/h (2 Bft) NO 52 2 min 0,000 mm 5,6 UV-I 852 W/m 12,4 C 19,7 C 17,7 km/h (3 Bft) 96,43 %
17.05.2017 11:46 21,2 C 21,7 C 59 % 1022,5 hPa 0,0 l/m 7,6 km/h (2 Bft) NO 40 2 min 0,000 mm 5,7 UV-I 856 W/m 12,9 C 20,8 C 17,7 km/h (3 Bft) 95,74 %
17.05.2017 11:48 21,2 C 21,7 C 58 % 1022,5 hPa 0,0 l/m 15,2 km/h (3 Bft) O-NO 62 2 min 0,000 mm 5,7 UV-I 853 W/m 12,6 C 18,7 C 22,5 km/h (4 Bft) 100,00 %
17.05.2017 11:50 21,2 C 21,7 C 57 % 1022,5 hPa 0,0 l/m 13,0 km/h (3 Bft) O 79 2 min 0,000 mm 5,7 UV-I 859 W/m 12,3 C 19,2 C 17,7 km/h (3 Bft) 97,73 %
17.05.2017 11:52 21,2 C 21,7 C 52 % 1022,4 hPa 0,0 l/m 13,2 km/h (3 Bft) O-NO 63 2 min 0,000 mm 5,7 UV-I 859 W/m 10,9 C 19,1 C 19,3 km/h (3 Bft) 100,00 %
17.05.2017 11:54 21,2 C 21,7 C 55 % 1022,4 hPa 0,0 l/m 13,0 km/h (3 Bft) O-NO 58 2 min 0,000 mm 5,7 UV-I 846 W/m 11,8 C 19,2 C 20,9 km/h (4 Bft) 100,00 %
17.05.2017 11:56 21,1 C 21,7 C 53 % 1022,5 hPa 0,0 l/m 14,5 km/h (3 Bft) O-NO 60 2 min 0,000 mm 5,8 UV-I 865 W/m 11,1 C 18,7 C 19,3 km/h (3 Bft) 97,37 %
17.05.2017 11:58 21,1 C 21,7 C 56 % 1022,4 hPa 0,0 l/m 13,5 km/h (3 Bft) NO 52 2 min 0,000 mm 5,9 UV-I 869 W/m 12,0 C 18,9 C 17,7 km/h (3 Bft) 100,00 %
17.05.2017 12:00 21,0 C 21,7 C 57 % 1022,4 hPa 0,0 l/m 12,5 km/h (3 Bft) O-NO 64 2 min 0,534 mm 5,9 UV-I 868 W/m 12,1 C 19,1 C 20,9 km/h (4 Bft) 96,23 %
17.05.2017 12:02 21,1 C 21,7 C 56 % 1022,3 hPa 0,0 l/m 17,1 km/h (3 Bft) O-NO 64 2 min 0,000 mm 5,9 UV-I 873 W/m 12,0 C 18,2 C 22,5 km/h (4 Bft) 96,00 %
17.05.2017 12:04 21,1 C 21,7 C 53 % 1022,3 hPa 0,0 l/m 11,3 km/h (2 Bft) NO 49 2 min 0,000 mm 5,9 UV-I 873 W/m 11,1 C 19,5 C 14,5 km/h (3 Bft) 92,59 %
17.05.2017 12:06 21,2 C 21,7 C 53 % 1022,2 hPa 0,0 l/m 10,3 km/h (2 Bft) NO 47 2 min 0,000 mm 5,9 UV-I 874 W/m 11,2 C 19,9 C 17,7 km/h (3 Bft) 98,51 %
17.05.2017 12:08 21,4 C 21,7 C 56 % 1022,3 hPa 0,0 l/m 14,5 km/h (3 Bft) N-NO 25 2 min 0,000 mm 5,9 UV-I 875 W/m 12,3 C 19,1 C 20,9 km/h (4 Bft) 97,62 %
17.05.2017 12:10 21,3 C 21,7 C 58 % 1022,2 hPa 0,0 l/m 11,4 km/h (2 Bft) N 5 2 min 0,000 mm 6,0 UV-I 881 W/m 12,7 C 19,7 C 19,3 km/h (3 Bft) 93,18 %
17.05.2017 12:12 21,4 C 21,7 C 53 % 1022,3 hPa 0,0 l/m 8,4 km/h (2 Bft) O 86 2 min 0,000 mm 6,1 UV-I 882 W/m 11,4 C 20,7 C 17,7 km/h (3 Bft) 97,87 %
17.05.2017 12:14 21,5 C 21,7 C 53 % 1022,2 hPa 0,0 l/m 16,5 km/h (3 Bft) O-NO 69 2 min 0,000 mm 6,2 UV-I 887 W/m 11,5 C 18,8 C 22,5 km/h (4 Bft) 95,45 %
17.05.2017 12:16 21,5 C 21,7 C 52 % 1022,2 hPa 0,0 l/m 11,2 km/h (2 Bft) O-NO 74 2 min 0,000 mm 6,1 UV-I 887 W/m 11,2 C 20,0 C 24,1 km/h (4 Bft) 98,31 %
17.05.2017 12:18 21,6 C 21,7 C 52 % 1022,2 hPa 0,0 l/m 15,7 km/h (3 Bft) NO 49 2 min 0,000 mm 6,1 UV-I 882 W/m 11,3 C 19,0 C 22,5 km/h (4 Bft) 94,74 %
17.05.2017 12:20 21,6 C 21,7 C 52 % 1022,2 hPa 0,0 l/m 8,9 km/h (2 Bft) O-NO 69 2 min 0,000 mm 6,1 UV-I 886 W/m 11,3 C 20,7 C 14,5 km/h (3 Bft) 96,43 %
17.05.2017 12:22 21,6 C 21,7 C 52 % 1022,2 hPa 0,0 l/m 13,0 km/h (3 Bft) O-NO 63 2 min 0,000 mm 6,1 UV-I 882 W/m 11,3 C 19,6 C 19,3 km/h (3 Bft) 91,30 %
17.05.2017 12:24 21,7 C 21,7 C 54 % 1022,1 hPa 0,0 l/m 11,0 km/h (2 Bft) NO 46 2 min 0,000 mm 6,0 UV-I 881 W/m 12,0 C 20,2 C 17,7 km/h (3 Bft) 95,16 %
17.05.2017 12:26 21,7 C 21,7 C 54 % 1022,1 hPa 0,0 l/m 8,6 km/h (2 Bft) O-NO 67 2 min 0,000 mm 6,1 UV-I 876 W/m 12,0 C 20,9 C 12,9 km/h (3 Bft) 94,34 %
17.05.2017 12:28 21,8 C 21,7 C 49 % 1022,1 hPa 0,0 l/m 11,9 km/h (2 Bft) O-NO 58 2 min 0,000 mm 6,1 UV-I 872 W/m 10,6 C 20,1 C 20,9 km/h (4 Bft) 97,56 %
17.05.2017 12:30 21,7 C 21,7 C 53 % 1022,1 hPa 0,0 l/m 12,1 km/h (2 Bft) NO 34 2 min 0,000 mm 6,1 UV-I 871 W/m 11,7 C 20,0 C 19,3 km/h (3 Bft) 96,23 %
17.05.2017 12:32 21,7 C 21,7 C 55 % 1022,1 hPa 0,0 l/m 12,0 km/h (2 Bft) NO 47 2 min 0,000 mm 6,2 UV-I 876 W/m 12,3 C 20,0 C 22,5 km/h (4 Bft) 97,56 %
17.05.2017 12:34 21,7 C 21,7 C 54 % 1022,1 hPa 0,0 l/m 13,2 km/h (3 Bft) NO 46 2 min 0,000 mm 6,1 UV-I 874 W/m 12,0 C 19,7 C 22,5 km/h (4 Bft) 96,00 %
17.05.2017 12:36 21,7 C 21,7 C 56 % 1022,0 hPa 0,0 l/m 11,4 km/h (2 Bft) O-NO 70 2 min 0,000 mm 6,1 UV-I 865 W/m 12,5 C 20,1 C 17,7 km/h (3 Bft) 94,74 %
17.05.2017 12:38 21,7 C 21,7 C 56 % 1022,0 hPa 0,0 l/m 12,2 km/h (2 Bft) NO 48 2 min 0,000 mm 6,2 UV-I 883 W/m 12,5 C 19,9 C 19,3 km/h (3 Bft) 93,22 %
17.05.2017 12:40 21,8 C 21,7 C 58 % 1022,0 hPa 0,0 l/m 13,6 km/h (3 Bft) NO 51 2 min 0,000 mm 6,2 UV-I 890 W/m 13,2 C 19,7 C 22,5 km/h (4 Bft) 97,37 %
17.05.2017 12:42 21,8 C 21,7 C 56 % 1022,0 hPa 0,0 l/m 15,4 km/h (3 Bft) N-NO 33 2 min 0,000 mm 6,3 UV-I 889 W/m 12,6 C 19,3 C 25,7 km/h (4 Bft) 97,78 %
17.05.2017 12:44 21,8 C 21,7 C 55 % 1022,0 hPa 0,0 l/m 12,6 km/h (3 Bft) O-NO 58 2 min 0,000 mm 6,2 UV-I 884 W/m 12,4 C 20,0 C 20,9 km/h (4 Bft) 94,34 %
17.05.2017 12:46 21,8 C 21,7 C 52 % 1021,9 hPa 0,0 l/m 16,3 km/h (3 Bft) NO 46 2 min 0,000 mm 6,3 UV-I 890 W/m 11,5 C 19,2 C 25,7 km/h (4 Bft) 98,00 %
17.05.2017 12:48 21,8 C 21,7 C 54 % 1021,9 hPa 0,0 l/m 12,3 km/h (3 Bft) N 11 2 min 0,000 mm 6,3 UV-I 889 W/m 12,1 C 20,0 C 22,5 km/h (4 Bft) 97,73 %
17.05.2017 12:50 21,8 C 21,7 C 54 % 1021,9 hPa 0,0 l/m 12,2 km/h (2 Bft) NO 40 2 min 0,000 mm 6,3 UV-I 892 W/m 12,1 C 20,1 C 24,1 km/h (4 Bft) 100,00 %
17.05.2017 12:52 21,9 C 21,7 C 57 % 1021,8 hPa 0,0 l/m 15,9 km/h (3 Bft) N-NO 24 2 min 0,000 mm 6,3 UV-I 887 W/m 13,0 C 19,4 C 24,1 km/h (4 Bft) 95,71 %
17.05.2017 12:54 21,8 C 21,7 C 54 % 1021,9 hPa 0,0 l/m 17,1 km/h (3 Bft) NO 55 2 min 0,000 mm 6,3 UV-I 892 W/m 12,1 C 19,0 C 22,5 km/h (4 Bft) 100,00 %
17.05.2017 12:56 21,9 C 21,7 C 57 % 1021,8 hPa 0,0 l/m 11,7 km/h (2 Bft) O-NO 57 2 min 0,000 mm 6,3 UV-I 896 W/m 13,0 C 20,3 C 17,7 km/h (3 Bft) 97,87 %
17.05.2017 12:58 22,0 C 21,7 C 53 % 1021,8 hPa 0,0 l/m 13,4 km/h (3 Bft) O-NO 71 2 min 0,000 mm 6,3 UV-I 897 W/m 12,0 C 20,0 C 19,3 km/h (3 Bft) 91,30 %
17.05.2017 13:00 22,1 C 21,7 C 53 % 1021,8 hPa 0,0 l/m 12,0 km/h (2 Bft) NO 43 2 min 0,609 mm 6,3 UV-I 895 W/m 12,1 C 20,4 C 16,1 km/h (3 Bft) 97,22 %
17.05.2017 13:02 22,2 C 21,7 C 53 % 1021,8 hPa 0,0 l/m 9,1 km/h (2 Bft) NO 35 2 min 0,000 mm 6,3 UV-I 893 W/m 12,2 C 21,3 C 17,7 km/h (3 Bft) 100,00 %
17.05.2017 13:04 22,3 C 21,7 C 52 % 1021,7 hPa 0,0 l/m 15,3 km/h (3 Bft) N-NO 24 2 min 0,000 mm 6,3 UV-I 890 W/m 12,0 C 20,0 C 27,4 km/h (4 Bft) 100,00 %
17.05.2017 13:06 22,1 C 21,7 C 51 % 1021,7 hPa 0,0 l/m 12,2 km/h (2 Bft) O 82 2 min 0,000 mm 6,3 UV-I 891 W/m 11,5 C 20,4 C 22,5 km/h (4 Bft) 95,74 %
17.05.2017 13:08 21,9 C 21,7 C 53 % 1021,6 hPa 0,0 l/m 15,9 km/h (3 Bft) NO 52 2 min 0,000 mm 6,3 UV-I 894 W/m 11,9 C 19,4 C 22,5 km/h (4 Bft) 100,00 %
17.05.2017 13:10 21,9 C 21,7 C 48 % 1021,6 hPa 0,0 l/m 14,2 km/h (3 Bft) O 81 2 min 0,000 mm 6,3 UV-I 882 W/m 10,4 C 19,7 C 19,3 km/h (3 Bft) 95,45 %
17.05.2017 13:12 22,0 C 21,7 C 49 % 1021,6 hPa 0,0 l/m 14,4 km/h (3 Bft) NO 42 2 min 0,000 mm 6,3 UV-I 879 W/m 10,8 C 19,8 C 17,7 km/h (3 Bft) 98,21 %
17.05.2017 13:14 22,1 C 22,2 C 50 % 1021,6 hPa 0,0 l/m 13,1 km/h (3 Bft) O-NO 62 2 min 0,000 mm 6,3 UV-I 887 W/m 11,2 C 20,2 C 20,9 km/h (4 Bft) 98,00 %
17.05.2017 13:16 22,1 C 22,2 C 49 % 1021,6 hPa 0,0 l/m 17,3 km/h (3 Bft) O-NO 59 2 min 0,000 mm 6,3 UV-I 886 W/m 10,9 C 19,4 C 29,0 km/h (5 Bft) 97,56 %
17.05.2017 13:18 22,1 C 22,2 C 50 % 1021,6 hPa 0,0 l/m 19,4 km/h (3 Bft) NO 55 2 min 0,000 mm 6,3 UV-I 883 W/m 11,2 C 19,0 C 27,4 km/h (4 Bft) 97,87 %
17.05.2017 13:20 22,1 C 22,2 C 48 % 1021,6 hPa 0,0 l/m 16,4 km/h (3 Bft) O-NO 61 2 min 0,000 mm 6,3 UV-I 887 W/m 10,6 C 19,5 C 22,5 km/h (4 Bft) 93,62 %
17.05.2017 13:22 22,1 C 22,2 C 48 % 1021,5 hPa 0,0 l/m 14,5 km/h (3 Bft) NO 47 2 min 0,000 mm 6,3 UV-I 890 W/m 10,6 C 19,9 C 17,7 km/h (3 Bft) 97,44 %
17.05.2017 13:24 22,2 C 22,2 C 47 % 1021,5 hPa 0,0 l/m 12,4 km/h (3 Bft) O-NO 63 2 min 0,000 mm 6,3 UV-I 886 W/m 10,3 C 20,5 C 20,9 km/h (4 Bft) 100,00 %
17.05.2017 13:26 22,3 C 22,2 C 53 % 1021,5 hPa 0,0 l/m 16,2 km/h (3 Bft) NO 43 2 min 0,000 mm 6,3 UV-I 885 W/m 12,2 C 19,8 C 22,5 km/h (4 Bft) 97,73 %
17.05.2017 13:28 22,3 C 22,2 C 48 % 1021,5 hPa 0,0 l/m 19,1 km/h (3 Bft) NO 42 2 min 0,000 mm 6,3 UV-I 882 W/m 10,8 C 19,3 C 25,7 km/h (4 Bft) 93,10 %
17.05.2017 13:30 22,3 C 22,2 C 51 % 1021,4 hPa 0,0 l/m 19,0 km/h (3 Bft) NO 45 2 min 0,000 mm 6,3 UV-I 885 W/m 11,7 C 19,3 C 25,7 km/h (4 Bft) 100,00 %
17.05.2017 13:32 22,3 C 22,2 C 50 % 1021,4 hPa 0,0 l/m 18,7 km/h (3 Bft) NO 39 2 min 0,000 mm 6,3 UV-I 889 W/m 11,4 C 19,4 C 24,1 km/h (4 Bft) 100,00 %
17.05.2017 13:34 22,3 C 22,2 C 45 % 1021,4 hPa 0,0 l/m 17,4 km/h (3 Bft) O-NO 61 2 min 0,000 mm 6,3 UV-I 888 W/m 9,8 C 19,6 C 25,7 km/h (4 Bft) 98,21 %
17.05.2017 13:36 22,4 C 22,2 C 49 % 1021,3 hPa 0,0 l/m 15,2 km/h (3 Bft) NO 38 2 min 0,000 mm 6,3 UV-I 887 W/m 11,2 C 20,1 C 20,9 km/h (4 Bft) 100,00 %
17.05.2017 13:38 22,5 C 22,2 C 51 % 1021,3 hPa 0,0 l/m 15,4 km/h (3 Bft) O-NO 67 2 min 0,000 mm 6,3 UV-I 888 W/m 11,8 C 20,2 C 22,5 km/h (4 Bft) 95,12 %
17.05.2017 13:40 22,5 C 22,2 C 46 % 1021,3 hPa 0,0 l/m 17,9 km/h (3 Bft) NO 46 2 min 0,000 mm 6,3 UV-I 883 W/m 10,3 C 19,8 C 27,4 km/h (4 Bft) 98,11 %
17.05.2017 13:42 22,5 C 22,2 C 47 % 1021,3 hPa 0,0 l/m 13,1 km/h (3 Bft) N 5 2 min 0,000 mm 6,2 UV-I 876 W/m 10,6 C 20,7 C 17,7 km/h (3 Bft) 95,45 %
17.05.2017 13:44 22,6 C 22,2 C 52 % 1021,3 hPa 0,0 l/m 13,7 km/h (3 Bft) O 80 2 min 0,000 mm 6,2 UV-I 883 W/m 12,2 C 20,7 C 22,5 km/h (4 Bft) 98,11 %
17.05.2017 13:46 22,6 C 22,2 C 48 % 1021,3 hPa 0,0 l/m 12,7 km/h (3 Bft) O-NO 73 2 min 0,000 mm 6,2 UV-I 879 W/m 11,0 C 20,9 C 17,7 km/h (3 Bft) 97,14 %
17.05.2017 13:48 22,7 C 22,2 C 46 % 1021,3 hPa 0,0 l/m 14,2 km/h (3 Bft) NO 51 2 min 0,000 mm 6,2 UV-I 881 W/m 10,5 C 20,7 C 20,9 km/h (4 Bft) 95,12 %
17.05.2017 13:50 22,7 C 22,2 C 45 % 1021,3 hPa 0,0 l/m 20,5 km/h (4 Bft) O-NO 69 2 min 0,000 mm 6,1 UV-I 880 W/m 10,1 C 19,6 C 25,7 km/h (4 Bft) 100,00 %
17.05.2017 13:52 22,7 C 22,2 C 46 % 1021,3 hPa 0,0 l/m 14,2 km/h (3 Bft) O-NO 59 2 min 0,000 mm 6,1 UV-I 875 W/m 10,5 C 20,7 C 20,9 km/h (4 Bft) 95,45 %
17.05.2017 13:54 22,6 C 22,2 C 45 % 1021,2 hPa 0,0 l/m 16,1 km/h (3 Bft) NO 47 2 min 0,000 mm 6,1 UV-I 874 W/m 10,1 C 20,2 C 20,9 km/h (4 Bft) 100,00 %
17.05.2017 13:56 22,6 C 22,2 C 49 % 1021,2 hPa 0,0 l/m 15,1 km/h (3 Bft) O-NO 71 2 min 0,000 mm 6,1 UV-I 874 W/m 11,3 C 20,4 C 24,1 km/h (4 Bft) 97,01 %
17.05.2017 13:58 22,6 C 22,2 C 49 % 1021,2 hPa 0,0 l/m 13,8 km/h (3 Bft) N-NO 21 2 min 0,000 mm 6,1 UV-I 872 W/m 11,3 C 20,6 C 17,7 km/h (3 Bft) 100,00 %
17.05.2017 14:00 22,6 C 22,2 C 49 % 1021,1 hPa 0,0 l/m 13,3 km/h (3 Bft) NO 45 2 min 0,635 mm 6,0 UV-I 870 W/m 11,3 C 20,7 C 20,9 km/h (4 Bft) 94,64 %
17.05.2017 14:02 22,8 C 22,2 C 50 % 1021,1 hPa 0,0 l/m 18,9 km/h (3 Bft) NO 41 2 min 0,000 mm 6,0 UV-I 868 W/m 11,8 C 20,0 C 32,2 km/h (5 Bft) 97,87 %
17.05.2017 14:04 22,7 C 22,2 C 50 % 1021,2 hPa 0,0 l/m 20,0 km/h (4 Bft) N-NO 25 2 min 0,000 mm 6,0 UV-I 870 W/m 11,7 C 19,7 C 32,2 km/h (5 Bft) 100,00 %
17.05.2017 14:06 22,7 C 22,2 C 47 % 1021,2 hPa 0,0 l/m 14,3 km/h (3 Bft) NO 49 2 min 0,000 mm 5,9 UV-I 867 W/m 10,8 C 20,7 C 22,5 km/h (4 Bft) 100,00 %
17.05.2017 14:08 22,8 C 22,2 C 51 % 1021,1 hPa 0,0 l/m 17,0 km/h (3 Bft) NO 38 2 min 0,000 mm 5,9 UV-I 864 W/m 12,1 C 20,3 C 25,7 km/h (4 Bft) 95,74 %
17.05.2017 14:10 22,8 C 22,2 C 47 % 1021,1 hPa 0,0 l/m 19,6 km/h (3 Bft) O-NO 66 2 min 0,000 mm 5,9 UV-I 864 W/m 10,9 C 19,9 C 29,0 km/h (5 Bft) 89,36 %
17.05.2017 14:12 22,8 C 22,2 C 47 % 1021,1 hPa 0,0 l/m 14,5 km/h (3 Bft) N-NO 23 2 min 0,000 mm 5,8 UV-I 859 W/m 10,9 C 20,7 C 20,9 km/h (4 Bft) 94,34 %
17.05.2017 14:14 22,8 C 22,2 C 50 % 1021,0 hPa 0,0 l/m 18,5 km/h (3 Bft) O-NO 61 2 min 0,000 mm 5,8 UV-I 858 W/m 11,8 C 20,0 C 25,7 km/h (4 Bft) 93,62 %
17.05.2017 14:16 22,8 C 22,2 C 46 % 1021,0 hPa 0,0 l/m 14,8 km/h (3 Bft) NO 41 2 min 0,000 mm 5,8 UV-I 855 W/m 10,6 C 20,7 C 25,7 km/h (4 Bft) 95,74 %
17.05.2017 14:18 22,8 C 22,2 C 50 % 1021,0 hPa 0,0 l/m 17,0 km/h (3 Bft) NO 48 2 min 0,000 mm 5,8 UV-I 853 W/m 11,8 C 20,3 C 32,2 km/h (5 Bft) 97,37 %
17.05.2017 14:20 22,9 C 22,2 C 45 % 1021,0 hPa 0,0 l/m 20,2 km/h (4 Bft) NO 43 2 min 0,000 mm 5,7 UV-I 850 W/m 10,3 C 19,9 C 27,4 km/h (4 Bft) 93,18 %
17.05.2017 14:22 22,9 C 22,2 C 47 % 1020,9 hPa 0,0 l/m 15,5 km/h (3 Bft) NO 44 2 min 0,000 mm 5,7 UV-I 849 W/m 11,0 C 20,7 C 22,5 km/h (4 Bft) 90,91 %
17.05.2017 14:24 22,9 C 22,2 C 45 % 1020,9 hPa 0,0 l/m 16,6 km/h (3 Bft) N-NO 31 2 min 0,000 mm 5,7 UV-I 843 W/m 10,3 C 20,5 C 22,5 km/h (4 Bft) 95,16 %
17.05.2017 14:26 23,0 C 22,2 C 50 % 1020,9 hPa 0,0 l/m 11,9 km/h (2 Bft) O-NO 58 2 min 0,000 mm 5,6 UV-I 837 W/m 12,0 C 21,5 C 19,3 km/h (3 Bft) 94,44 %
17.05.2017 14:28 23,0 C 22,2 C 47 % 1020,8 hPa 0,0 l/m 16,6 km/h (3 Bft) NO 46 2 min 0,000 mm 5,6 UV-I 836 W/m 11,1 C 20,6 C 24,1 km/h (4 Bft) 90,41 %
17.05.2017 14:30 22,9 C 22,2 C 49 % 1020,8 hPa 0,0 l/m 10,6 km/h (2 Bft) N-NO 24 2 min 0,000 mm 5,5 UV-I 835 W/m 11,6 C 21,7 C 16,1 km/h (3 Bft) 95,74 %
17.05.2017 14:32 23,0 C 22,2 C 52 % 1020,8 hPa 0,0 l/m 17,1 km/h (3 Bft) NO 46 2 min 0,000 mm 5,5 UV-I 831 W/m 12,6 C 20,5 C 24,1 km/h (4 Bft) 93,62 %
17.05.2017 14:34 23,1 C 22,2 C 49 % 1020,8 hPa 0,0 l/m 17,4 km/h (3 Bft) NO 36 2 min 0,000 mm 5,5 UV-I 828 W/m 11,8 C 20,6 C 22,5 km/h (4 Bft) 95,12 %
17.05.2017 14:36 23,1 C 22,2 C 48 % 1020,8 hPa 0,0 l/m 20,9 km/h (4 Bft) O-NO 68 2 min 0,000 mm 5,4 UV-I 826 W/m 11,5 C 20,1 C 30,6 km/h (5 Bft) 92,86 %
17.05.2017 14:38 22,9 C 22,2 C 44 % 1020,7 hPa 0,0 l/m 20,0 km/h (4 Bft) O-NO 74 2 min 0,000 mm 5,3 UV-I 822 W/m 10,0 C 20,0 C 27,4 km/h (4 Bft) 93,10 %
17.05.2017 14:40 22,9 C 22,2 C 46 % 1020,7 hPa 0,0 l/m 18,4 km/h (3 Bft) O-NO 65 2 min 0,000 mm 5,3 UV-I 822 W/m 10,7 C 20,2 C 30,6 km/h (5 Bft) 97,44 %
17.05.2017 14:42 22,9 C 22,2 C 49 % 1020,7 hPa 0,0 l/m 19,0 km/h (3 Bft) O-NO 57 2 min 0,000 mm 5,3 UV-I 820 W/m 11,6 C 20,1 C 32,2 km/h (5 Bft) 95,74 %
17.05.2017 14:44 22,9 C 22,2 C 50 % 1020,7 hPa 0,0 l/m 17,9 km/h (3 Bft) NO 42 2 min 0,000 mm 5,3 UV-I 814 W/m 11,9 C 20,3 C 27,4 km/h (4 Bft) 95,74 %
17.05.2017 14:46 22,9 C 22,2 C 45 % 1020,6 hPa 0,0 l/m 20,2 km/h (4 Bft) NO 55 2 min 0,000 mm 5,2 UV-I 808 W/m 10,3 C 19,9 C 27,4 km/h (4 Bft) 97,56 %
17.05.2017 14:48 22,9 C 22,2 C 48 % 1020,6 hPa 0,0 l/m 18,2 km/h (3 Bft) NO 52 2 min 0,000 mm 5,1 UV-I 806 W/m 11,3 C 20,2 C 25,7 km/h (4 Bft) 98,21 %
17.05.2017 14:50 22,9 C 22,2 C 45 % 1020,6 hPa 0,0 l/m 17,6 km/h (3 Bft) NO 50 2 min 0,000 mm 5,1 UV-I 802 W/m 10,3 C 20,3 C 24,1 km/h (4 Bft) 92,00 %
17.05.2017 14:52 22,9 C 22,2 C 50 % 1020,5 hPa 0,0 l/m 19,4 km/h (3 Bft) NO 40 2 min 0,000 mm 5,1 UV-I 802 W/m 11,9 C 20,0 C 25,7 km/h (4 Bft) 94,74 %
17.05.2017 14:54 23,0 C 22,2 C 47 % 1020,6 hPa 0,0 l/m 17,6 km/h (3 Bft) O-NO 63 2 min 0,000 mm 5,0 UV-I 801 W/m 11,1 C 20,4 C 24,1 km/h (4 Bft) 95,74 %
17.05.2017 14:56 23,0 C 22,2 C 44 % 1020,6 hPa 0,0 l/m 19,7 km/h (3 Bft) O-NO 58 2 min 0,000 mm 5,0 UV-I 801 W/m 10,1 C 20,1 C 25,7 km/h (4 Bft) 98,11 %
17.05.2017 14:58 22,9 C 22,2 C 45 % 1020,5 hPa 0,0 l/m 18,3 km/h (3 Bft) O-NO 59 2 min 0,000 mm 4,9 UV-I 799 W/m 10,3 C 20,2 C 22,5 km/h (4 Bft) 92,45 %
17.05.2017 15:00 22,9 C 22,2 C 47 % 1020,5 hPa 0,0 l/m 11,5 km/h (2 Bft) NO 44 2 min 0,635 mm 4,9 UV-I 790 W/m 11,0 C 21,5 C 17,7 km/h (3 Bft) 100,00 %
17.05.2017 15:02 23,1 C 22,2 C 48 % 1020,5 hPa 0,0 l/m 16,5 km/h (3 Bft) NO 46 2 min 0,000 mm 4,9 UV-I 787 W/m 11,5 C 20,7 C 20,9 km/h (4 Bft) 92,68 %
17.05.2017 15:04 23,1 C 22,2 C 49 % 1020,4 hPa 0,0 l/m 13,8 km/h (3 Bft) O-NO 58 2 min 0,000 mm 4,8 UV-I 782 W/m 11,8 C 21,2 C 24,1 km/h (4 Bft) 95,74 %
17.05.2017 15:06 23,1 C 22,2 C 45 % 1020,4 hPa 0,0 l/m 19,8 km/h (3 Bft) O-NO 71 2 min 0,000 mm 4,8 UV-I 781 W/m 10,5 C 20,2 C 25,7 km/h (4 Bft) 96,23 %
17.05.2017 15:08 23,1 C 22,2 C 50 % 1020,3 hPa 0,0 l/m 21,6 km/h (4 Bft) N-NO 26 2 min 0,000 mm 4,7 UV-I 778 W/m 12,1 C 20,0 C 38,6 km/h (5 Bft) 97,56 %
17.05.2017 15:10 22,8 C 22,2 C 49 % 1020,3 hPa 0,0 l/m 19,1 km/h (3 Bft) NO 51 2 min 0,000 mm 4,7 UV-I 773 W/m 11,5 C 20,0 C 30,6 km/h (5 Bft) 98,00 %
17.05.2017 15:12 22,9 C 22,2 C 51 % 1020,2 hPa 0,0 l/m 16,5 km/h (3 Bft) NO 46 2 min 0,000 mm 4,6 UV-I 773 W/m 12,2 C 20,5 C 22,5 km/h (4 Bft) 94,00 %
17.05.2017 15:14 22,9 C 22,2 C 48 % 1020,2 hPa 0,0 l/m 18,3 km/h (3 Bft) O-NO 72 2 min 0,000 mm 4,6 UV-I 767 W/m 11,3 C 20,2 C 25,7 km/h (4 Bft) 96,30 %
17.05.2017 15:16 23,1 C 22,8 C 48 % 1020,1 hPa 0,0 l/m 17,0 km/h (3 Bft) NO 55 2 min 0,000 mm 4,5 UV-I 764 W/m 11,5 C 20,7 C 25,7 km/h (4 Bft) 96,88 %
17.05.2017 15:18 23,1 C 22,8 C 51 % 1020,1 hPa 0,0 l/m 14,3 km/h (3 Bft) NO 48 2 min 0,000 mm 4,5 UV-I 761 W/m 12,4 C 21,1 C 22,5 km/h (4 Bft) 95,74 %
17.05.2017 15:20 23,2 C 22,8 C 49 % 1020,0 hPa 0,0 l/m 13,2 km/h (3 Bft) NO 40 2 min 0,000 mm 4,5 UV-I 756 W/m 11,9 C 21,5 C 22,5 km/h (4 Bft) 95,24 %
17.05.2017 15:22 23,3 C 22,8 C 49 % 1020,0 hPa 0,0 l/m 16,8 km/h (3 Bft) NO 45 2 min 0,000 mm 4,4 UV-I 751 W/m 12,0 C 20,9 C 25,7 km/h (4 Bft) 94,83 %
17.05.2017 15:24 23,2 C 22,8 C 48 % 1020,0 hPa 0,0 l/m 17,4 km/h (3 Bft) N-NO 25 2 min 0,000 mm 4,3 UV-I 743 W/m 11,6 C 20,7 C 27,4 km/h (4 Bft) 97,78 %
17.05.2017 15:26 23,1 C 22,8 C 48 % 1019,9 hPa 0,0 l/m 16,4 km/h (3 Bft) NO 55 2 min 0,000 mm 4,3 UV-I 740 W/m 11,5 C 20,8 C 20,9 km/h (4 Bft) 100,00 %
17.05.2017 15:28 23,1 C 22,8 C 48 % 1019,9 hPa 0,0 l/m 15,6 km/h (3 Bft) NO 53 2 min 0,000 mm 4,2 UV-I 736 W/m 11,5 C 20,9 C 24,1 km/h (4 Bft) 98,00 %
17.05.2017 15:30 23,2 C 22,8 C 50 % 1019,9 hPa 0,0 l/m 11,1 km/h (2 Bft) O-NO 66 2 min 0,000 mm 4,2 UV-I 737 W/m 12,2 C 21,9 C 16,1 km/h (3 Bft) 100,00 %
17.05.2017 15:32 23,2 C 22,8 C 51 % 1019,9 hPa 0,0 l/m 13,2 km/h (3 Bft) O-NO 67 2 min 0,000 mm 4,2 UV-I 731 W/m 12,5 C 21,5 C 22,5 km/h (4 Bft) 95,12 %
17.05.2017 15:34 23,3 C 22,8 C 47 % 1019,8 hPa 0,0 l/m 22,6 km/h (4 Bft) NO 50 2 min 0,000 mm 4,1 UV-I 723 W/m 11,3 C 20,1 C 30,6 km/h (5 Bft) 97,87 %
17.05.2017 15:36 23,1 C 22,8 C 49 % 1019,8 hPa 0,0 l/m 19,0 km/h (3 Bft) NO 46 2 min 0,000 mm 4,0 UV-I 721 W/m 11,8 C 20,4 C 27,4 km/h (4 Bft) 97,87 %
17.05.2017 15:38 23,1 C 22,8 C 47 % 1019,8 hPa 0,0 l/m 21,0 km/h (4 Bft) O-NO 64 2 min 0,000 mm 4,0 UV-I 723 W/m 11,2 C 20,1 C 27,4 km/h (4 Bft) 100,00 %
17.05.2017 15:40 23,0 C 22,8 C 46 % 1019,8 hPa 0,0 l/m 19,2 km/h (3 Bft) O-NO 61 2 min 0,000 mm 4,0 UV-I 719 W/m 10,7 C 20,2 C 29,0 km/h (5 Bft) 100,00 %
17.05.2017 15:42 23,0 C 22,8 C 49 % 1019,8 hPa 0,0 l/m 21,5 km/h (4 Bft) NO 51 2 min 0,000 mm 3,9 UV-I 714 W/m 11,7 C 19,9 C 33,8 km/h (5 Bft) 100,00 %
17.05.2017 15:44 22,9 C 22,8 C 48 % 1019,7 hPa 0,0 l/m 16,4 km/h (3 Bft) NO 38 2 min 0,000 mm 3,9 UV-I 708 W/m 11,3 C 20,5 C 25,7 km/h (4 Bft) 100,00 %
17.05.2017 15:46 23,1 C 22,8 C 51 % 1019,7 hPa 0,0 l/m 12,9 km/h (3 Bft) NO 50 2 min 0,000 mm 3,8 UV-I 705 W/m 12,4 C 21,4 C 19,3 km/h (3 Bft) 100,00 %
17.05.2017 15:48 23,0 C 22,8 C 49 % 1019,6 hPa 0,0 l/m 18,2 km/h (3 Bft) NO 48 2 min 0,000 mm 3,8 UV-I 698 W/m 11,7 C 20,3 C 27,4 km/h (4 Bft) 98,11 %
17.05.2017 15:50 22,9 C 22,8 C 48 % 1019,6 hPa 0,0 l/m 21,2 km/h (4 Bft) NO 54 2 min 0,000 mm 3,7 UV-I 694 W/m 11,3 C 19,8 C 32,2 km/h (5 Bft) 95,12 %
17.05.2017 15:52 22,8 C 22,8 C 47 % 1019,6 hPa 0,0 l/m 19,1 km/h (3 Bft) O-NO 59 2 min 0,000 mm 3,7 UV-I 689 W/m 10,9 C 20,0 C 24,1 km/h (4 Bft) 98,31 %
17.05.2017 15:54 22,8 C 22,8 C 46 % 1019,6 hPa 0,0 l/m 21,8 km/h (4 Bft) O-NO 61 2 min 0,000 mm 3,6 UV-I 685 W/m 10,6 C 19,6 C 27,4 km/h (4 Bft) 100,00 %
17.05.2017 15:56 22,8 C 22,8 C 47 % 1019,5 hPa 0,0 l/m 17,8 km/h (3 Bft) O-NO 71 2 min 0,000 mm 3,6 UV-I 680 W/m 10,9 C 20,2 C 25,7 km/h (4 Bft) 100,00 %
17.05.2017 15:58 22,7 C 22,8 C 46 % 1019,5 hPa 0,0 l/m 21,6 km/h (4 Bft) N-NO 25 2 min 0,000 mm 3,5 UV-I 677 W/m 10,5 C 19,5 C 27,4 km/h (4 Bft) 100,00 %
17.05.2017 16:00 22,7 C 22,8 C 48 % 1019,5 hPa 0,0 l/m 16,5 km/h (3 Bft) NO 38 2 min 0,585 mm 3,5 UV-I 670 W/m 11,1 C 20,2 C 24,1 km/h (4 Bft) 100,00 %
17.05.2017 16:02 22,8 C 22,8 C 48 % 1019,5 hPa 0,0 l/m 21,2 km/h (4 Bft) N-NO 26 2 min 0,000 mm 3,4 UV-I 663 W/m 11,2 C 19,7 C 32,2 km/h (5 Bft) 97,56 %
17.05.2017 16:04 22,8 C 22,8 C 49 % 1019,6 hPa 0,0 l/m 18,1 km/h (3 Bft) NO 48 2 min 0,000 mm 3,4 UV-I 661 W/m 11,5 C 20,1 C 27,4 km/h (4 Bft) 96,00 %
17.05.2017 16:06 22,8 C 22,8 C 46 % 1019,6 hPa 0,0 l/m 17,7 km/h (3 Bft) O-NO 71 2 min 0,000 mm 3,3 UV-I 656 W/m 10,6 C 20,2 C 25,7 km/h (4 Bft) 98,11 %
17.05.2017 16:08 22,8 C 22,8 C 46 % 1019,5 hPa 0,0 l/m 19,0 km/h (3 Bft) O-NO 73 2 min 0,000 mm 3,3 UV-I 654 W/m 10,6 C 20,0 C 29,0 km/h (5 Bft) 94,74 %
17.05.2017 16:10 22,9 C 22,8 C 47 % 1019,5 hPa 0,0 l/m 19,1 km/h (3 Bft) NO 40 2 min 0,000 mm 3,2 UV-I 649 W/m 11,0 C 20,1 C 27,4 km/h (4 Bft) 96,00 %
17.05.2017 16:12 22,8 C 22,8 C 49 % 1019,5 hPa 0,0 l/m 15,8 km/h (3 Bft) NO 36 2 min 0,000 mm 3,2 UV-I 642 W/m 11,5 C 20,5 C 25,7 km/h (4 Bft) 94,00 %
17.05.2017 16:14 22,9 C 22,8 C 45 % 1019,5 hPa 0,0 l/m 19,1 km/h (3 Bft) O-NO 59 2 min 0,000 mm 3,1 UV-I 636 W/m 10,3 C 20,1 C 27,4 km/h (4 Bft) 95,74 %
17.05.2017 16:16 22,9 C 22,8 C 48 % 1019,5 hPa 0,0 l/m 12,6 km/h (3 Bft) O-NO 58 2 min 0,000 mm 3,1 UV-I 634 W/m 11,3 C 21,2 C 20,9 km/h (4 Bft) 95,12 %
17.05.2017 16:18 22,9 C 22,8 C 47 % 1019,5 hPa 0,0 l/m 19,1 km/h (3 Bft) O-NO 71 2 min 0,000 mm 3,0 UV-I 628 W/m 11,0 C 20,1 C 25,7 km/h (4 Bft) 98,00 %
17.05.2017 16:20 22,9 C 22,8 C 47 % 1019,4 hPa 0,0 l/m 18,5 km/h (3 Bft) NO 53 2 min 0,000 mm 3,0 UV-I 616 W/m 11,0 C 20,2 C 29,0 km/h (5 Bft) 97,56 %
17.05.2017 16:22 22,8 C 22,8 C 46 % 1019,4 hPa 0,0 l/m 17,1 km/h (3 Bft) NO 53 2 min 0,000 mm 2,9 UV-I 605 W/m 10,6 C 20,3 C 24,1 km/h (4 Bft) 96,61 %
17.05.2017 16:24 22,8 C 22,8 C 49 % 1019,3 hPa 0,0 l/m 13,1 km/h (3 Bft) NO 42 2 min 0,000 mm 2,9 UV-I 613 W/m 11,5 C 21,0 C 19,3 km/h (3 Bft) 94,74 %
17.05.2017 16:26 22,8 C 22,8 C 49 % 1019,3 hPa 0,0 l/m 20,6 km/h (4 Bft) NO 46 2 min 0,000 mm 2,9 UV-I 609 W/m 11,5 C 19,7 C 30,6 km/h (5 Bft) 94,87 %
17.05.2017 16:28 22,7 C 22,8 C 49 % 1019,3 hPa 0,0 l/m 23,7 km/h (4 Bft) NO 40 2 min 0,000 mm 2,8 UV-I 605 W/m 11,4 C 19,2 C 29,0 km/h (5 Bft) 92,73 %
17.05.2017 16:30 22,7 C 22,8 C 47 % 1019,3 hPa 0,0 l/m 15,4 km/h (3 Bft) O-NO 62 2 min 0,000 mm 2,7 UV-I 598 W/m 10,8 C 20,4 C 25,7 km/h (4 Bft) 93,62 %
17.05.2017 16:32 22,7 C 22,8 C 48 % 1019,2 hPa 0,0 l/m 19,1 km/h (3 Bft) O-NO 63 2 min 0,000 mm 2,7 UV-I 592 W/m 11,1 C 19,8 C 29,0 km/h (5 Bft) 96,00 %
17.05.2017 16:34 22,7 C 22,8 C 46 % 1019,2 hPa 0,0 l/m 18,7 km/h (3 Bft) NO 55 2 min 0,000 mm 2,6 UV-I 586 W/m 10,5 C 19,9 C 29,0 km/h (5 Bft) 95,74 %
17.05.2017 16:36 22,7 C 22,8 C 46 % 1019,1 hPa 0,0 l/m 16,9 km/h (3 Bft) NO 41 2 min 0,000 mm 2,6 UV-I 581 W/m 10,5 C 20,2 C 24,1 km/h (4 Bft) 95,24 %
17.05.2017 16:38 22,7 C 22,8 C 48 % 1019,2 hPa 0,0 l/m 20,0 km/h (4 Bft) NO 46 2 min 0,000 mm 2,5 UV-I 572 W/m 11,1 C 19,7 C 25,7 km/h (4 Bft) 96,00 %
17.05.2017 16:40 22,7 C 22,8 C 47 % 1019,1 hPa 0,0 l/m 18,8 km/h (3 Bft) NO 51 2 min 0,000 mm 2,5 UV-I 568 W/m 10,8 C 19,9 C 27,4 km/h (4 Bft) 94,23 %
17.05.2017 16:42 22,8 C 22,8 C 49 % 1019,0 hPa 0,0 l/m 20,8 km/h (4 Bft) NO 47 2 min 0,000 mm 2,5 UV-I 567 W/m 11,5 C 19,7 C 27,4 km/h (4 Bft) 94,87 %
17.05.2017 16:44 22,7 C 22,8 C 50 % 1019,0 hPa 0,0 l/m 21,4 km/h (4 Bft) NO 36 2 min 0,000 mm 2,4 UV-I 560 W/m 11,7 C 19,5 C 30,6 km/h (5 Bft) 100,00 %
17.05.2017 16:46 22,7 C 22,8 C 48 % 1019,0 hPa 0,0 l/m 17,4 km/h (3 Bft) O-NO 63 2 min 0,000 mm 2,3 UV-I 552 W/m 11,1 C 20,1 C 24,1 km/h (4 Bft) 100,00 %
17.05.2017 16:48 22,7 C 22,8 C 46 % 1019,1 hPa 0,0 l/m 21,0 km/h (4 Bft) O-NO 61 2 min 0,000 mm 2,3 UV-I 548 W/m 10,5 C 19,6 C 29,0 km/h (5 Bft) 95,45 %
17.05.2017 16:50 22,7 C 22,8 C 47 % 1018,9 hPa 0,0 l/m 17,0 km/h (3 Bft) NO 52 2 min 0,000 mm 2,2 UV-I 541 W/m 10,8 C 20,2 C 24,1 km/h (4 Bft) 94,34 %
17.05.2017 16:52 22,6 C 22,8 C 49 % 1018,9 hPa 0,0 l/m 19,8 km/h (3 Bft) NO 40 2 min 0,000 mm 2,2 UV-I 532 W/m 11,3 C 19,6 C 29,0 km/h (5 Bft) 95,12 %
17.05.2017 16:54 22,7 C 22,8 C 50 % 1019,0 hPa 0,0 l/m 16,5 km/h (3 Bft) O-NO 62 2 min 0,000 mm 2,2 UV-I 529 W/m 11,7 C 20,2 C 25,7 km/h (4 Bft) 98,00 %
17.05.2017 16:56 22,7 C 22,8 C 49 % 1018,8 hPa 0,0 l/m 22,1 km/h (4 Bft) NO 38 2 min 0,000 mm 2,1 UV-I 524 W/m 11,4 C 19,4 C 32,2 km/h (5 Bft) 100,00 %
17.05.2017 16:58 22,6 C 22,8 C 50 % 1018,8 hPa 0,0 l/m 17,7 km/h (3 Bft) NO 39 2 min 0,000 mm 2,1 UV-I 517 W/m 11,6 C 19,9 C 30,6 km/h (5 Bft) 96,43 %
17.05.2017 17:00 22,6 C 22,8 C 50 % 1018,8 hPa 0,0 l/m 19,8 km/h (3 Bft) N-NO 15 2 min 0,508 mm 2,1 UV-I 512 W/m 11,6 C 19,6 C 29,0 km/h (5 Bft) 95,12 %
17.05.2017 17:02 22,6 C 22,8 C 51 % 1018,8 hPa 0,0 l/m 22,2 km/h (4 Bft) NO 51 2 min 0,000 mm 2,0 UV-I 509 W/m 11,9 C 19,3 C 35,4 km/h (5 Bft) 98,11 %
17.05.2017 17:04 22,6 C 22,8 C 48 % 1018,8 hPa 0,0 l/m 20,1 km/h (4 Bft) NO 50 2 min 0,000 mm 2,0 UV-I 506 W/m 11,0 C 19,5 C 30,6 km/h (5 Bft) 100,00 %
17.05.2017 17:06 22,6 C 22,8 C 49 % 1018,8 hPa 0,0 l/m 21,9 km/h (4 Bft) O-NO 59 2 min 0,000 mm 1,9 UV-I 498 W/m 11,3 C 19,3 C 29,0 km/h (5 Bft) 98,00 %
17.05.2017 17:08 22,6 C 22,8 C 49 % 1018,8 hPa 0,0 l/m 16,8 km/h (3 Bft) NO 47 2 min 0,000 mm 1,9 UV-I 493 W/m 11,3 C 20,1 C 29,0 km/h (5 Bft) 94,74 %
17.05.2017 17:10 22,6 C 22,8 C 48 % 1018,8 hPa 0,0 l/m 21,6 km/h (4 Bft) O-NO 78 2 min 0,000 mm 1,9 UV-I 489 W/m 11,0 C 19,3 C 32,2 km/h (5 Bft) 96,43 %
17.05.2017 17:12 22,5 C 22,8 C 48 % 1018,7 hPa 0,0 l/m 19,2 km/h (3 Bft) NO 49 2 min 0,000 mm 1,8 UV-I 482 W/m 10,9 C 19,6 C 27,4 km/h (4 Bft) 97,56 %
17.05.2017 17:14 22,5 C 22,8 C 47 % 1018,7 hPa 0,0 l/m 22,2 km/h (4 Bft) O-NO 57 2 min 0,000 mm 1,8 UV-I 476 W/m 10,6 C 19,1 C 29,0 km/h (5 Bft) 97,87 %
17.05.2017 17:16 22,5 C 22,8 C 47 % 1018,6 hPa 0,0 l/m 19,4 km/h (3 Bft) NO 50 2 min 0,000 mm 1,7 UV-I 470 W/m 10,6 C 19,5 C 24,1 km/h (4 Bft) 97,62 %
17.05.2017 17:18 22,5 C 22,8 C 48 % 1018,6 hPa 0,0 l/m 19,4 km/h (3 Bft) O-NO 76 2 min 0,000 mm 1,7 UV-I 464 W/m 10,9 C 19,5 C 29,0 km/h (5 Bft) 100,00 %
17.05.2017 17:20 22,5 C 22,8 C 49 % 1018,6 hPa 0,0 l/m 17,6 km/h (3 Bft) O-NO 63 2 min 0,000 mm 1,6 UV-I 457 W/m 11,2 C 19,8 C 25,7 km/h (4 Bft) 93,62 %
17.05.2017 17:22 22,6 C 22,8 C 49 % 1018,6 hPa 0,0 l/m 15,8 km/h (3 Bft) NO 40 2 min 0,000 mm 1,6 UV-I 452 W/m 11,3 C 20,3 C 24,1 km/h (4 Bft) 95,56 %
17.05.2017 17:24 22,6 C 22,8 C 50 % 1018,6 hPa 0,0 l/m 17,6 km/h (3 Bft) O-NO 59 2 min 0,000 mm 1,6 UV-I 445 W/m 11,6 C 19,9 C 24,1 km/h (4 Bft) 100,00 %
17.05.2017 17:26 22,5 C 22,8 C 48 % 1018,6 hPa 0,0 l/m 17,4 km/h (3 Bft) NO 51 2 min 0,000 mm 1,5 UV-I 438 W/m 10,9 C 19,8 C 22,5 km/h (4 Bft) 97,73 %
17.05.2017 17:28 22,5 C 22,8 C 50 % 1018,5 hPa 0,0 l/m 14,9 km/h (3 Bft) NO 40 2 min 0,000 mm 1,5 UV-I 433 W/m 11,5 C 20,3 C 22,5 km/h (4 Bft) 96,61 %
17.05.2017 17:30 22,5 C 22,8 C 51 % 1018,5 hPa 0,0 l/m 15,7 km/h (3 Bft) O-NO 57 2 min 0,000 mm 1,5 UV-I 427 W/m 11,8 C 20,1 C 24,1 km/h (4 Bft) 95,74 %
17.05.2017 17:32 22,6 C 22,8 C 50 % 1018,5 hPa 0,0 l/m 19,3 km/h (3 Bft) O-SO 103 2 min 0,000 mm 1,4 UV-I 421 W/m 11,6 C 19,7 C 33,8 km/h (5 Bft) 100,00 %
17.05.2017 17:34 22,6 C 22,8 C 49 % 1018,5 hPa 0,0 l/m 20,7 km/h (4 Bft) O-NO 59 2 min 0,000 mm 1,4 UV-I 418 W/m 11,3 C 19,5 C 27,4 km/h (4 Bft) 98,00 %
17.05.2017 17:36 22,6 C 22,8 C 50 % 1018,5 hPa 0,0 l/m 19,0 km/h (3 Bft) O-NO 78 2 min 0,000 mm 1,4 UV-I 412 W/m 11,6 C 19,7 C 25,7 km/h (4 Bft) 100,00 %
17.05.2017 17:38 22,5 C 22,8 C 50 % 1018,5 hPa 0,0 l/m 18,9 km/h (3 Bft) O 92 2 min 0,000 mm 1,3 UV-I 406 W/m 11,5 C 19,6 C 24,1 km/h (4 Bft) 98,21 %
17.05.2017 17:40 22,5 C 22,8 C 50 % 1018,5 hPa 0,0 l/m 19,2 km/h (3 Bft) O 81 2 min 0,000 mm 1,3 UV-I 401 W/m 11,5 C 19,6 C 25,7 km/h (4 Bft) 100,00 %
17.05.2017 17:42 22,4 C 22,8 C 52 % 1018,4 hPa 0,0 l/m 16,4 km/h (3 Bft) O-NO 73 2 min 0,000 mm 1,3 UV-I 394 W/m 12,1 C 19,9 C 24,1 km/h (4 Bft) 95,74 %
17.05.2017 17:44 22,4 C 22,8 C 52 % 1018,3 hPa 0,0 l/m 16,0 km/h (3 Bft) O-NO 68 2 min 0,000 mm 1,2 UV-I 388 W/m 12,1 C 20,0 C 25,7 km/h (4 Bft) 94,00 %
17.05.2017 17:46 22,4 C 22,8 C 51 % 1018,2 hPa 0,0 l/m 16,5 km/h (3 Bft) O 88 2 min 0,000 mm 1,2 UV-I 381 W/m 11,8 C 19,9 C 24,1 km/h (4 Bft) 96,00 %
17.05.2017 17:48 22,4 C 22,8 C 50 % 1018,2 hPa 0,0 l/m 20,2 km/h (4 Bft) NO 40 2 min 0,000 mm 1,2 UV-I 376 W/m 11,5 C 19,3 C 29,0 km/h (5 Bft) 97,50 %
17.05.2017 17:50 22,3 C 22,8 C 49 % 1018,2 hPa 0,0 l/m 24,4 km/h (4 Bft) O-NO 75 2 min 0,000 mm 1,1 UV-I 373 W/m 11,1 C 18,6 C 30,6 km/h (5 Bft) 100,00 %
17.05.2017 17:52 22,3 C 22,8 C 50 % 1018,1 hPa 0,0 l/m 21,0 km/h (4 Bft) O-NO 74 2 min 0,000 mm 1,1 UV-I 365 W/m 11,4 C 19,0 C 27,4 km/h (4 Bft) 98,00 %
17.05.2017 17:54 22,3 C 22,8 C 51 % 1018,1 hPa 0,0 l/m 17,4 km/h (3 Bft) O-NO 78 2 min 0,000 mm 1,1 UV-I 358 W/m 11,7 C 19,6 C 22,5 km/h (4 Bft) 100,00 %
17.05.2017 17:56 22,3 C 22,8 C 51 % 1018,1 hPa 0,0 l/m 15,3 km/h (3 Bft) O-NO 66 2 min 0,000 mm 1,0 UV-I 352 W/m 11,7 C 20,0 C 22,5 km/h (4 Bft) 92,31 %
17.05.2017 17:58 22,3 C 22,8 C 51 % 1018,1 hPa 0,0 l/m 15,8 km/h (3 Bft) NO 46 2 min 0,000 mm 1,0 UV-I 346 W/m 11,7 C 19,9 C 24,1 km/h (4 Bft) 96,23 %
17.05.2017 18:00 22,3 C 22,8 C 50 % 1018,0 hPa 0,0 l/m 18,6 km/h (3 Bft) O-NO 61 2 min 0,406 mm 1,0 UV-I 339 W/m 11,4 C 19,4 C 24,1 km/h (4 Bft) 98,00 %
17.05.2017 18:02 22,2 C 22,8 C 51 % 1018,0 hPa 0,0 l/m 17,6 km/h (3 Bft) O-NO 64 2 min 0,000 mm 1,0 UV-I 334 W/m 11,6 C 19,4 C 24,1 km/h (4 Bft) 95,12 %
17.05.2017 18:04 22,2 C 22,8 C 51 % 1018,0 hPa 0,0 l/m 16,5 km/h (3 Bft) N-NO 28 2 min 0,000 mm 0,9 UV-I 329 W/m 11,6 C 19,6 C 24,1 km/h (4 Bft) 96,23 %
17.05.2017 18:06 22,2 C 22,8 C 52 % 1018,1 hPa 0,0 l/m 13,1 km/h (3 Bft) O-NO 70 2 min 0,000 mm 0,9 UV-I 323 W/m 11,9 C 20,3 C 17,7 km/h (3 Bft) 94,74 %
17.05.2017 18:08 22,2 C 22,8 C 51 % 1018,0 hPa 0,0 l/m 16,0 km/h (3 Bft) O-NO 62 2 min 0,000 mm 0,9 UV-I 318 W/m 11,6 C 19,7 C 24,1 km/h (4 Bft) 98,00 %
17.05.2017 18:10 22,2 C 22,8 C 51 % 1018,0 hPa 0,0 l/m 15,7 km/h (3 Bft) NO 49 2 min 0,000 mm 0,9 UV-I 309 W/m 11,6 C 19,8 C 19,3 km/h (3 Bft) 90,24 %
17.05.2017 18:12 22,2 C 22,8 C 52 % 1018,0 hPa 0,0 l/m 14,8 km/h (3 Bft) O-NO 74 2 min 0,000 mm 0,8 UV-I 300 W/m 11,9 C 20,0 C 22,5 km/h (4 Bft) 91,67 %
17.05.2017 18:14 22,2 C 22,8 C 53 % 1018,0 hPa 0,0 l/m 15,1 km/h (3 Bft) O-NO 68 2 min 0,000 mm 0,8 UV-I 296 W/m 12,2 C 19,9 C 20,9 km/h (4 Bft) 92,86 %
17.05.2017 18:16 22,2 C 22,8 C 51 % 1018,0 hPa 0,0 l/m 16,8 km/h (3 Bft) NO 37 2 min 0,000 mm 0,8 UV-I 292 W/m 11,6 C 19,6 C 20,9 km/h (4 Bft) 95,12 %
17.05.2017 18:18 22,2 C 22,8 C 52 % 1018,0 hPa 0,0 l/m 15,9 km/h (3 Bft) NO 53 2 min 0,000 mm 0,7 UV-I 286 W/m 11,9 C 19,7 C 22,5 km/h (4 Bft) 93,18 %
17.05.2017 18:20 22,2 C 22,8 C 53 % 1018,0 hPa 0,0 l/m 11,3 km/h (2 Bft) NO 53 2 min 0,000 mm 0,7 UV-I 278 W/m 12,2 C 20,7 C 19,3 km/h (3 Bft) 92,86 %
17.05.2017 18:22 22,2 C 22,8 C 53 % 1018,0 hPa 0,0 l/m 14,9 km/h (3 Bft) O-NO 76 2 min 0,000 mm 0,7 UV-I 273 W/m 12,2 C 19,9 C 19,3 km/h (3 Bft) 91,67 %
17.05.2017 18:24 22,2 C 22,8 C 52 % 1018,0 hPa 0,0 l/m 15,7 km/h (3 Bft) O-NO 63 2 min 0,000 mm 0,7 UV-I 269 W/m 11,9 C 19,8 C 24,1 km/h (4 Bft) 96,72 %
17.05.2017 18:26 22,1 C 22,8 C 52 % 1018,0 hPa 0,0 l/m 17,0 km/h (3 Bft) O-NO 65 2 min 0,000 mm 0,6 UV-I 265 W/m 11,8 C 19,4 C 22,5 km/h (4 Bft) 92,86 %
17.05.2017 18:28 22,1 C 22,8 C 52 % 1017,9 hPa 0,0 l/m 19,6 km/h (3 Bft) O-NO 69 2 min 0,000 mm 0,6 UV-I 259 W/m 11,8 C 19,0 C 27,4 km/h (4 Bft) 97,14 %
17.05.2017 18:30 22,0 C 22,8 C 51 % 1017,9 hPa 0,0 l/m 21,2 km/h (4 Bft) NO 51 2 min 0,000 mm 0,6 UV-I 253 W/m 11,4 C 18,6 C 27,4 km/h (4 Bft) 97,78 %
17.05.2017 18:32 21,9 C 22,8 C 52 % 1017,9 hPa 0,0 l/m 16,5 km/h (3 Bft) O-NO 67 2 min 0,000 mm 0,6 UV-I 246 W/m 11,6 C 19,3 C 24,1 km/h (4 Bft) 100,00 %
17.05.2017 18:34 21,9 C 22,8 C 54 % 1017,9 hPa 0,0 l/m 14,2 km/h (3 Bft) O-NO 65 2 min 0,000 mm 0,6 UV-I 242 W/m 12,2 C 19,7 C 20,9 km/h (4 Bft) 95,12 %
17.05.2017 18:36 21,9 C 22,8 C 52 % 1017,8 hPa 0,0 l/m 20,5 km/h (4 Bft) NO 54 2 min 0,000 mm 0,5 UV-I 235 W/m 11,6 C 18,6 C 25,7 km/h (4 Bft) 98,18 %
17.05.2017 18:38 21,8 C 22,8 C 52 % 1017,8 hPa 0,0 l/m 20,6 km/h (4 Bft) NO 40 2 min 0,000 mm 0,5 UV-I 230 W/m 11,5 C 18,4 C 33,8 km/h (5 Bft) 94,00 %
17.05.2017 18:40 21,8 C 22,8 C 53 % 1017,7 hPa 0,0 l/m 19,4 km/h (3 Bft) O-NO 67 2 min 0,000 mm 0,5 UV-I 225 W/m 11,8 C 18,6 C 25,7 km/h (4 Bft) 94,74 %
17.05.2017 18:42 21,8 C 22,8 C 53 % 1017,7 hPa 0,0 l/m 17,7 km/h (3 Bft) O-NO 59 2 min 0,000 mm 0,5 UV-I 219 W/m 11,8 C 18,9 C 24,1 km/h (4 Bft) 96,43 %
17.05.2017 18:44 21,7 C 22,8 C 52 % 1017,7 hPa 0,0 l/m 19,5 km/h (3 Bft) O-NO 63 2 min 0,000 mm 0,5 UV-I 214 W/m 11,4 C 18,5 C 25,7 km/h (4 Bft) 97,56 %
17.05.2017 18:46 21,7 C 22,8 C 53 % 1017,6 hPa 0,0 l/m 18,1 km/h (3 Bft) O-NO 58 2 min 0,000 mm 0,0 UV-I 207 W/m 11,7 C 18,7 C 27,4 km/h (4 Bft) 95,12 %
17.05.2017 18:48 21,7 C 22,8 C 52 % 1017,7 hPa 0,0 l/m 19,1 km/h (3 Bft) O-NO 63 2 min 0,000 mm 0,0 UV-I 198 W/m 11,4 C 18,5 C 24,1 km/h (4 Bft) 95,74 %
17.05.2017 18:50 21,6 C 22,8 C 53 % 1017,6 hPa 0,0 l/m 18,4 km/h (3 Bft) O-NO 65 2 min 0,000 mm 0,0 UV-I 196 W/m 11,6 C 18,5 C 27,4 km/h (4 Bft) 96,08 %
17.05.2017 18:52 21,6 C 22,8 C 53 % 1017,6 hPa 0,0 l/m 21,1 km/h (4 Bft) O 79 2 min 0,000 mm 0,0 UV-I 192 W/m 11,6 C 18,1 C 29,0 km/h (5 Bft) 98,11 %
17.05.2017 18:54 21,6 C 22,8 C 53 % 1017,6 hPa 0,0 l/m 16,3 km/h (3 Bft) O 80 2 min 0,000 mm 0,0 UV-I 186 W/m 11,6 C 18,9 C 25,7 km/h (4 Bft) 90,24 %
17.05.2017 18:56 21,6 C 22,8 C 53 % 1017,6 hPa 0,0 l/m 16,2 km/h (3 Bft) NO 38 2 min 0,000 mm 0,0 UV-I 181 W/m 11,6 C 18,9 C 20,9 km/h (4 Bft) 94,00 %
17.05.2017 18:58 21,5 C 22,8 C 54 % 1017,6 hPa 0,0 l/m 19,3 km/h (3 Bft) O-NO 59 2 min 0,000 mm 0,0 UV-I 177 W/m 11,8 C 18,3 C 25,7 km/h (4 Bft) 92,68 %
17.05.2017 19:00 21,4 C 22,8 C 52 % 1017,5 hPa 0,0 l/m 20,0 km/h (4 Bft) O-NO 61 2 min 0,000 mm 0,0 UV-I 171 W/m 11,1 C 18,0 C 27,4 km/h (4 Bft) 95,45 %
17.05.2017 19:02 21,4 C 22,8 C 53 % 1017,5 hPa 0,0 l/m 18,0 km/h (3 Bft) O-NO 70 2 min 0,279 mm 0,0 UV-I 167 W/m 11,4 C 18,4 C 25,7 km/h (4 Bft) 91,07 %
17.05.2017 19:04 21,4 C 22,8 C 54 % 1017,5 hPa 0,0 l/m 15,6 km/h (3 Bft) O-NO 62 2 min 0,000 mm 0,0 UV-I 161 W/m 11,7 C 18,8 C 20,9 km/h (4 Bft) 94,00 %
17.05.2017 19:06 21,3 C 22,8 C 54 % 1017,5 hPa 0,0 l/m 15,8 km/h (3 Bft) NO 48 2 min 0,000 mm 0,0 UV-I 156 W/m 11,6 C 18,7 C 24,1 km/h (4 Bft) 97,37 %
17.05.2017 19:08 21,3 C 22,8 C 54 % 1017,5 hPa 0,0 l/m 19,3 km/h (3 Bft) O-NO 57 2 min 0,000 mm 0,0 UV-I 152 W/m 11,6 C 18,0 C 29,0 km/h (5 Bft) 94,64 %
17.05.2017 19:10 21,3 C 22,8 C 53 % 1017,5 hPa 0,0 l/m 21,6 km/h (4 Bft) N-NO 27 2 min 0,000 mm 0,0 UV-I 146 W/m 11,3 C 17,6 C 27,4 km/h (4 Bft) 95,74 %
17.05.2017 19:12 21,3 C 22,8 C 53 % 1017,4 hPa 0,0 l/m 19,2 km/h (3 Bft) O-NO 63 2 min 0,000 mm 0,0 UV-I 142 W/m 11,3 C 18,0 C 25,7 km/h (4 Bft) 97,62 %
17.05.2017 19:14 21,2 C 22,8 C 53 % 1017,4 hPa 0,0 l/m 18,0 km/h (3 Bft) NO 53 2 min 0,000 mm 0,0 UV-I 136 W/m 11,2 C 18,1 C 22,5 km/h (4 Bft) 96,15 %
17.05.2017 19:16 21,2 C 22,8 C 53 % 1017,4 hPa 0,0 l/m 18,0 km/h (3 Bft) O-NO 64 2 min 0,000 mm 0,0 UV-I 130 W/m 11,2 C 18,1 C 24,1 km/h (4 Bft) 97,78 %
17.05.2017 19:18 21,1 C 22,8 C 53 % 1017,4 hPa 0,0 l/m 20,4 km/h (4 Bft) O 81 2 min 0,000 mm 0,0 UV-I 125 W/m 11,1 C 17,6 C 29,0 km/h (5 Bft) 89,47 %
17.05.2017 19:20 21,1 C 22,8 C 53 % 1017,4 hPa 0,0 l/m 18,9 km/h (3 Bft) O-NO 73 2 min 0,000 mm 0,0 UV-I 121 W/m 11,1 C 17,8 C 25,7 km/h (4 Bft) 96,23 %
17.05.2017 19:22 21,1 C 22,8 C 54 % 1017,4 hPa 0,0 l/m 18,7 km/h (3 Bft) O-NO 75 2 min 0,000 mm 0,0 UV-I 116 W/m 11,4 C 17,9 C 30,6 km/h (5 Bft) 98,00 %
17.05.2017 19:24 21,0 C 22,8 C 53 % 1017,3 hPa 0,0 l/m 16,3 km/h (3 Bft) O-NO 57 2 min 0,000 mm 0,0 UV-I 112 W/m 11,0 C 18,2 C 29,0 km/h (5 Bft) 97,73 %
17.05.2017 19:26 20,9 C 22,8 C 53 % 1017,3 hPa 0,0 l/m 17,0 km/h (3 Bft) NO 54 2 min 0,000 mm 0,0 UV-I 109 W/m 11,0 C 17,9 C 24,1 km/h (4 Bft) 95,74 %
17.05.2017 19:28 20,9 C 22,8 C 55 % 1017,3 hPa 0,0 l/m 13,4 km/h (3 Bft) O-NO 66 2 min 0,000 mm 0,0 UV-I 105 W/m 11,5 C 18,7 C 17,7 km/h (3 Bft) 97,56 %
17.05.2017 19:30 20,8 C 22,8 C 55 % 1017,4 hPa 0,0 l/m 12,2 km/h (2 Bft) O-NO 77 2 min 0,000 mm 0,0 UV-I 102 W/m 11,4 C 18,9 C 16,1 km/h (3 Bft) 95,45 %
17.05.2017 19:32 20,8 C 22,8 C 55 % 1017,3 hPa 0,0 l/m 18,3 km/h (3 Bft) O-NO 69 2 min 0,000 mm 0,0 UV-I 98 W/m 11,4 C 17,5 C 30,6 km/h (5 Bft) 100,00 %
17.05.2017 19:34 20,7 C 22,8 C 55 % 1017,3 hPa 0,0 l/m 17,1 km/h (3 Bft) NO 55 2 min 0,000 mm 0,0 UV-I 93 W/m 11,3 C 17,7 C 27,4 km/h (4 Bft) 93,18 %
17.05.2017 19:36 20,7 C 22,8 C 55 % 1017,3 hPa 0,0 l/m 17,0 km/h (3 Bft) O 81 2 min 0,000 mm 0,0 UV-I 90 W/m 11,3 C 17,7 C 24,1 km/h (4 Bft) 93,62 %
17.05.2017 19:38 20,6 C 22,8 C 56 % 1017,3 hPa 0,0 l/m 17,0 km/h (3 Bft) O-NO 57 2 min 0,000 mm 0,0 UV-I 86 W/m 11,5 C 17,5 C 20,9 km/h (4 Bft) 98,00 %
17.05.2017 19:40 20,6 C 22,8 C 55 % 1017,2 hPa 0,0 l/m 16,0 km/h (3 Bft) NO 42 2 min 0,000 mm 0,0 UV-I 83 W/m 11,2 C 17,8 C 22,5 km/h (4 Bft) 95,12 %
17.05.2017 19:42 20,6 C 22,8 C 54 % 1017,2 hPa 0,0 l/m 17,9 km/h (3 Bft) NO 48 2 min 0,000 mm 0,0 UV-I 78 W/m 11,0 C 17,4 C 24,1 km/h (4 Bft) 92,86 %
17.05.2017 19:44 20,6 C 22,8 C 56 % 1017,2 hPa 0,0 l/m 10,1 km/h (2 Bft) O-NO 65 2 min 0,000 mm 0,0 UV-I 74 W/m 11,5 C 19,3 C 22,5 km/h (4 Bft) 94,74 %
17.05.2017 19:46 20,4 C 22,8 C 56 % 1017,3 hPa 0,0 l/m 14,2 km/h (3 Bft) O-NO 57 2 min 0,000 mm 0,0 UV-I 69 W/m 11,3 C 17,9 C 20,9 km/h (4 Bft) 96,43 %
17.05.2017 19:48 20,4 C 22,8 C 56 % 1017,3 hPa 0,0 l/m 16,0 km/h (3 Bft) O-NO 61 2 min 0,000 mm 0,0 UV-I 66 W/m 11,3 C 17,5 C 24,1 km/h (4 Bft) 97,37 %
17.05.2017 19:50 20,3 C 22,8 C 57 % 1017,3 hPa 0,0 l/m 12,5 km/h (3 Bft) O-NO 60 2 min 0,000 mm 0,0 UV-I 64 W/m 11,5 C 18,2 C 20,9 km/h (4 Bft) 97,22 %
17.05.2017 19:53 20,2 C 22,8 C 56 % 1017,2 hPa 0,0 l/m 15,3 km/h (3 Bft) O 92 3 min 0,000 mm 0,0 UV-I 59 W/m 11,1 C 17,4 C 22,5 km/h (4 Bft) 96,59 %
17.05.2017 19:54 20,2 C 22,8 C 57 % 1017,3 hPa 0,0 l/m 19,0 km/h (3 Bft) NO 49 0 min 0,000 mm 0,0 UV-I 54 W/m 11,4 C 16,6 C 25,7 km/h (4 Bft) 100,00 %
17.05.2017 19:56 20,1 C 22,8 C 56 % 1017,2 hPa 0,0 l/m 19,8 km/h (3 Bft) O-NO 76 2 min 0,000 mm 0,0 UV-I 54 W/m 11,0 C 16,4 C 25,7 km/h (4 Bft) 98,00 %
17.05.2017 19:58 20,1 C 22,8 C 55 % 1017,2 hPa 0,0 l/m 18,3 km/h (3 Bft) NO 52 0 min 0,000 mm 0,0 UV-I 49 W/m 10,8 C 16,7 C 27,4 km/h (4 Bft) 97,56 %
17.05.2017 20:00 20,1 C 22,8 C 56 % 1017,2 hPa 0,0 l/m 18,1 km/h (3 Bft) O-NO 58 2 min 0,178 mm 0,0 UV-I 47 W/m 11,0 C 16,7 C 27,4 km/h (4 Bft) 93,10 %
17.05.2017 20:02 20,0 C 22,8 C 57 % 1017,3 hPa 0,0 l/m 14,4 km/h (3 Bft) O-NO 65 0 min 0,000 mm 0,0 UV-I 43 W/m 11,2 C 17,4 C 20,9 km/h (4 Bft) 94,74 %
17.05.2017 20:04 19,9 C 22,8 C 56 % 1017,3 hPa 0,0 l/m 19,1 km/h (3 Bft) O-NO 72 0 min 0,000 mm 0,0 UV-I 40 W/m 10,9 C 16,2 C 27,4 km/h (4 Bft) 97,73 %
17.05.2017 20:06 19,9 C 22,8 C 56 % 1017,3 hPa 0,0 l/m 15,4 km/h (3 Bft) NO 53 2 min 0,000 mm 0,0 UV-I 38 W/m 10,9 C 17,0 C 24,1 km/h (4 Bft) 96,23 %
17.05.2017 20:08 19,8 C 22,2 C 56 % 1017,2 hPa 0,0 l/m 16,4 km/h (3 Bft) NO 56 2 min 0,000 mm 0,0 UV-I 36 W/m 10,8 C 16,7 C 20,9 km/h (4 Bft) 94,74 %
17.05.2017 20:10 19,8 C 22,2 C 57 % 1017,2 hPa 0,0 l/m 15,2 km/h (3 Bft) O-NO 74 2 min 0,000 mm 0,0 UV-I 33 W/m 11,0 C 17,0 C 20,9 km/h (4 Bft) 96,61 %
17.05.2017 20:12 19,7 C 22,2 C 58 % 1017,2 hPa 0,0 l/m 14,4 km/h (3 Bft) NO 53 2 min 0,000 mm 0,0 UV-I 31 W/m 11,2 C 17,0 C 17,7 km/h (3 Bft) 95,12 %
17.05.2017 20:14 19,6 C 22,2 C 57 % 1017,2 hPa 0,0 l/m 15,6 km/h (3 Bft) O 84 2 min 0,000 mm 0,0 UV-I 28 W/m 10,8 C 16,6 C 19,3 km/h (3 Bft) 95,45 %
17.05.2017 20:16 19,5 C 22,2 C 58 % 1017,2 hPa 0,0 l/m 14,0 km/h (3 Bft) NO 48 2 min 0,000 mm 0,0 UV-I 26 W/m 11,0 C 16,9 C 20,9 km/h (4 Bft) 94,34 %
17.05.2017 20:18 19,4 C 22,2 C 58 % 1017,2 hPa 0,0 l/m 14,0 km/h (3 Bft) O-NO 58 2 min 0,000 mm 0,0 UV-I 24 W/m 10,9 C 16,8 C 20,9 km/h (4 Bft) 97,87 %
17.05.2017 20:20 19,4 C 22,2 C 58 % 1017,2 hPa 0,0 l/m 16,3 km/h (3 Bft) O-NO 66 2 min 0,000 mm 0,0 UV-I 20 W/m 10,9 C 16,2 C 24,1 km/h (4 Bft) 95,74 %
17.05.2017 20:23 19,3 C 22,2 C 58 % 1017,1 hPa 0,0 l/m 14,9 km/h (3 Bft) O-NO 74 3 min 0,000 mm 0,0 UV-I 17 W/m 10,8 C 16,4 C 20,9 km/h (4 Bft) 97,06 %
17.05.2017 20:24 19,3 C 22,2 C 58 % 1017,1 hPa 0,0 l/m 9,4 km/h (2 Bft) NO 51 1 min 0,000 mm 0,0 UV-I 16 W/m 10,8 C 18,1 C 14,5 km/h (3 Bft) 100,00 %
17.05.2017 20:26 19,2 C 22,2 C 58 % 1017,1 hPa 0,0 l/m 13,1 km/h (3 Bft) NO 55 2 min 0,000 mm 0,0 UV-I 16 W/m 10,7 C 16,8 C 19,3 km/h (3 Bft) 97,56 %
17.05.2017 20:28 19,2 C 22,2 C 58 % 1017,2 hPa 0,0 l/m 13,7 km/h (3 Bft) O-NO 59 0 min 0,000 mm 0,0 UV-I 14 W/m 10,7 C 16,6 C 19,3 km/h (3 Bft) 97,62 %
17.05.2017 20:30 19,2 C 22,2 C 58 % 1017,2 hPa 0,0 l/m 17,3 km/h (3 Bft) O-NO 58 0 min 0,000 mm 0,0 UV-I 13 W/m 10,7 C 15,7 C 25,7 km/h (4 Bft) 96,43 %
17.05.2017 20:32 19,1 C 22,2 C 58 % 1017,1 hPa 0,0 l/m 14,6 km/h (3 Bft) O 90 0 min 0,000 mm 0,0 UV-I 12 W/m 10,6 C 16,3 C 19,3 km/h (3 Bft) 95,92 %
17.05.2017 20:34 19,1 C 22,2 C 59 % 1017,1 hPa 0,0 l/m 12,9 km/h (3 Bft) NO 55 0 min 0,000 mm 0,0 UV-I 11 W/m 10,9 C 16,7 C 17,7 km/h (3 Bft) 100,00 %
17.05.2017 20:36 19,0 C 22,2 C 59 % 1017,0 hPa 0,0 l/m 12,1 km/h (2 Bft) NO 49 0 min 0,000 mm 0,0 UV-I 10 W/m 10,8 C 16,8 C 17,7 km/h (3 Bft) 97,87 %
17.05.2017 20:38 18,9 C 22,2 C 59 % 1017,0 hPa 0,0 l/m 10,0 km/h (2 Bft) O-NO 59 0 min 0,000 mm 0,0 UV-I 9 W/m 10,7 C 17,4 C 17,7 km/h (3 Bft) 96,23 %
17.05.2017 20:40 18,8 C 22,2 C 59 % 1017,1 hPa 0,0 l/m 12,8 km/h (3 Bft) NO 40 0 min 0,000 mm 0,0 UV-I 8 W/m 10,6 C 16,4 C 17,7 km/h (3 Bft) 100,00 %
17.05.2017 20:42 18,8 C 22,2 C 60 % 1017,1 hPa 0,0 l/m 12,3 km/h (3 Bft) O-NO 70 0 min 0,000 mm 0,0 UV-I 7 W/m 10,9 C 16,6 C 17,7 km/h (3 Bft) 97,56 %
17.05.2017 20:44 18,7 C 22,2 C 60 % 1017,1 hPa 0,0 l/m 12,6 km/h (3 Bft) O-NO 63 0 min 0,000 mm 0,0 UV-I 7 W/m 10,8 C 16,3 C 17,7 km/h (3 Bft) 100,00 %
17.05.2017 20:46 18,6 C 22,2 C 60 % 1017,0 hPa 0,0 l/m 12,1 km/h (2 Bft) O-NO 69 0 min 0,000 mm 0,0 UV-I 5 W/m 10,7 C 16,4 C 16,1 km/h (3 Bft) 96,00 %
17.05.2017 20:48 18,5 C 22,2 C 61 % 1017,0 hPa 0,0 l/m 10,7 km/h (2 Bft) NO 51 0 min 0,000 mm 0,0 UV-I 5 W/m 10,8 C 16,7 C 17,7 km/h (3 Bft) 100,00 %
17.05.2017 20:50 18,4 C 22,2 C 61 % 1017,0 hPa 0,0 l/m 11,9 km/h (2 Bft) O-NO 57 0 min 0,000 mm 0,0 UV-I 5 W/m 10,7 C 16,2 C 16,1 km/h (3 Bft) 96,23 %
17.05.2017 20:52 18,3 C 22,2 C 62 % 1017,0 hPa 0,0 l/m 11,5 km/h (2 Bft) O-NO 57 0 min 0,000 mm 0,0 UV-I 5 W/m 10,9 C 16,2 C 16,1 km/h (3 Bft) 95,12 %
17.05.2017 20:54 18,2 C 22,2 C 62 % 1016,9 hPa 0,0 l/m 15,6 km/h (3 Bft) O-NO 61 0 min 0,000 mm 0,0 UV-I 0 W/m 10,8 C 14,9 C 20,9 km/h (4 Bft) 100,00 %
17.05.2017 20:56 18,2 C 22,2 C 62 % 1016,9 hPa 0,0 l/m 12,6 km/h (3 Bft) NO 45 0 min 0,000 mm 0,0 UV-I 0 W/m 10,8 C 15,8 C 16,1 km/h (3 Bft) 94,74 %
17.05.2017 20:58 18,2 C 22,2 C 62 % 1016,9 hPa 0,0 l/m 11,2 km/h (2 Bft) O-NO 69 0 min 0,000 mm 0,0 UV-I 0 W/m 10,8 C 16,2 C 19,3 km/h (3 Bft) 100,00 %
17.05.2017 21:00 18,2 C 22,2 C 62 % 1016,9 hPa 0,0 l/m 12,0 km/h (2 Bft) NO 51 0 min 0,102 mm 0,0 UV-I 0 W/m 10,8 C 16,0 C 20,9 km/h (4 Bft) 94,34 %
17.05.2017 21:02 18,1 C 22,2 C 62 % 1016,9 hPa 0,0 l/m 12,4 km/h (3 Bft) O 80 0 min 0,000 mm 0,0 UV-I 0 W/m 10,7 C 15,7 C 17,7 km/h (3 Bft) 97,87 %
17.05.2017 21:04 18,1 C 22,2 C 62 % 1016,9 hPa 0,0 l/m 12,5 km/h (3 Bft) NO 56 0 min 0,000 mm 0,0 UV-I 0 W/m 10,7 C 15,7 C 17,7 km/h (3 Bft) 100,00 %
17.05.2017 21:06 18,1 C 22,2 C 62 % 1016,9 hPa 0,0 l/m 13,1 km/h (3 Bft) NO 53 0 min 0,000 mm 0,0 UV-I 0 W/m 10,7 C 15,5 C 16,1 km/h (3 Bft) 97,87 %
17.05.2017 21:08 18,0 C 22,2 C 62 % 1016,9 hPa 0,0 l/m 14,5 km/h (3 Bft) O-NO 76 0 min 0,000 mm 0,0 UV-I 0 W/m 10,6 C 15,0 C 19,3 km/h (3 Bft) 100,00 %
17.05.2017 21:10 17,9 C 22,2 C 62 % 1016,9 hPa 0,0 l/m 10,5 km/h (2 Bft) NO 42 0 min 0,000 mm 0,0 UV-I 0 W/m 10,5 C 16,1 C 16,1 km/h (3 Bft) 100,00 %
17.05.2017 21:12 17,9 C 22,2 C 62 % 1016,9 hPa 0,0 l/m 11,5 km/h (2 Bft) NO 36 0 min 0,000 mm 0,0 UV-I 0 W/m 10,5 C 15,8 C 19,3 km/h (3 Bft) 100,00 %
17.05.2017 21:14 17,9 C 22,2 C 62 % 1016,9 hPa 0,0 l/m 13,6 km/h (3 Bft) NO 36 0 min 0,000 mm 0,0 UV-I 0 W/m 10,5 C 15,1 C 19,3 km/h (3 Bft) 100,00 %
17.05.2017 21:16 17,9 C 22,2 C 61 % 1016,8 hPa 0,0 l/m 13,0 km/h (3 Bft) O-NO 60 0 min 0,000 mm 0,0 UV-I 0 W/m 10,3 C 15,3 C 17,7 km/h (3 Bft) 100,00 %
17.05.2017 21:18 17,9 C 22,2 C 62 % 1016,9 hPa 0,0 l/m 11,1 km/h (2 Bft) O-NO 57 0 min 0,000 mm 0,0 UV-I 0 W/m 10,5 C 15,9 C 17,7 km/h (3 Bft) 96,23 %
17.05.2017 21:20 17,8 C 22,2 C 62 % 1016,8 hPa 0,0 l/m 11,5 km/h (2 Bft) O-NO 62 0 min 0,000 mm 0,0 UV-I 0 W/m 10,4 C 15,7 C 17,7 km/h (3 Bft) 98,00 %
17.05.2017 21:22 17,8 C 22,2 C 62 % 1016,8 hPa 0,0 l/m 12,3 km/h (3 Bft) NO 54 0 min 0,000 mm 0,0 UV-I 0 W/m 10,4 C 15,4 C 17,7 km/h (3 Bft) 92,68 %
17.05.2017 21:24 17,7 C 22,2 C 62 % 1016,8 hPa 0,0 l/m 12,9 km/h (3 Bft) O-NO 63 0 min 0,000 mm 0,0 UV-I 0 W/m 10,3 C 15,1 C 16,1 km/h (3 Bft) 100,00 %
17.05.2017 21:26 17,7 C 22,2 C 62 % 1016,8 hPa 0,0 l/m 11,2 km/h (2 Bft) O-NO 58 0 min 0,000 mm 0,0 UV-I 0 W/m 10,3 C 15,7 C 16,1 km/h (3 Bft) 100,00 %
17.05.2017 21:28 17,6 C 22,2 C 63 % 1016,8 hPa 0,0 l/m 13,5 km/h (3 Bft) O-NO 72 0 min 0,000 mm 0,0 UV-I 0 W/m 10,5 C 14,8 C 17,7 km/h (3 Bft) 100,00 %
17.05.2017 21:30 17,6 C 22,2 C 63 % 1016,8 hPa 0,0 l/m 10,9 km/h (2 Bft) O-NO 65 0 min 0,000 mm 0,0 UV-I 0 W/m 10,5 C 15,7 C 16,1 km/h (3 Bft) 97,87 %
17.05.2017 21:32 17,6 C 22,2 C 63 % 1016,8 hPa 0,0 l/m 12,4 km/h (3 Bft) NO 53 0 min 0,000 mm 0,0 UV-I 0 W/m 10,5 C 15,1 C 19,3 km/h (3 Bft) 100,00 %
17.05.2017 21:34 17,6 C 22,2 C 63 % 1016,7 hPa 0,0 l/m 12,0 km/h (2 Bft) O-NO 57 0 min 0,000 mm 0,0 UV-I 0 W/m 10,5 C 15,3 C 16,1 km/h (3 Bft) 98,39 %
17.05.2017 21:36 17,5 C 22,2 C 63 % 1016,8 hPa 0,0 l/m 11,2 km/h (2 Bft) NO 56 0 min 0,000 mm 0,0 UV-I 0 W/m 10,4 C 15,4 C 16,1 km/h (3 Bft) 100,00 %
17.05.2017 21:38 17,5 C 22,2 C 63 % 1016,7 hPa 0,0 l/m 12,1 km/h (2 Bft) O-NO 58 0 min 0,000 mm 0,0 UV-I 0 W/m 10,4 C 15,1 C 17,7 km/h (3 Bft) 98,31 %
17.05.2017 21:40 17,5 C 22,2 C 63 % 1016,7 hPa 0,0 l/m 12,0 km/h (2 Bft) O-NO 66 0 min 0,000 mm 0,0 UV-I 0 W/m 10,4 C 15,2 C 17,7 km/h (3 Bft) 97,56 %
17.05.2017 21:42 17,4 C 22,2 C 63 % 1016,8 hPa 0,0 l/m 10,7 km/h (2 Bft) O-NO 73 0 min 0,000 mm 0,0 UV-I 0 W/m 10,3 C 15,5 C 16,1 km/h (3 Bft) 100,00 %
17.05.2017 21:44 17,4 C 22,2 C 63 % 1016,7 hPa 0,0 l/m 11,2 km/h (2 Bft) O-NO 57 0 min 0,000 mm 0,0 UV-I 0 W/m 10,3 C 15,3 C 16,1 km/h (3 Bft) 96,00 %
17.05.2017 21:46 17,3 C 22,2 C 63 % 1016,7 hPa 0,0 l/m 12,3 km/h (3 Bft) O-NO 57 0 min 0,000 mm 0,0 UV-I 0 W/m 10,2 C 14,8 C 17,7 km/h (3 Bft) 97,87 %
17.05.2017 21:48 17,3 C 22,2 C 64 % 1016,6 hPa 0,0 l/m 9,1 km/h (2 Bft) NO 45 0 min 0,000 mm 0,0 UV-I 0 W/m 10,4 C 16,0 C 14,5 km/h (3 Bft) 98,00 %
17.05.2017 21:50 17,2 C 22,2 C 64 % 1016,7 hPa 0,0 l/m 12,4 km/h (3 Bft) O-NO 68 0 min 0,000 mm 0,0 UV-I 0 W/m 10,3 C 14,7 C 17,7 km/h (3 Bft) 100,00 %
17.05.2017 21:52 17,2 C 22,2 C 63 % 1016,7 hPa 0,0 l/m 10,9 km/h (2 Bft) O-NO 67 0 min 0,000 mm 0,0 UV-I 0 W/m 10,1 C 15,2 C 17,7 km/h (3 Bft) 96,23 %
17.05.2017 21:54 17,2 C 22,2 C 64 % 1016,6 hPa 0,0 l/m 11,5 km/h (2 Bft) O-NO 59 0 min 0,000 mm 0,0 UV-I 0 W/m 10,3 C 15,0 C 16,1 km/h (3 Bft) 97,73 %
17.05.2017 21:56 17,2 C 22,2 C 63 % 1016,6 hPa 0,0 l/m 10,6 km/h (2 Bft) O-NO 63 0 min 0,000 mm 0,0 UV-I 0 W/m 10,1 C 15,3 C 16,1 km/h (3 Bft) 100,00 %
17.05.2017 21:58 17,2 C 22,2 C 64 % 1016,6 hPa 0,0 l/m 10,0 km/h (2 Bft) O-NO 76 0 min 0,000 mm 0,0 UV-I 0 W/m 10,3 C 15,5 C 14,5 km/h (3 Bft) 96,00 %
17.05.2017 22:00 17,1 C 22,2 C 64 % 1016,6 hPa 0,0 l/m 9,8 km/h (2 Bft) NO 49 0 min 0,000 mm 0,0 UV-I 0 W/m 10,2 C 15,5 C 14,5 km/h (3 Bft) 95,74 %
17.05.2017 22:02 17,1 C 22,2 C 64 % 1016,6 hPa 0,0 l/m 8,6 km/h (2 Bft) O-NO 58 0 min 0,076 mm 0,0 UV-I 0 W/m 10,2 C 16,0 C 14,5 km/h (3 Bft) 94,74 %
17.05.2017 22:04 17,1 C 22,2 C 64 % 1016,5 hPa 0,0 l/m 7,9 km/h (2 Bft) NO 55 0 min 0,000 mm 0,0 UV-I 0 W/m 10,2 C 16,4 C 14,5 km/h (3 Bft) 96,43 %
17.05.2017 22:06 17,0 C 22,2 C 65 % 1016,5 hPa 0,0 l/m 7,7 km/h (2 Bft) NO 46 0 min 0,000 mm 0,0 UV-I 0 W/m 10,4 C 16,3 C 14,5 km/h (3 Bft) 94,74 %
17.05.2017 22:08 16,9 C 22,2 C 65 % 1016,5 hPa 0,0 l/m 7,8 km/h (2 Bft) NO 51 0 min 0,000 mm 0,0 UV-I 0 W/m 10,3 C 16,2 C 14,5 km/h (3 Bft) 98,21 %
17.05.2017 22:10 16,9 C 22,2 C 65 % 1016,4 hPa 0,0 l/m 8,3 km/h (2 Bft) NO 40 0 min 0,000 mm 0,0 UV-I 0 W/m 10,3 C 16,0 C 14,5 km/h (3 Bft) 97,73 %
17.05.2017 22:12 16,8 C 22,2 C 65 % 1016,4 hPa 0,0 l/m 10,0 km/h (2 Bft) O 79 0 min 0,000 mm 0,0 UV-I 0 W/m 10,2 C 15,1 C 14,5 km/h (3 Bft) 97,87 %
17.05.2017 22:14 16,8 C 22,2 C 65 % 1016,4 hPa 0,0 l/m 7,4 km/h (2 Bft) O 82 0 min 0,000 mm 0,0 UV-I 0 W/m 10,2 C 16,3 C 11,3 km/h (2 Bft) 97,87 %
17.05.2017 22:16 16,7 C 22,2 C 66 % 1016,4 hPa 0,0 l/m 8,3 km/h (2 Bft) O-NO 63 0 min 0,000 mm 0,0 UV-I 0 W/m 10,3 C 15,7 C 16,1 km/h (3 Bft) 94,00 %
17.05.2017 22:18 16,6 C 22,2 C 66 % 1016,3 hPa 0,0 l/m 9,7 km/h (2 Bft) NO 56 0 min 0,000 mm 0,0 UV-I 0 W/m 10,2 C 15,0 C 16,1 km/h (3 Bft) 97,87 %
17.05.2017 22:20 16,6 C 22,2 C 66 % 1016,3 hPa 0,0 l/m 8,8 km/h (2 Bft) O-NO 62 0 min 0,000 mm 0,0 UV-I 0 W/m 10,2 C 15,4 C 14,5 km/h (3 Bft) 94,29 %
17.05.2017 22:22 16,6 C 22,2 C 66 % 1016,3 hPa 0,0 l/m 7,7 km/h (2 Bft) NO 55 0 min 0,000 mm 0,0 UV-I 0 W/m 10,2 C 15,9 C 12,9 km/h (3 Bft) 94,34 %
17.05.2017 22:24 16,5 C 22,2 C 66 % 1016,2 hPa 0,0 l/m 7,4 km/h (2 Bft) O-NO 68 0 min 0,000 mm 0,0 UV-I 0 W/m 10,1 C 16,0 C 12,9 km/h (3 Bft) 97,44 %
17.05.2017 22:26 16,4 C 22,2 C 66 % 1016,2 hPa 0,0 l/m 9,1 km/h (2 Bft) O-NO 65 0 min 0,000 mm 0,0 UV-I 0 W/m 10,0 C 15,1 C 14,5 km/h (3 Bft) 96,55 %
17.05.2017 22:28 16,4 C 22,2 C 67 % 1016,1 hPa 0,0 l/m 8,2 km/h (2 Bft) O-NO 63 0 min 0,000 mm 0,0 UV-I 0 W/m 10,3 C 15,5 C 11,3 km/h (2 Bft) 97,62 %
17.05.2017 22:30 16,4 C 22,2 C 66 % 1016,2 hPa 0,0 l/m 9,6 km/h (2 Bft) O-NO 59 0 min 0,000 mm 0,0 UV-I 0 W/m 10,0 C 14,8 C 14,5 km/h (3 Bft) 95,45 %
17.05.2017 22:32 16,4 C 22,2 C 66 % 1016,1 hPa 0,0 l/m 8,8 km/h (2 Bft) O-NO 63 0 min 0,000 mm 0,0 UV-I 0 W/m 10,0 C 15,2 C 14,5 km/h (3 Bft) 98,00 %
17.05.2017 22:34 16,4 C 22,2 C 66 % 1016,1 hPa 0,0 l/m 7,9 km/h (2 Bft) NO 52 0 min 0,000 mm 0,0 UV-I 0 W/m 10,0 C 15,6 C 11,3 km/h (2 Bft) 100,00 %
17.05.2017 22:36 16,3 C 22,2 C 67 % 1016,1 hPa 0,0 l/m 8,5 km/h (2 Bft) O-NO 70 0 min 0,000 mm 0,0 UV-I 0 W/m 10,2 C 15,2 C 14,5 km/h (3 Bft) 97,56 %
17.05.2017 22:38 16,3 C 22,2 C 67 % 1016,1 hPa 0,0 l/m 8,5 km/h (2 Bft) N 11 0 min 0,000 mm 0,0 UV-I 0 W/m 10,2 C 15,2 C 12,9 km/h (3 Bft) 100,00 %
17.05.2017 22:40 16,2 C 22,2 C 67 % 1016,0 hPa 0,0 l/m 9,7 km/h (2 Bft) O-NO 69 0 min 0,000 mm 0,0 UV-I 0 W/m 10,1 C 14,6 C 14,5 km/h (3 Bft) 96,15 %
17.05.2017 22:42 16,2 C 22,2 C 67 % 1016,0 hPa 0,0 l/m 8,5 km/h (2 Bft) O-NO 57 0 min 0,000 mm 0,0 UV-I 0 W/m 10,1 C 15,1 C 12,9 km/h (3 Bft) 100,00 %
17.05.2017 22:44 16,2 C 22,2 C 67 % 1016,0 hPa 0,0 l/m 8,6 km/h (2 Bft) NO 50 0 min 0,000 mm 0,0 UV-I 0 W/m 10,1 C 15,1 C 12,9 km/h (3 Bft) 98,00 %
17.05.2017 22:46 16,1 C 22,2 C 68 % 1016,0 hPa 0,0 l/m 9,1 km/h (2 Bft) NO 46 0 min 0,000 mm 0,0 UV-I 0 W/m 10,2 C 14,7 C 14,5 km/h (3 Bft) 97,56 %
17.05.2017 22:48 16,1 C 22,2 C 68 % 1016,0 hPa 0,0 l/m 9,5 km/h (2 Bft) O-NO 59 0 min 0,000 mm 0,0 UV-I 0 W/m 10,2 C 14,6 C 14,5 km/h (3 Bft) 95,45 %
17.05.2017 22:50 16,1 C 22,2 C 68 % 1015,9 hPa 0,0 l/m 7,5 km/h (2 Bft) O-NO 71 0 min 0,000 mm 0,0 UV-I 0 W/m 10,2 C 15,5 C 11,3 km/h (2 Bft) 98,00 %
17.05.2017 22:52 16,0 C 22,2 C 68 % 1015,9 hPa 0,0 l/m 7,3 km/h (2 Bft) NO 51 0 min 0,000 mm 0,0 UV-I 0 W/m 10,1 C 15,5 C 9,7 km/h (2 Bft) 95,12 %
17.05.2017 22:54 15,9 C 22,2 C 69 % 1015,9 hPa 0,0 l/m 8,0 km/h (2 Bft) O-NO 61 0 min 0,000 mm 0,0 UV-I 0 W/m 10,2 C 15,0 C 12,9 km/h (3 Bft) 94,34 %
17.05.2017 22:56 15,9 C 22,2 C 69 % 1015,8 hPa 0,0 l/m 9,3 km/h (2 Bft) O-NO 65 0 min 0,000 mm 0,0 UV-I 0 W/m 10,2 C 14,4 C 16,1 km/h (3 Bft) 98,00 %
17.05.2017 22:58 15,8 C 22,2 C 69 % 1015,9 hPa 0,0 l/m 9,1 km/h (2 Bft) O-NO 60 0 min 0,000 mm 0,0 UV-I 0 W/m 10,1 C 14,4 C 14,5 km/h (3 Bft) 94,74 %
17.05.2017 23:00 15,8 C 22,2 C 69 % 1015,9 hPa 0,0 l/m 9,4 km/h (2 Bft) NO 40 0 min 0,051 mm 0,0 UV-I 0 W/m 10,1 C 14,3 C 12,9 km/h (3 Bft) 98,00 %
17.05.2017 23:02 15,8 C 22,2 C 69 % 1015,8 hPa 0,0 l/m 11,4 km/h (2 Bft) O-NO 59 0 min 0,000 mm 0,0 UV-I 0 W/m 10,1 C 13,4 C 16,1 km/h (3 Bft) 95,24 %
17.05.2017 23:04 15,7 C 22,2 C 69 % 1015,8 hPa 0,0 l/m 9,1 km/h (2 Bft) O-NO 59 0 min 0,000 mm 0,0 UV-I 0 W/m 10,0 C 14,3 C 16,1 km/h (3 Bft) 97,56 %
17.05.2017 23:06 15,7 C 21,7 C 69 % 1015,8 hPa 0,0 l/m 8,9 km/h (2 Bft) O-NO 59 0 min 0,000 mm 0,0 UV-I 0 W/m 10,0 C 14,4 C 12,9 km/h (3 Bft) 96,72 %
17.05.2017 23:08 15,7 C 21,7 C 69 % 1015,7 hPa 0,0 l/m 9,0 km/h (2 Bft) NO 47 0 min 0,000 mm 0,0 UV-I 0 W/m 10,0 C 14,3 C 17,7 km/h (3 Bft) 94,87 %
17.05.2017 23:10 15,7 C 21,7 C 69 % 1015,7 hPa 0,0 l/m 8,0 km/h (2 Bft) O-NO 68 0 min 0,000 mm 0,0 UV-I 0 W/m 10,0 C 14,8 C 11,3 km/h (2 Bft) 98,21 %
17.05.2017 23:12 15,6 C 21,7 C 69 % 1015,7 hPa 0,0 l/m 8,3 km/h (2 Bft) O-NO 69 0 min 0,000 mm 0,0 UV-I 0 W/m 9,9 C 14,6 C 12,9 km/h (3 Bft) 90,00 %
17.05.2017 23:15 15,6 C 21,7 C 70 % 1015,7 hPa 0,0 l/m 9,6 km/h (2 Bft) NO 48 0 min 0,000 mm 0,0 UV-I 0 W/m 10,1 C 14,0 C 17,7 km/h (3 Bft) 97,14 %
17.05.2017 23:16 15,6 C 21,7 C 70 % 1015,7 hPa 0,0 l/m 7,3 km/h (2 Bft) NO 51 0 min 0,000 mm 0,0 UV-I 0 W/m 10,1 C 15,1 C 9,7 km/h (2 Bft) 100,00 %
17.05.2017 23:18 15,6 C 21,7 C 70 % 1015,7 hPa 0,0 l/m 8,6 km/h (2 Bft) O-NO 63 0 min 0,000 mm 0,0 UV-I 0 W/m 10,1 C 14,4 C 14,5 km/h (3 Bft) 92,45 %
17.05.2017 23:20 15,5 C 21,7 C 70 % 1015,7 hPa 0,0 l/m 8,7 km/h (2 Bft) NO 55 0 min 0,000 mm 0,0 UV-I 0 W/m 10,1 C 14,3 C 14,5 km/h (3 Bft) 95,12 %
17.05.2017 23:22 15,5 C 21,7 C 70 % 1015,7 hPa 0,0 l/m 9,8 km/h (2 Bft) O-NO 65 0 min 0,000 mm 0,0 UV-I 0 W/m 10,1 C 13,8 C 14,5 km/h (3 Bft) 97,73 %
17.05.2017 23:24 15,5 C 21,7 C 70 % 1015,6 hPa 0,0 l/m 9,6 km/h (2 Bft) NO 43 0 min 0,000 mm 0,0 UV-I 0 W/m 10,1 C 13,8 C 14,5 km/h (3 Bft) 95,74 %
17.05.2017 23:26 15,5 C 21,7 C 69 % 1015,6 hPa 0,0 l/m 11,9 km/h (2 Bft) O-NO 58 0 min 0,000 mm 0,0 UV-I 0 W/m 9,8 C 12,9 C 22,5 km/h (4 Bft) 96,00 %
17.05.2017 23:28 15,5 C 21,7 C 69 % 1015,6 hPa 0,0 l/m 9,6 km/h (2 Bft) O-NO 57 0 min 0,000 mm 0,0 UV-I 0 W/m 9,8 C 13,8 C 16,1 km/h (3 Bft) 95,74 %
17.05.2017 23:30 15,5 C 21,7 C 69 % 1015,6 hPa 0,0 l/m 12,3 km/h (3 Bft) NO 55 0 min 0,000 mm 0,0 UV-I 0 W/m 9,8 C 12,7 C 19,3 km/h (3 Bft) 96,23 %
17.05.2017 23:32 15,5 C 21,7 C 69 % 1015,6 hPa 0,0 l/m 11,1 km/h (2 Bft) NO 40 0 min 0,000 mm 0,0 UV-I 0 W/m 9,8 C 13,2 C 14,5 km/h (3 Bft) 97,14 %
17.05.2017 23:34 15,5 C 21,7 C 69 % 1015,6 hPa 0,0 l/m 11,3 km/h (2 Bft) NO 43 0 min 0,000 mm 0,0 UV-I 0 W/m 9,8 C 13,1 C 16,1 km/h (3 Bft) 98,11 %
17.05.2017 23:36 15,5 C 21,7 C 69 % 1015,6 hPa 0,0 l/m 11,4 km/h (2 Bft) O-NO 66 0 min 0,000 mm 0,0 UV-I 0 W/m 9,8 C 13,1 C 16,1 km/h (3 Bft) 95,12 %
17.05.2017 23:38 15,4 C 21,7 C 69 % 1015,6 hPa 0,0 l/m 9,2 km/h (2 Bft) O-NO 74 0 min 0,000 mm 0,0 UV-I 0 W/m 9,7 C 13,9 C 14,5 km/h (3 Bft) 97,62 %
17.05.2017 23:40 15,4 C 21,7 C 69 % 1015,5 hPa 0,0 l/m 12,2 km/h (2 Bft) NO 51 0 min 0,000 mm 0,0 UV-I 0 W/m 9,7 C 12,7 C 16,1 km/h (3 Bft) 96,15 %
17.05.2017 23:42 15,4 C 21,7 C 69 % 1015,5 hPa 0,0 l/m 11,5 km/h (2 Bft) O-NO 61 0 min 0,000 mm 0,0 UV-I 0 W/m 9,7 C 12,9 C 22,5 km/h (4 Bft) 96,00 %
17.05.2017 23:44 15,4 C 21,7 C 69 % 1015,5 hPa 0,0 l/m 10,1 km/h (2 Bft) O-NO 61 0 min 0,000 mm 0,0 UV-I 0 W/m 9,7 C 13,5 C 14,5 km/h (3 Bft) 95,24 %
17.05.2017 23:46 15,4 C 21,7 C 69 % 1015,5 hPa 0,0 l/m 10,3 km/h (2 Bft) O-NO 65 0 min 0,000 mm 0,0 UV-I 0 W/m 9,7 C 13,4 C 16,1 km/h (3 Bft) 94,34 %
17.05.2017 23:48 15,4 C 21,7 C 69 % 1015,5 hPa 0,0 l/m 10,1 km/h (2 Bft) O-NO 66 0 min 0,000 mm 0,0 UV-I 0 W/m 9,7 C 13,5 C 16,1 km/h (3 Bft) 98,08 %
17.05.2017 23:50 15,4 C 21,7 C 69 % 1015,5 hPa 0,0 l/m 9,9 km/h (2 Bft) O 80 0 min 0,000 mm 0,0 UV-I 0 W/m 9,7 C 13,6 C 16,1 km/h (3 Bft) 95,24 %
17.05.2017 23:52 15,4 C 21,7 C 69 % 1015,5 hPa 0,0 l/m 8,5 km/h (2 Bft) O-NO 74 0 min 0,000 mm 0,0 UV-I 0 W/m 9,7 C 14,3 C 12,9 km/h (3 Bft) 100,00 %
17.05.2017 23:54 15,3 C 21,7 C 69 % 1015,5 hPa 0,0 l/m 8,2 km/h (2 Bft) O-NO 71 0 min 0,000 mm 0,0 UV-I 0 W/m 9,6 C 14,3 C 12,9 km/h (3 Bft) 97,56 %
17.05.2017 23:56 15,3 C 21,7 C 69 % 1015,5 hPa 0,0 l/m 8,8 km/h (2 Bft) O 84 0 min 0,000 mm 0,0 UV-I 0 W/m 9,6 C 14,0 C 12,9 km/h (3 Bft) 98,11 %
17.05.2017 23:58 15,2 C 21,7 C 70 % 1015,5 hPa 0,0 l/m 8,6 km/h (2 Bft) O-NO 70 0 min 0,000 mm 0,0 UV-I 0 W/m 9,8 C 14,0 C 14,5 km/h (3 Bft) 97,37 %
_ Min-Zeit 06:04 05:20 14:38 23:40 - 00:00 - - - - - - 23:54 06:04 00:00 10:24
Minimum _ 11,1 C 20,6 C 44 % 1015,5 hPa - 0,0 km/h (0 Bft) - - - - - - 9,6 C 11,1 C 0,0 km/h (0 Bft) 88,00 %
_ Max-Zeit 15:22 15:16 06:22 00:18 00:00 17:50 - - 19:53 14:00 12:42 12:58 10:48 15:30 15:08 00:02
Maximum _ 23,3 C 22,8 C 93 % 1026,3 hPa 0,0 l/m 24,4 km/h
O-NO (4 Bft)
- - 3 min 0,635 mm 6,3 UV-I 897 W/m 14,5 C 21,9 C 38,6 km/h
O (5 Bft)
100,00 %
Durchschnitt _ 17,8 C 21,7 C 68 % 1021,6 hPa #0,0 l/m 9,6 km/h (2 Bft) O-NO - #14:09 h #5,893 mm 3,6 UV-I 490 W/m 11,4 C 16,3 C 14,4 km/h (3 Bft) 96,66 %